Date StartTime U_cm/s V_cm/s W_cm/s Ustd_cm/s Vstd_cm/s Wstd_cm/s Uvar_(cm/s)^2 Vvar_(cm/s)^2 Wvar_(cm/s)^2 KE_(m/s)^2 TurbulentKE_(m/s)^2 HorizWindSpeed_cm/s FrictionSpeec_cm/s DragCoef SpeedOfSound_m/s SonicTemperature_C Pressure_mb 
03/28/2014  00:00:00       -9.894      -43.451        0.714       25.069       33.857       30.073      628.465     1146.278      904.396        0.233        0.134       44.563       27.288        0.375      335.936        6.902      861.498
03/28/2014  00:01:00      -15.545       15.462       31.686       21.972       28.370       28.717      482.786      804.860      824.688        0.180        0.106       21.925       15.496        0.500      335.832        6.728      861.497
03/28/2014  00:02:00       47.132       -8.680       35.454       44.311       40.694       42.829     1963.487     1656.042     1834.325        0.450        0.273       47.925       34.921        0.531      335.840        6.741      861.487
03/28/2014  00:03:00       12.771        3.975       57.101       31.414       50.138       27.824      986.828     2513.781      774.190        0.386        0.214       13.375       29.082        4.727      335.932        6.895      861.470
03/28/2014  00:04:00       14.047       18.967       48.530       31.395       37.913       18.597      985.621     1437.432      345.837        0.284        0.138       23.602       12.034        0.260      335.897        6.836      861.438
03/28/2014  00:05:00       57.770       41.974       27.243       54.887       24.532       23.481     3012.577      601.818      551.371        0.500        0.208       71.409       22.236        0.097      335.800        6.675      861.423
03/28/2014  00:06:00       85.729       52.048       52.322       38.358       43.677       29.705     1471.354     1907.720      882.408        0.853        0.213      100.292       24.310        0.059      335.757        6.603      861.418
03/28/2014  00:07:00       64.797       50.097       59.614       41.176       46.143       29.576     1695.463     2129.154      874.721        0.748        0.235       81.904       24.882        0.092      335.746        6.584      861.421
03/28/2014  00:08:00       97.379        1.819        6.534       32.245       24.534       24.886     1039.715      601.941      619.323        0.589        0.113       97.396       11.192        0.013      335.701        6.513      861.426
03/28/2014  00:09:00       40.568       27.554       30.026       29.308       27.247       29.813      858.967      742.409      888.823        0.290        0.125       49.041       17.244        0.124      335.667        6.454      861.440
03/28/2014  00:10:00       90.016       -5.440       35.902       60.831       32.715       35.888     3700.458     1070.286     1287.916        0.774        0.303       90.181       33.284        0.136      335.650        6.425      861.452
03/28/2014  00:11:00       94.075       38.154       11.546       60.566       44.752       28.495     3668.206     2002.700      811.974        0.846        0.324      101.518       23.540        0.054      335.636        6.403      861.460
03/28/2014  00:12:00       96.666       35.011       17.365       41.377       43.165       35.291     1712.052     1863.176     1245.435        0.785        0.241      102.811       28.093        0.075      335.663        6.448      861.468
03/28/2014  00:13:00       55.225       23.612       36.399       37.237       36.129       26.140     1386.602     1305.290      683.293        0.415        0.169       60.061       14.520        0.058      335.617        6.370      861.484
03/28/2014  00:14:00       63.406       64.481       44.859       39.017       40.053       33.026     1522.316     1604.247     1090.746        0.720        0.211       90.433       12.555        0.019      335.608        6.356      861.497
03/28/2014  00:15:00       65.758       55.594       30.144       31.193       35.679       26.221      972.986     1273.017      687.551        0.563        0.147       86.110       20.210        0.055      335.567        6.287      861.511
03/28/2014  00:16:00       89.658       51.071        8.333       34.466       25.890       19.858     1187.918      670.273      394.352        0.648        0.113      103.183       12.470        0.015      335.523        6.214      861.506
03/28/2014  00:17:00      114.278       84.136       40.341       50.054       30.700       38.079     2505.420      942.495     1450.039        1.333        0.245      141.910       34.344        0.059      335.426        6.051      861.489
03/28/2014  00:18:00      114.101       57.692       13.384       55.756       47.016       47.245     3108.785     2210.486     2232.128        1.204        0.378      127.856       30.457        0.057      335.387        5.985      861.466
03/28/2014  00:19:00       85.403       56.994       54.695       50.932       42.870       36.926     2594.093     1837.848     1363.565        0.966        0.290      102.674       25.767        0.063      335.420        6.042      861.449
03/28/2014  00:20:00       96.489       54.275       22.884       39.823       35.789       32.022     1585.839     1280.833     1025.406        0.834        0.195      110.707       11.026        0.010      335.341        5.910      861.454
03/28/2014  00:21:00       42.627       54.383       40.628       42.767       32.931       30.852     1829.017     1084.460      951.831        0.514        0.193       69.099       26.020        0.142      335.370        5.957      861.463
03/28/2014  00:22:00       34.363       37.109       23.549       23.533       20.640       20.046      553.782      425.991      401.826        0.225        0.069       50.576        9.462        0.035      335.383        5.977      861.477
03/28/2014  00:23:00       56.635       51.573       13.023       16.414       18.571       18.173      269.406      344.892      330.243        0.349        0.047       76.598       11.553        0.023      335.286        5.817      861.492
03/28/2014  00:24:00       35.503       35.313       11.971       23.361       18.125       20.223      545.744      328.521      408.968        0.197        0.064       50.074       15.456        0.095      335.241        5.743      861.507
03/28/2014  00:25:00       30.062       63.152       -1.111       23.018       22.970       17.130      529.809      527.613      293.426        0.312        0.068       69.942       12.976        0.034      335.262        5.777      861.534
03/28/2014  00:26:00       22.300       58.597       -0.401       17.145       22.015       16.722      293.940      484.679      279.611        0.249        0.053       62.697       11.187        0.032      335.286        5.817      861.562
03/28/2014  00:27:00       24.975       73.018       -2.490       18.668       28.270       17.844      348.492      799.188      318.405        0.371        0.073       77.171       18.384        0.057      335.252        5.760      861.583
03/28/2014  00:28:00       20.824      109.554      -18.773       17.094       24.133       19.051      292.202      582.402      362.941        0.701        0.062      111.516       13.061        0.014      335.286        5.817      861.597
03/28/2014  00:29:00       25.861       83.909       -8.809       18.949       31.137       18.632      359.046      969.532      347.154        0.473        0.084       87.804       17.090        0.038      335.247        5.753      861.605
03/28/2014  00:30:00       27.691       84.850       -7.826       14.659       35.864       16.521      214.885     1286.218      272.940        0.490        0.089       89.255       18.689        0.044      335.238        5.737      861.624
03/28/2014  00:31:00       45.264       48.014       -1.433       20.758       26.722       21.559      430.900      714.079      464.786        0.298        0.080       65.986       19.096        0.084      335.243        5.746      861.650
03/28/2014  00:32:00       27.073       32.465       -0.549       21.611       29.304       20.465      467.056      858.699      418.821        0.177        0.087       42.273       19.037        0.203      335.217        5.703      861.672
03/28/2014  00:33:00       25.574       34.796       -5.236       20.190       21.214       13.566      407.633      450.043      184.030        0.147        0.052       43.184       11.577        0.072      335.207        5.686      861.703
03/28/2014  00:34:00       -2.024       57.590      -12.100       10.028       11.725        6.674      100.569      137.486       44.546        0.187        0.014       57.626        3.671        0.004      335.316        5.862      861.730
03/28/2014  00:35:00      -11.421       79.944       -7.920       19.285       22.446       15.479      371.930      503.805      239.609        0.385        0.056       80.756       12.436        0.024      335.294        5.832      861.749
03/28/2014  00:36:00      -14.169       81.554       -9.713       23.628       25.856       12.548      558.267      668.528      157.462        0.416        0.069       82.776        4.816        0.003      335.335        5.901      861.767
03/28/2014  00:37:00      -64.776       72.446      -16.807       18.698       20.868       12.723      349.627      435.454      161.878        0.534        0.047       97.182       13.494        0.019      335.260        5.775      861.782
03/28/2014  00:38:00      -67.480       72.879      -21.385       11.428       19.082       11.522      130.589      364.120      132.753        0.547        0.031       99.323       10.686        0.012      335.324        5.881      861.792
03/28/2014  00:39:00      -79.771       80.159      -25.796       11.160       11.236        8.205      124.548      126.253       67.328        0.689        0.016      113.088        6.810        0.004      335.300        5.839      861.811
03/28/2014  00:40:00      -86.954       85.247      -24.661       18.663       19.816       14.528      348.303      392.663      211.049        0.819        0.048      121.771       10.093        0.007      335.345        5.917      861.831
03/28/2014  00:41:00      -74.335       60.922      -18.234       24.657       29.272       17.679      607.988      856.875      312.536        0.567        0.089       96.110       16.894        0.031      335.410        6.024      861.842
03/28/2014  00:42:00      -77.848       96.811      -21.238       35.052       27.273       22.029     1228.642      743.798      485.283        0.917        0.123      124.228       20.533        0.027      335.368        5.955      861.864
03/28/2014  00:43:00      -65.812      128.860      -16.815       40.639       42.337       23.553     1651.568     1792.437      554.753        1.261        0.200      144.693       20.550        0.020      335.397        6.005      861.878
03/28/2014  00:44:00      -93.068      120.299      -19.884       48.341       55.490       31.930     2336.834     3079.145     1019.495        1.498        0.322      152.097       27.678        0.033      335.341        5.909      861.881
03/28/2014  00:45:00      -10.073      193.461      -21.794       55.535       58.184       32.860     3084.174     3385.382     1079.806        2.278        0.377      193.723       16.523        0.007      335.538        6.237      861.882
03/28/2014  00:46:00      -87.330      153.984      -21.520       37.356       56.407       27.328     1395.468     3181.703      746.840        1.856        0.266      177.024       27.048        0.023      335.556        6.268      861.885
03/28/2014  00:47:00     -137.934      115.958      -33.785       51.885       50.550       32.937     2692.086     2555.252     1084.814        1.997        0.317      180.200       33.210        0.034      335.632        6.395      861.894
03/28/2014  00:48:00     -109.394      127.363      -24.663       47.227       72.009       27.482     2230.388     5185.270      755.238        1.848        0.409      167.894       27.457        0.027      335.767        6.619      861.899
03/28/2014  00:49:00      -70.675      -18.957       -6.233       79.263       50.939       20.525     6282.631     2594.743      421.279        0.734        0.465       73.174       12.854        0.031      335.736        6.567      861.895
03/28/2014  00:50:00       17.975      -72.375      -10.331       25.501       29.944       22.893      650.279      896.629      524.102        0.387        0.104       74.573        4.372        0.003      335.847        6.753      861.896
03/28/2014  00:51:00       22.082       -0.990       13.350       24.195       33.281       17.184      585.389     1107.622      295.290        0.133        0.099       22.105       14.203        0.413      335.798        6.673      861.899
03/28/2014  00:52:00       29.410       59.709       38.069       34.909       27.048       29.199     1218.604      731.595      852.565        0.434        0.140       66.559       23.034        0.120      335.599        6.341      861.897
03/28/2014  00:53:00       23.415       74.554       67.448       52.654       50.811       42.935     2772.453     2581.725     1843.409        0.893        0.360       78.145       29.101        0.139      335.633        6.397      861.892
03/28/2014  00:54:00      107.401       81.822       26.009       47.453       33.087       41.976     2251.796     1094.776     1761.965        1.201        0.255      135.018       22.103        0.027      335.788        6.656      861.893
03/28/2014  00:55:00       68.547       74.202        2.481       48.427       44.774       35.627     2345.170     2004.695     1269.266        0.791        0.281      101.018       24.525        0.059      335.693        6.498      861.905
03/28/2014  00:56:00       48.099       95.935      -12.720       32.835       41.337       23.661     1078.158     1708.735      559.844        0.751        0.167      107.317       22.597        0.044      335.759        6.608      861.914
03/28/2014  00:57:00      -17.434       67.599      -12.592       41.033       72.436       36.308     1683.694     5246.976     1318.252        0.664        0.412       69.811       45.092        0.417      335.724        6.548      861.937
03/28/2014  00:58:00     -172.148       24.861      -13.090      113.077       72.632       49.137    12786.442     5275.411     2414.434        2.545        1.024      173.934       54.448        0.098      335.689        6.488      861.944
03/28/2014  00:59:00     -223.900       89.114       -9.734       88.345       59.134       43.605     7804.769     3496.820     1901.402        3.568        0.660      240.983       40.993        0.029      335.720        6.538      861.942
03/28/2014  01:00:00     -113.927       70.687      -14.201       57.545       33.437       26.910     3311.394     1118.006      724.168        1.166        0.258      134.075       26.431        0.039      335.740        6.576      861.918
03/28/2014  01:01:00     -125.250       25.417       -4.047       55.923       35.287       27.299     3127.391     1245.194      745.246        1.073        0.256      127.802       26.673        0.044      335.714        6.533      861.916
03/28/2014  01:02:00     -122.767        2.624       -4.273       63.043       45.659       29.478     3974.396     2084.716      868.950        1.101        0.346      122.795       30.357        0.061      335.647        6.422      861.926
03/28/2014  01:03:00     -153.050      -15.051      -10.329       57.582       42.166       26.101     3315.689     1777.945      681.281        1.477        0.289      153.788       23.687        0.024      335.583        6.314      861.930
03/28/2014  01:04:00     -178.266      -14.793      -14.742       49.437       63.904       22.744     2444.032     4083.760      517.295        1.963        0.352      178.879       22.767        0.016      335.652        6.426      861.940
03/28/2014  01:05:00     -140.476       44.741       -2.254       71.454       55.892       27.105     5105.657     3123.950      734.655        1.535        0.448      147.429        9.458        0.004      335.523        6.212      861.937
03/28/2014  01:06:00      -78.745      -19.554        1.561       65.993       63.870       27.538     4355.039     4079.405      758.350        0.789        0.460       81.137       25.293        0.097      335.528        6.223      861.919
03/28/2014  01:07:00     -101.209      -74.672       -0.919       56.947       44.245       32.892     3242.975     1957.644     1081.860        1.105        0.314      125.774       27.254        0.047      335.540        6.240      861.914
03/28/2014  01:08:00     -132.496      -76.251       -8.569       47.817       31.443       22.397     2286.475      988.683      501.640        1.361        0.189      152.871       21.987        0.021      335.563        6.280      861.909
03/28/2014  01:09:00     -114.281      -69.252        6.340       61.380       42.086       30.044     3767.512     1771.236      902.659        1.217        0.322      133.626       31.030        0.054      335.482        6.145      861.891
03/28/2014  01:10:00     -212.775      -96.890       -3.489       48.212       44.619       24.355     2324.388     1990.816      593.173        2.979        0.245      233.797       18.327        0.006      335.572        6.290      861.865
03/28/2014  01:11:00     -146.846      -17.760       -9.119       79.543       52.607       35.021     6327.094     2767.510     1226.471        1.614        0.516      147.916       42.173        0.081      335.599        6.339      861.841
03/28/2014  01:12:00     -272.889      -38.699      -21.867       58.692       86.086       43.152     3444.719     7410.785     1862.059        4.458        0.636      275.620       36.038        0.017      335.676        6.464      861.817
03/28/2014  01:13:00     -266.326      -58.518       -9.289      128.892       74.695       49.593    16613.114     5579.314     2459.433        4.954        1.233      272.679       63.171        0.054      335.703        6.511      861.822
03/28/2014  01:14:00     -203.914      -15.610      -15.665       78.169       85.793       39.039     6110.439     7360.489     1524.059        2.853        0.750      204.510       35.111        0.029      335.694        6.493      861.825
03/28/2014  01:15:00     -197.091      -48.971       -8.029       60.546       75.935       35.464     3665.867     5766.163     1257.730        2.600        0.534      203.084       30.792        0.023      335.613        6.361      861.832
03/28/2014  01:16:00     -148.831      -47.209        0.037       72.167       63.161       33.962     5208.045     3989.252     1153.388        1.736        0.518      156.139       35.601        0.052      335.581        6.310      861.850
03/28/2014  01:17:00     -159.924      -37.913        3.899       66.307       52.009       31.352     4396.561     2704.909      982.943        1.755        0.404      164.356       33.210        0.041      335.556        6.268      861.856
03/28/2014  01:18:00     -148.905      -49.124       -6.702       81.120       63.220       35.239     6580.492     3996.771     1241.765        1.822        0.591      156.799       38.601        0.061      335.560        6.275      861.885
03/28/2014  01:19:00     -189.720      -99.476      -12.056       96.621       75.393       42.235     9335.602     5684.155     1783.764        3.142        0.840      214.217       49.459        0.053      335.534        6.228      861.916
03/28/2014  01:20:00     -126.896      -71.362       -3.102       91.148       92.132       45.791     8307.974     8488.296     2096.779        2.005        0.945      145.586       50.999        0.123      335.489        6.155      861.939
03/28/2014  01:21:00     -167.002      -39.131       -6.949       69.581       53.365       31.894     4841.458     2847.842     1017.197        1.909        0.435      171.526       38.094        0.049      335.493        6.162      861.976
03/28/2014  01:22:00     -152.233      -66.794      -13.126       52.266       47.478       31.233     2731.745     2254.174      975.500        1.688        0.298      166.242       24.788        0.022      335.523        6.211      861.992
03/28/2014  01:23:00     -133.311      -19.068       -0.374       62.545       59.984       38.134     3911.828     3598.133     1454.234        1.355        0.448      134.668       37.992        0.080      335.464        6.114      862.008
03/28/2014  01:24:00     -152.822      -48.716       10.900       72.489       57.956       36.214     5254.600     3358.883     1311.429        1.788        0.496      160.399       36.891        0.053      335.457        6.102      862.022
03/28/2014  01:25:00     -176.352      -39.937       -4.254       65.089       60.213       34.401     4236.572     3625.594     1183.448        2.088        0.452      180.817       36.262        0.040      335.427        6.053      862.038
03/28/2014  01:26:00     -134.804      -96.656       -8.876       50.754       56.084       28.094     2576.010     3145.419      789.288        1.705        0.326      165.875       25.342        0.023      335.464        6.114      862.040
03/28/2014  01:27:00     -137.982     -142.539      -11.910       67.028       55.349       39.865     4492.773     3063.564     1589.189        2.432        0.457      198.385       35.967        0.033      335.436        6.069      862.041
03/28/2014  01:28:00     -192.601     -121.889      -10.689       54.665       59.307       33.847     2988.213     3517.299     1145.614        2.986        0.383      227.930       32.387        0.020      335.429        6.052      862.037
03/28/2014  01:29:00     -166.086      -85.663       -0.982       64.624       53.679       34.487     4176.203     2881.450     1189.335        2.158        0.412      186.877       32.930        0.031      335.404        6.012      862.034
03/28/2014  01:30:00      -51.611      -67.479       -0.312       69.567       47.051       24.632     4839.506     2213.821      606.747        0.744        0.383       84.954       17.837        0.044      335.426        6.051      862.037
03/28/2014  01:31:00     -103.612     -141.356       -0.710       60.905       57.719       30.860     3709.431     3331.455      952.328        1.935        0.400      175.263       31.114        0.032      335.354        5.931      862.054
03/28/2014  01:32:00      -94.196      -90.102       -4.105       55.430       58.895       33.052     3072.450     3468.612     1092.447        1.232        0.382      130.351       30.400        0.054      335.344        5.913      862.072
03/28/2014  01:33:00     -123.283      -49.110        5.451       80.335       54.433       32.525     6453.739     2962.960     1057.876        1.406        0.524      132.704       30.549        0.053      335.234        5.731      862.107
03/28/2014  01:34:00     -124.982      -59.144        1.411       46.561       38.596       24.180     2167.900     1489.678      584.681        1.168        0.212      138.270       22.901        0.027      335.165        5.618      862.140
03/28/2014  01:35:00      -84.648      -77.478        7.271       58.987       33.339       30.941     3479.440     1111.501      957.369        0.938        0.277      114.753       31.882        0.077      335.178        5.637      862.135
03/28/2014  01:36:00      -78.395      -38.266       -0.676       39.526       26.397       18.489     1562.323      696.800      341.830        0.511        0.130       87.236       17.861        0.042      335.214        5.699      862.138
03/28/2014  01:37:00     -107.515      -72.725       -6.512       63.505       47.812       26.346     4032.947     2285.997      694.112        1.195        0.351      129.801       30.984        0.057      335.235        5.732      862.141
03/28/2014  01:38:00     -136.480      -66.919       -2.593       63.156       62.950       35.652     3988.713     3962.687     1271.088        1.617        0.461      152.003       25.797        0.029      335.201        5.675      862.135
03/28/2014  01:39:00     -157.737      -47.943       -5.393       75.853       66.490       37.318     5753.738     4420.955     1392.615        1.939        0.578      164.862       29.652        0.032      335.140        5.574      862.125
03/28/2014  01:40:00      -91.488     -113.072        0.265       63.727       67.725       30.421     4061.137     4586.725      925.445        1.536        0.479      145.449       27.015        0.034      335.142        5.579      862.090
03/28/2014  01:41:00      -79.553     -195.458       -7.175       59.649       78.960       32.985     3557.975     6234.735     1088.038        2.773        0.544      211.028       30.792        0.021      335.248        5.753      862.041
03/28/2014  01:42:00      -75.035     -204.463        3.637       59.211       45.442       37.137     3505.938     2064.989     1379.146        2.720        0.348      217.796       26.720        0.015      335.439        6.070      862.021
03/28/2014  01:43:00      -73.702     -149.993       -9.247       56.820       74.336       47.132     3228.523     5525.883     2221.448        1.949        0.549      167.122       47.984        0.082      335.468        6.122      861.988
03/28/2014  01:44:00      -45.972      -87.269       -6.443       83.906       58.463       44.859     7040.141     3417.960     2012.371        1.112        0.624       98.637       33.905        0.118      335.527        6.219      861.987
03/28/2014  01:45:00     -112.282      -61.356        1.840       88.465       45.505       31.988     7826.045     2070.726     1023.204        1.365        0.546      127.952       39.051        0.093      335.329        5.890      862.020
03/28/2014  01:46:00      -96.855      -47.468        7.102       54.165       48.304       27.025     2933.900     2333.283      730.327        0.884        0.300      107.862       21.655        0.040      335.174        5.632      862.032
03/28/2014  01:47:00     -141.950     -104.895       -0.065       45.933       33.348       27.591     2109.848     1112.098      761.248        1.757        0.199      176.501       19.760        0.013      335.183        5.647      862.049
03/28/2014  01:48:00      -85.143     -118.383       -0.098       54.095       73.954       28.113     2926.319     5469.213      790.358        1.522        0.459      145.821       27.575        0.036      335.234        5.730      862.048
03/28/2014  01:49:00      -85.690     -112.526        8.594       61.601       54.204       31.854     3794.731     2938.070     1014.671        1.391        0.387      141.439       26.371        0.035      335.253        5.761      862.044
03/28/2014  01:50:00     -118.087     -108.364        1.505       59.436       45.615       37.734     3532.653     2080.693     1423.869        1.636        0.352      160.273       25.184        0.025      335.201        5.676      862.055
03/28/2014  01:51:00      -97.492      -59.848       10.265       60.417       42.161       33.615     3650.191     1777.580     1129.980        0.987        0.328      114.396       37.246        0.106      335.142        5.580      862.053
03/28/2014  01:52:00      -80.230      -86.063       -7.166       32.732       44.642       17.059     1071.407     1992.922      291.026        0.862        0.168      117.660       10.447        0.008      335.155        5.602      862.050
03/28/2014  01:53:00      -30.141      -52.014        4.842       37.694       27.576       21.941     1420.807      760.437      481.425        0.315        0.133       60.116       21.121        0.123      335.187        5.654      862.056
03/28/2014  01:54:00      -76.518      -69.778       -8.474       44.561       27.978       14.370     1985.658      782.778      206.489        0.688        0.149      103.557       10.854        0.011      335.202        5.678      862.061
03/28/2014  01:55:00     -115.205     -108.495       -4.084       57.966       49.906       24.369     3360.015     2490.646      593.854        1.575        0.322      158.251       28.761        0.033      335.147        5.589      862.083
03/28/2014  01:56:00      -40.215      -86.573        0.828       38.811       52.767       23.341     1506.324     2784.368      544.815        0.697        0.242       95.458       21.164        0.049      335.195        5.665      862.102
03/28/2014  01:57:00      -92.321     -121.843       -8.535       53.836       69.553       34.999     2898.314     4837.654     1224.912        1.620        0.448      152.869       27.401        0.032      335.128        5.557      862.124
03/28/2014  01:58:00     -135.077     -104.409       -5.955       51.181       67.726       29.522     2619.546     4586.806      871.520        1.863        0.404      170.725       30.833        0.033      335.066        5.454      862.129
03/28/2014  01:59:00      -63.995      -51.083        2.907       53.237       44.784       26.614     2834.176     2005.618      708.327        0.613        0.277       81.883       23.639        0.083      335.054        5.436      862.124
03/28/2014  02:00:00      -64.344      -92.767       -4.245       28.279       34.321       20.264      799.712     1177.899      410.648        0.758        0.119      112.898       17.310        0.024      335.073        5.464      862.125
03/28/2014  02:01:00      -97.061     -101.915      -10.415       40.702       40.468       22.090     1656.655     1637.642      487.981        1.185        0.189      140.739        8.893        0.004      335.075        5.469      862.126
03/28/2014  02:02:00      -71.791      -70.855      -11.035       34.243       23.890       22.693     1172.567      570.712      514.962        0.628        0.113      100.868       12.148        0.015      335.064        5.451      862.101
03/28/2014  02:03:00      -65.717      -81.290      -12.390       28.189       29.195       17.596      794.611      852.356      309.610        0.652        0.098      104.531       12.492        0.014      335.180        5.642      862.087
03/28/2014  02:04:00      -57.171     -138.928       -4.987       56.127       41.315       35.292     3150.269     1706.963     1245.493        1.435        0.305      150.232       19.608        0.017      335.659        6.440      862.058
03/28/2014  02:05:00      -79.923      -50.131       14.317       72.548       51.734       29.775     5263.184     2676.385      886.535        0.896        0.441       94.344       23.556        0.062      335.363        5.947      862.059
03/28/2014  02:06:00     -141.363      -90.273        1.647       62.997       36.237       26.053     3968.596     1313.093      678.756        1.705        0.298      167.728       22.011        0.017      335.253        5.762      862.057
03/28/2014  02:07:00      -30.163      -38.860        3.358       37.244       31.262       20.493     1387.100      977.313      419.947        0.261        0.139       49.193       14.643        0.089      335.330        5.892      862.038
03/28/2014  02:08:00      -70.302      -65.377        2.827       45.824       40.182       27.345     2099.829     1614.609      747.723        0.684        0.223       96.002       24.510        0.065      335.318        5.871      862.026
03/28/2014  02:09:00      -71.196      -84.304       -6.173       44.721       45.234       21.184     1999.937     2046.123      448.775        0.835        0.225      110.345       26.469        0.058      335.325        5.882      862.015
03/28/2014  02:10:00      -79.963     -112.240       -3.877       45.560       34.338       24.476     2075.702     1179.087      599.071        1.143        0.193      137.811       22.055        0.026      335.387        5.985      861.999
03/28/2014  02:11:00     -135.796      -87.438       -2.686       52.053       40.356       26.593     2709.561     1628.624      707.166        1.557        0.252      161.511       22.230        0.019      335.423        6.045      861.982
03/28/2014  02:12:00     -120.847      -58.819      -10.854       34.823       28.067       20.805     1212.654      787.739      432.843        1.031        0.122      134.401       18.136        0.018      335.424        6.048      861.969
03/28/2014  02:13:00      -91.952      -65.231      -10.700       25.781       22.017       17.665      664.637      484.769      312.038        0.714        0.073      112.739       11.557        0.011      335.478        6.140      861.959
03/28/2014  02:14:00      -90.266      -51.731       -3.957       33.498       25.366       19.869     1122.116      643.433      394.760        0.650        0.108      104.039       14.285        0.019      335.475        6.134      861.949
03/28/2014  02:15:00      -93.395      -39.310       -3.537       18.375       20.174       14.257      337.649      406.971      203.269        0.561        0.047      101.330        8.028        0.006      335.397        6.003      861.931
03/28/2014  02:16:00      -64.694      -24.885       -6.174       12.010       16.010        9.388      144.231      256.322       88.135        0.267        0.024       69.315        2.820        0.002      335.441        6.076      861.903
03/28/2014  02:17:00      -58.128      -40.716        7.296       32.942       26.085       18.059     1085.143      680.453      326.142        0.359        0.105       70.969       17.525        0.061      335.476        6.135      861.884
03/28/2014  02:18:00      -59.229      -61.232        3.722       29.772       21.616       20.477      886.358      467.243      419.295        0.452        0.089       85.191       16.029        0.035      335.494        6.165      861.883
03/28/2014  02:19:00      -43.928      -43.366        4.862       30.844       23.278       13.572      951.374      541.853      184.212        0.276        0.084       61.728       15.549        0.063      335.455        6.101      861.874
03/28/2014  02:20:00      -38.500      -25.041       -2.574       22.815       23.532       15.715      520.546      553.752      246.970        0.172        0.066       45.928        9.626        0.044      335.580        6.309      861.859
03/28/2014  02:21:00       -5.418       -1.149        6.075       14.608        9.933       10.781      213.395       98.669      116.222        0.025        0.021        5.539        9.375        2.865      335.399        6.005      861.846
03/28/2014  02:22:00      -24.427      -51.274       13.119       27.856       45.633       25.486      775.937     2082.373      649.554        0.345        0.175       56.795       18.893        0.111      335.471        6.126      861.831
03/28/2014  02:23:00       92.487     -117.207      -13.577       47.582       53.943       28.839     2264.029     2909.835      831.674        1.424        0.300      149.303       25.778        0.030      335.347        5.921      861.820
03/28/2014  02:24:00        8.124      -46.796       27.643       30.721       42.162       40.928      943.757     1777.668     1675.108        0.371        0.220       47.496       20.372        0.184      335.264        5.781      861.804
03/28/2014  02:25:00       -8.384      -56.900       31.209       38.336       47.247       41.679     1469.676     2232.238     1737.145        0.486        0.272       57.514        6.226        0.012      335.254        5.766      861.794
03/28/2014  02:26:00       31.669       -8.355       49.624       65.066       63.883       47.693     4233.577     4081.089     2274.596        0.706        0.529       32.753       49.335        2.269      335.132        5.565      861.779
03/28/2014  02:27:00        2.401      -35.184       43.840       34.480       44.408       34.729     1188.837     1972.094     1206.095        0.377        0.218       35.265       23.650        0.450      335.219        5.707      861.754
03/28/2014  02:28:00       19.980        0.241       45.155       47.090       58.992       47.860     2217.443     3480.058     2290.626        0.521        0.399       19.982       33.402        2.794      335.068        5.458      861.718
03/28/2014  02:29:00       18.473      -45.755       28.574       41.572       66.956       47.766     1728.191     4483.093     2281.602        0.587        0.425       49.343       42.569        0.744      335.005        5.351      861.693
03/28/2014  02:30:00       79.185      -84.591       -4.102       64.405       74.649       48.930     4148.015     5572.548     2394.128        1.278        0.606      115.871       46.961        0.164      334.973        5.298      861.672
03/28/2014  02:31:00      127.605     -137.617      -23.939       71.801       87.671       49.050     5155.343     7686.140     2405.918        2.552        0.762      187.674       60.000        0.102      335.011        5.360      861.664
03/28/2014  02:32:00       95.999     -141.521      -28.684       51.396       52.599       31.572     2641.579     2766.650      996.803        1.823        0.320      171.009       24.539        0.021      335.131        5.560      861.679
03/28/2014  02:33:00       49.217     -102.974      -10.782       65.994       60.260       39.348     4355.247     3631.218     1548.259        1.134        0.477      114.131       36.762        0.104      335.071        5.461      861.690
03/28/2014  02:34:00       54.509      -82.059       -4.739       62.157       64.284       44.948     3863.545     4132.439     2020.329        0.987        0.501       98.513       42.291        0.184      335.044        5.417      861.679
03/28/2014  02:35:00       34.229      -50.184       28.368       63.128       57.278       51.088     3985.146     3280.780     2610.007        0.718        0.494       60.746       35.337        0.338      335.002        5.348      861.650
03/28/2014  02:36:00      136.354     -174.452        0.492       95.758      112.922       58.696     9169.603    12751.272     3445.235        3.719        1.268      221.418       75.028        0.115      335.015        5.366      861.624
03/28/2014  02:37:00       24.966     -109.811       -3.648       55.139       97.049       58.558     3040.283     9418.422     3429.015        1.429        0.794      112.613       42.702        0.144      335.172        5.629      861.614
03/28/2014  02:38:00      102.646     -115.016      -25.081       84.650       89.928       47.085     7165.607     8087.005     2217.024        2.093        0.873      154.159       55.329        0.129      335.098        5.504      861.600
03/28/2014  02:39:00       52.322     -113.982      -10.862       50.502       60.045       36.755     2550.496     3605.346     1350.936        1.168        0.375      125.418       31.834        0.064      335.098        5.506      861.591
03/28/2014  02:40:00       21.693      -62.367       11.146       38.821       42.497       31.940     1507.088     1805.997     1020.154        0.441        0.217       66.032       26.172        0.157      335.148        5.590      861.571
03/28/2014  02:41:00       12.376      -52.782       11.509       23.952       51.597       32.171      573.708     2662.214     1034.949        0.367        0.214       54.214       33.564        0.383      335.192        5.662      861.549
03/28/2014  02:42:00       27.121        6.359       36.704       43.088       57.910       40.817     1856.550     3353.611     1666.051        0.450        0.344       27.857       47.413        2.897      335.033        5.399      861.524
03/28/2014  02:43:00       -5.108       30.278       62.034       24.355       41.223       22.174      593.168     1699.373      491.701        0.379        0.139       30.706       25.501        0.690      334.994        5.336      861.496
03/28/2014  02:44:00        3.095        5.495       58.850       23.754       46.160       26.990      564.234     2130.779      728.457        0.346        0.171        6.307       28.505       20.426      335.030        5.394      861.487
03/28/2014  02:45:00       26.428       14.904       37.404       41.978       39.932       30.184     1762.111     1594.540      911.094        0.329        0.213       30.341       33.790        1.240      334.974        5.301      861.485
03/28/2014  02:46:00      -11.436       34.417       53.945       16.723       30.185       19.717      279.658      911.120      388.765        0.290        0.079       36.267       18.162        0.251      334.946        5.254      861.472
03/28/2014  02:47:00       -7.771       35.704       47.293       15.833       16.886       11.083      250.696      285.147      122.830        0.212        0.033       36.539        9.092        0.062      334.967        5.289      861.460
03/28/2014  02:48:00       14.487       17.968       14.501       28.436       19.295       21.408      808.607      372.284      458.300        0.119        0.082       23.081       15.180        0.433      334.799        5.010      861.465
03/28/2014  02:49:00       51.201       29.735       -1.472       27.208       21.243       20.939      740.299      451.275      438.432        0.257        0.082       59.209       15.764        0.071      334.748        4.926      861.456
03/28/2014  02:50:00       53.926       43.694       -1.595       35.609       24.251       27.901     1267.975      588.125      778.453        0.373        0.132       69.406       17.419        0.063      334.733        4.902      861.441
03/28/2014  02:51:00       86.003       57.082        1.288       29.041       27.194       23.311      843.353      739.506      543.402        0.639        0.106      103.222       16.105        0.024      334.746        4.921      861.441
03/28/2014  02:52:00       89.126       64.629        6.097       34.417       26.414       21.850     1184.509      697.704      477.432        0.726        0.118      110.092       12.446        0.013      334.687        4.823      861.467
03/28/2014  02:53:00       52.335       57.515       52.414       24.326       23.254       17.204      591.733      540.741      295.994        0.511        0.071       77.762       10.290        0.018      334.675        4.803      861.493
03/28/2014  02:54:00      101.050       67.512       30.512       23.951       16.445       26.263      573.673      270.452      689.753        0.862        0.077      121.527       12.825        0.011      334.684        4.818      861.496
03/28/2014  02:55:00       94.639       58.812       16.204       24.896       18.219       24.947      619.807      331.925      622.335        0.713        0.079      111.424       12.739        0.013      334.656        4.771      861.499
03/28/2014  02:56:00       94.534       58.097       18.114       34.264       19.361       26.207     1174.004      374.845      686.827        0.744        0.112      110.959       20.038        0.033      334.640        4.745      861.497
03/28/2014  02:57:00       86.973       41.121       28.114       35.515       28.481       25.031     1261.349      811.188      626.567        0.637        0.135       96.204       16.950        0.031      334.700        4.846      861.491
03/28/2014  02:58:00       48.669       48.059       49.510       24.187       19.980       23.775      584.988      399.188      565.250        0.434        0.077       68.399       12.927        0.036      334.670        4.796      861.481
03/28/2014  02:59:00       25.851       46.633       60.674       30.150       28.572       19.957      908.999      816.384      398.263        0.432        0.106       53.319       19.288        0.131      334.710        4.862      861.477
03/28/2014  03:00:00       47.314       37.813       60.466       24.974       18.910       12.726      623.687      357.576      161.953        0.423        0.057       60.568       11.495        0.036      334.713        4.869      861.478
03/28/2014  03:01:00       44.684       43.240       38.421       26.891       22.803       29.505      723.108      519.987      870.569        0.373        0.106       62.180       17.295        0.077      334.680        4.811      861.476
03/28/2014  03:02:00        3.554      -11.910       17.341       11.219       28.399       18.859      125.871      806.525      355.643        0.087        0.064       12.429       20.081        2.610      334.857        5.106      861.469
03/28/2014  03:03:00       11.532      -51.802       -0.034       18.344       21.684       12.618      336.499      470.216      159.217        0.189        0.048       53.070        7.192        0.018      334.834        5.068      861.467
03/28/2014  03:04:00      -60.623      -30.608       -1.842       18.311       17.907       13.369      335.306      320.655      178.739        0.272        0.042       67.912       11.277        0.028      334.669        4.794      861.476
03/28/2014  03:05:00      -44.941      -41.334        1.558       43.479       27.591       19.090     1890.410      761.277      364.415        0.337        0.151       61.059       18.667        0.093      334.689        4.828      861.496
03/28/2014  03:06:00      -36.106      -39.584       11.446       40.805       31.348       14.929     1665.068      982.689      222.876        0.294        0.144       53.578       19.583        0.134      334.772        4.965      861.516
03/28/2014  03:07:00      -43.293      -31.699        6.088       35.355       22.305       14.993     1249.979      497.509      224.799        0.244        0.099       53.657       16.275        0.092      334.810        5.028      861.527
03/28/2014  03:08:00        5.597        9.406        9.250       18.152       15.830       14.755      329.506      250.587      217.716        0.050        0.040       10.946        9.469        0.748      334.777        4.973      861.530
03/28/2014  03:09:00      -10.317       30.309       29.152       23.215       24.299       27.930      538.942      590.461      780.079        0.189        0.095       32.017       17.757        0.308      334.816        5.039      861.519
03/28/2014  03:10:00       64.006      -32.390       13.943       46.294       55.584       34.162     2143.159     3089.546     1167.033        0.587        0.320       71.735       37.919        0.279      334.845        5.085      861.502
03/28/2014  03:11:00       11.512       63.610       85.511       34.438       51.852       39.041     1185.957     2688.581     1524.181        0.844        0.270       64.643       36.288        0.315      334.835        5.069      861.489
03/28/2014  03:12:00        5.451       22.178       63.546       22.085       40.332       23.428      487.744     1626.693      548.890        0.361        0.133       22.838       26.068        1.303      334.887        5.155      861.476
03/28/2014  03:13:00       30.303       37.639       58.470       45.000       38.699       26.626     2025.037     1497.612      708.942        0.499        0.212       48.321       27.082        0.314      334.894        5.169      861.454
03/28/2014  03:14:00        7.303       42.672       65.859       29.856       31.334       28.482      891.363      981.843      811.214        0.445        0.134       43.292       24.761        0.327      334.833        5.067      861.436
03/28/2014  03:15:00       27.164      -18.588       41.726       43.967       72.429       37.720     1933.110     5245.907     1422.829        0.571        0.430       32.915       48.853        2.203      334.925        5.220      861.426
03/28/2014  03:16:00       35.113      -31.893       20.579       33.983       40.344       26.057     1154.870     1627.603      678.949        0.307        0.173       47.435       22.983        0.235      334.924        5.217      861.415
03/28/2014  03:17:00       23.167      -23.375       31.237       29.735       35.517       21.070      884.198     1261.479      443.962        0.232        0.129       32.911       23.128        0.494      334.965        5.285      861.403
03/28/2014  03:18:00       20.113        5.970       40.353       28.124       25.627       20.817      790.976      656.731      433.367        0.197        0.094       20.980       19.439        0.859      334.917        5.206      861.396
03/28/2014  03:19:00       23.350       -5.638       21.167       23.189       32.448       23.892      537.717     1052.882      570.848        0.159        0.108       24.021       24.171        1.013      334.922        5.215      861.385
03/28/2014  03:20:00        4.247       22.213       33.944       16.646       23.792       16.932      277.100      566.053      286.676        0.140        0.056       22.616       12.049        0.284      334.893        5.166      861.376
03/28/2014  03:21:00      -10.483       17.558       36.368       10.478       22.655       21.600      109.793      513.242      466.574        0.142        0.054       20.449       18.569        0.825      334.933        5.232      861.383
03/28/2014  03:22:00      -14.949        1.057       15.224        9.640       12.025       14.914       92.936      144.589      222.414        0.046        0.023       14.986       10.247        0.468      334.910        5.195      861.401
03/28/2014  03:23:00      -20.159      -27.189       -3.270       13.467       21.987       12.602      181.352      483.435      158.812        0.099        0.041       33.847       13.904        0.169      334.972        5.299      861.400
03/28/2014  03:24:00      -13.339      -22.220       -2.182       12.692        7.899       10.385      161.085       62.396      107.857        0.050        0.017       25.916        6.724        0.067      334.881        5.145      861.410
03/28/2014  03:25:00       -5.862      -12.477       -4.217       12.422        7.675        7.622      154.294       58.904       58.087        0.024        0.014       13.785        4.943        0.129      334.816        5.037      861.409
03/28/2014  03:26:00        1.081       14.745        1.895        5.715       11.445       11.094       32.666      130.991      123.073        0.025        0.014       14.785        5.884        0.158      334.717        4.874      861.422
03/28/2014  03:27:00       -7.374       50.790       -1.627       20.068       17.366       12.653      402.720      301.588      160.086        0.175        0.043       51.322       11.529        0.050      334.564        4.620      861.446
03/28/2014  03:28:00        8.127       54.792       -3.465        5.827        8.284        5.032       33.954       68.618       25.322        0.160        0.006       55.392        3.914        0.005      334.644        4.752      861.459
03/28/2014  03:29:00        3.646       48.270       -3.305        6.491       10.675        5.763       42.134      113.948       33.207        0.127        0.009       48.407        5.725        0.014      334.663        4.784      861.468
03/28/2014  03:30:00       -5.119       48.369       -3.145        6.436        6.869        4.048       41.420       47.187       16.388        0.124        0.005       48.639        1.767        0.001      334.698        4.841      861.473
03/28/2014  03:31:00       -3.879       48.219       -4.218        7.197        7.791        3.732       51.802       60.700       13.927        0.124        0.006       48.375        2.170        0.002      334.716        4.872      861.474
03/28/2014  03:32:00      -16.953       46.596       -2.283       17.555       20.650       13.234      308.172      426.425      175.132        0.169        0.045       49.585        9.473        0.037      334.688        4.826      861.474
03/28/2014  03:33:00      -36.151       35.062       -5.803       19.142       21.020       17.194      366.435      441.852      295.638        0.184        0.055       50.361       13.221        0.069      334.596        4.672      861.481
03/28/2014  03:34:00      -48.742       26.992       -6.217       25.264       18.831       16.788      638.248      354.623      281.827        0.221        0.064       55.717       14.030        0.063      334.629        4.728      861.493
03/28/2014  03:35:00      -54.463       34.506      -11.513       23.309       22.346       13.498      543.326      499.327      182.185        0.276        0.061       64.474       13.826        0.046      334.622        4.715      861.503
03/28/2014  03:36:00      -50.658        4.553       -2.724       26.222       31.202       12.163      687.596      973.590      147.938        0.220        0.090       50.862        7.861        0.024      334.675        4.805      861.527
03/28/2014  03:37:00      -74.154       33.843      -12.403       34.806       56.051       24.914     1211.468     3141.761      620.699        0.589        0.249       81.512       20.471        0.063      334.585        4.654      861.551
03/28/2014  03:38:00      -73.249       81.770      -19.036       30.033       29.705       18.775      901.995      882.359      352.508        0.728        0.107      109.781       18.473        0.028      334.586        4.656      861.570
03/28/2014  03:39:00      -78.406       82.956      -17.089       24.185       23.085       16.694      584.914      532.940      278.700        0.736        0.070      114.146       13.358        0.014      334.603        4.684      861.573
03/28/2014  03:40:00      -69.362       31.196      -12.718       18.272       28.374       12.639      333.870      805.059      159.734        0.362        0.065       76.054       10.435        0.019      334.632        4.731      861.568
03/28/2014  03:41:00      -43.372       25.713       -3.843       19.266       26.713       16.786      371.195      713.579      281.780        0.196        0.068       50.421       16.261        0.104      334.592        4.666      861.552
03/28/2014  03:42:00      -92.111       91.906      -27.203       17.235       28.041       12.494      297.054      786.294      156.100        0.946        0.062      130.119        7.711        0.004      334.580        4.646      861.540
03/28/2014  03:43:00      -71.779       19.370      -10.193       23.243       30.558       13.205      540.241      933.776      174.366        0.364        0.082       74.346       10.712        0.021      334.604        4.686      861.538
03/28/2014  03:44:00      -93.258        8.628       -7.361       41.345       28.136       23.262     1709.415      791.655      541.131        0.593        0.152       93.656       24.008        0.066      334.616        4.704      861.534
03/28/2014  03:45:00      -78.211      -17.584       -8.518       38.458       27.652       21.949     1479.010      764.651      481.763        0.461        0.136       80.164       21.079        0.069      334.571        4.633      861.526
03/28/2014  03:46:00      -84.045      -10.697      -11.754       16.344       17.048       11.758      267.116      290.639      138.246        0.401        0.035       84.723        7.310        0.007      334.605        4.687      861.495
03/28/2014  03:47:00      -69.961      -19.860      -12.397       21.968       21.988       18.436      482.575      483.477      339.899        0.337        0.065       72.725       13.529        0.035      334.628        4.726      861.464
03/28/2014  03:48:00      -89.595      -19.568       -1.817       39.232       33.845       16.506     1539.148     1145.470      272.445        0.568        0.148       91.707       17.977        0.038      334.611        4.699      861.438
03/28/2014  03:49:00     -123.715      -10.364      -22.333       29.474       23.140       18.607      868.740      535.473      346.216        0.883        0.088      124.148       12.693        0.010      334.508        4.525      861.432
03/28/2014  03:50:00     -101.399       -0.155      -19.569       33.122       30.954       19.485     1097.035      958.166      379.655        0.655        0.122      101.399       15.685        0.024      334.564        4.618      861.433
03/28/2014  03:51:00      -90.820      -14.066      -10.844       33.212       26.525       14.697     1103.057      703.571      216.007        0.529        0.101       91.902       13.763        0.022      334.543        4.584      861.428
03/28/2014  03:52:00      -40.600      -19.514        0.148       30.352       22.860       17.167      921.244      522.598      294.718        0.188        0.087       45.046       14.179        0.099      334.627        4.725      861.428
03/28/2014  03:53:00      -30.318       28.479        5.961       24.714       19.713       15.438      610.795      388.614      238.346        0.150        0.062       41.597       11.692        0.079      334.638        4.742      861.437
03/28/2014  03:54:00      -63.341       -0.541       -6.145       14.870       28.564       15.757      221.121      815.893      248.268        0.267        0.064       63.344        9.799        0.024      334.671        4.797      861.444
03/28/2014  03:55:00      -67.552      -35.238      -10.451       32.780       29.528       14.524     1074.557      871.912      210.934        0.404        0.108       76.191       13.587        0.032      334.679        4.809      861.448
03/28/2014  03:56:00      -78.644      -15.558       -9.086       20.815       16.224       14.767      433.246      263.225      218.067        0.371        0.046       80.168        9.677        0.015      334.693        4.835      861.440
03/28/2014  03:57:00      -85.458      -21.872      -15.614       16.884       18.317       10.491      285.063      335.512      110.069        0.438        0.037       88.212       10.958        0.015      334.687        4.823      861.414
03/28/2014  03:58:00      -92.374       12.439      -13.578       23.853       14.130       10.823      568.985      199.646      117.147        0.488        0.044       93.208        6.451        0.005      334.645        4.756      861.393
03/28/2014  03:59:00     -115.449      -16.565       -9.256       29.941       19.476       11.314      896.454      379.317      128.004        0.755        0.070      116.631       11.915        0.010      334.666        4.790      861.382
03/28/2014  04:00:00     -128.149       -2.152      -14.747       33.452       31.549       21.887     1119.026      995.315      479.057        0.962        0.130      128.167       19.995        0.024      334.579        4.646      861.388
03/28/2014  04:01:00     -135.295       -0.366       -7.991       28.299       33.661       20.733      800.829     1133.083      429.858        1.037        0.118      135.296       11.010        0.007      334.619        4.709      861.392
03/28/2014  04:02:00      -98.925      -23.555       -9.657       27.324       24.819       16.848      746.595      615.965      283.868        0.604        0.082      101.690       15.357        0.023      334.579        4.644      861.405
03/28/2014  04:03:00     -110.986      -53.909       -7.761       29.853       38.446       24.599      891.192     1478.102      605.119        0.913        0.149      123.386       18.727        0.023      334.597        4.674      861.406
03/28/2014  04:04:00     -133.829      -24.865      -15.219       35.348       40.082       22.505     1249.501     1606.564      506.483        1.106        0.168      136.120       15.550        0.013      334.560        4.614      861.408
03/28/2014  04:05:00     -109.073      -22.754      -17.957       36.893       21.169       17.363     1361.093      448.141      301.465        0.742        0.106      111.421        8.104        0.005      334.545        4.588      861.403
03/28/2014  04:06:00      -81.628      -33.537       -8.702       33.709       43.706       16.071     1136.305     1910.216      258.263        0.558        0.165       88.249       12.969        0.022      334.602        4.683      861.408
03/28/2014  04:07:00     -126.405      -18.803      -16.125       29.905       17.712       17.821      894.305      313.717      317.576        0.906        0.076      127.796       10.313        0.007      334.527        4.559      861.420
03/28/2014  04:08:00      -94.129       13.217       -6.991       27.201       21.115       15.434      739.909      445.826      238.198        0.525        0.071       95.052       11.089        0.014      334.503        4.519      861.443
03/28/2014  04:09:00      -60.517        0.901       -7.349       16.430       18.508       11.521      269.934      342.542      132.734        0.223        0.037       60.523        5.225        0.007      334.563        4.616      861.447
03/28/2014  04:10:00      -81.869      -19.134      -14.181       16.076       11.246       10.061      258.429      126.470      101.227        0.388        0.024       84.075        2.667        0.001      334.614        4.703      861.445
03/28/2014  04:11:00      -59.784      -28.522       -6.227       18.576       17.960       12.586      345.053      322.570      158.407        0.263        0.041       66.239        5.260        0.006      334.644        4.754      861.439
03/28/2014  04:12:00      -79.237      -14.349       -7.776       26.163       27.523       15.982      684.515      757.536      255.424        0.412        0.085       80.526       16.305        0.041      334.700        4.846      861.430
03/28/2014  04:13:00     -106.471      -11.693       -5.736       30.259       24.020       18.502      915.625      576.939      342.335        0.667        0.092      107.112       18.306        0.029      334.710        4.863      861.418
03/28/2014  04:14:00     -123.722       -1.291      -14.700       27.774       18.284       17.987      771.375      334.289      323.535        0.848        0.071      123.729       15.169        0.015      334.725        4.887      861.415
03/28/2014  04:15:00     -133.246        2.172      -15.218       32.196       27.875       17.352     1036.585      777.016      301.108        1.005        0.106      133.264       12.354        0.009      334.648        4.758      861.414
03/28/2014  04:16:00     -136.271       17.961      -11.933       25.226       19.443       15.022      636.366      378.022      225.655        1.014        0.062      137.449       12.617        0.008      334.632        4.734      861.409
03/28/2014  04:17:00     -104.238       30.018      -10.815       20.264       13.607       10.663      410.647      185.148      113.705        0.630        0.035      108.475        5.487        0.003      334.657        4.775      861.399
03/28/2014  04:18:00      -86.099       31.799      -10.072       25.699       18.106       16.605      660.418      327.836      275.719        0.489        0.063       91.784       11.384        0.015      334.742        4.915      861.392
03/28/2014  04:19:00      -91.311       27.948       -9.249       26.322       21.527       20.029      692.872      463.394      401.152        0.538        0.078       95.493       15.137        0.025      334.886        5.156      861.391
03/28/2014  04:20:00     -115.427      -10.934      -10.655       30.538       25.701       12.684      932.578      660.529      160.889        0.765        0.088      115.943        5.896        0.003      334.733        4.900      861.422
03/28/2014  04:21:00     -130.305      -14.582      -14.007       43.022       39.072       22.878     1850.921     1526.640      523.409        1.064        0.195      131.118       20.521        0.024      334.606        4.688      861.465
03/28/2014  04:22:00     -129.965        2.101      -12.253       38.030       26.205       23.943     1446.305      686.716      573.249        0.988        0.135      129.982       20.479        0.025      334.543        4.583      861.498
03/28/2014  04:23:00     -117.444        4.871      -12.080       21.687       28.332       14.998      470.319      802.730      224.932        0.773        0.075      117.545        9.220        0.006      334.553        4.600      861.509
03/28/2014  04:24:00      -70.497       30.757       -9.862       17.313       16.795        9.488      299.749      282.072       90.024        0.334        0.034       76.914        5.213        0.005      334.720        4.879      861.510
03/28/2014  04:25:00       16.493       37.950       -2.045       33.891       18.081       12.143     1148.600      326.938      147.451        0.167        0.081       41.379       11.955        0.083      334.882        5.149      861.481
03/28/2014  04:26:00       77.135       59.325        4.196       20.212       16.221       17.224      408.529      263.133      296.680        0.523        0.048       97.310        9.869        0.010      334.785        4.987      861.439
03/28/2014  04:27:00       68.196       49.212       -1.297       28.511       26.946       23.449      812.896      726.070      549.855        0.458        0.104       84.098       16.993        0.041      334.781        4.981      861.397
03/28/2014  04:28:00       98.114       49.701        3.390       32.136       28.201       23.018     1032.705      795.291      529.806        0.723        0.118      109.985       14.382        0.017      334.768        4.958      861.359
03/28/2014  04:29:00      123.558       42.698        4.668       31.787       36.745       26.524     1010.405     1350.179      703.502        1.009        0.153      130.728       13.736        0.011      334.673        4.799      861.329
03/28/2014  04:30:00       73.007       33.418        3.451       40.719       32.842       23.259     1658.057     1078.592      540.978        0.487        0.164       80.292       16.022        0.040      334.654        4.768      861.292
03/28/2014  04:31:00       60.251       29.715        3.397       22.247       19.039       15.407      494.924      362.494      237.389        0.281        0.055       67.180       10.090        0.023      334.657        4.775      861.286
03/28/2014  04:32:00       27.109       16.166        5.567       21.056       11.081       15.963      443.362      122.783      254.832        0.092        0.041       31.563        3.930        0.016      334.755        4.937      861.309
03/28/2014  04:33:00       16.073       14.094       -5.226       12.407       17.557       18.204      153.928      308.263      331.393        0.064        0.040       21.377       11.920        0.311      334.763        4.950      861.330
03/28/2014  04:34:00       41.056       13.240       -4.959       11.202        9.732        9.210      125.476       94.709       84.823        0.110        0.015       43.138        5.020        0.014      334.721        4.878      861.338
03/28/2014  04:35:00       80.486       45.887        2.452       32.479       19.689       16.982     1054.887      387.666      288.391        0.516        0.087       92.648       10.463        0.013      334.761        4.947      861.323
03/28/2014  04:36:00      115.140       65.862       23.380       24.910       24.085       28.067      620.492      580.069      787.773        1.006        0.099      132.646       16.209        0.015      334.897        5.172      861.272
03/28/2014  04:37:00      136.543       62.393        9.693       28.163       24.018       23.670      793.138      576.881      560.260        1.228        0.097      150.123       13.875        0.009      334.930        5.228      861.217
03/28/2014  04:38:00      121.647       66.947       33.310       42.642       27.972       31.851     1818.326      782.424     1014.467        1.200        0.181      138.852       23.959        0.030      334.965        5.286      861.193
03/28/2014  04:39:00      120.693       63.651       12.800       26.649       19.006       23.197      710.165      361.235      538.080        1.020        0.080      136.449       17.508        0.016      334.946        5.255      861.186
03/28/2014  04:40:00       55.257       34.851        4.277       38.802       30.219       16.293     1505.613      913.197      265.462        0.348        0.134       65.329        8.079        0.015      334.871        5.128      861.184
03/28/2014  04:41:00       31.416       36.457        7.859       27.880       22.181       18.954      777.296      491.975      359.253        0.200        0.081       48.126       17.182        0.127      334.895        5.169      861.192
03/28/2014  04:42:00       -5.661       29.012       -9.702       11.922       12.138        8.546      142.133      147.320       73.040        0.067        0.018       29.559        6.237        0.045      334.907        5.188      861.207
03/28/2014  04:43:00       24.955       16.463       -6.463       15.279       14.304        6.041      233.462      204.613       36.491        0.070        0.024       29.896        4.682        0.025      334.939        5.243      861.222
03/28/2014  04:44:00       21.604       -1.436        5.468       13.892        4.930        8.582      192.994       24.305       73.657        0.039        0.015       21.652        6.150        0.081      334.960        5.275      861.235
03/28/2014  04:45:00       28.617       13.537        9.448       11.964       17.465       10.990      143.134      305.036      120.784        0.083        0.028       31.657        6.670        0.044      334.956        5.270      861.242
03/28/2014  04:46:00       33.393       30.696       11.076        8.670        6.832        8.833       75.177       46.670       78.023        0.119        0.010       45.358        4.955        0.012      334.928        5.225      861.248
03/28/2014  04:47:00       30.409       22.299        4.460       10.868        9.877        8.494      118.103       97.560       72.140        0.086        0.014       37.709        3.654        0.009      334.894        5.170      861.265
03/28/2014  04:48:00       14.828       22.915       -0.120       11.036       10.483        8.728      121.801      109.885       76.171        0.053        0.015       27.294        5.793        0.045      334.911        5.198      861.271
03/28/2014  04:49:00       -8.355       20.832       -2.472       13.371        6.389        3.561      178.777       40.824       12.679        0.037        0.012       22.445        4.222        0.035      334.894        5.168      861.284
03/28/2014  04:50:00      -69.279      -16.833       -2.829       17.084       22.884        6.956      291.879      523.669       48.386        0.298        0.043       71.295        3.532        0.002      334.841        5.078      861.299
03/28/2014  04:51:00      -75.652      -29.520       -6.255       14.572       14.891       10.008      212.354      221.754      100.154        0.358        0.027       81.208        9.674        0.014      334.877        5.140      861.309
03/28/2014  04:52:00      -86.060      -29.338       -5.878       33.732       18.283       14.480     1137.843      334.261      209.664        0.499        0.084       90.923       13.410        0.022      334.818        5.042      861.318
03/28/2014  04:53:00      -71.378      -17.912       -8.412       26.293       30.702       12.807      691.315      942.599      164.013        0.364        0.090       73.591        9.683        0.017      334.769        4.960      861.318
03/28/2014  04:54:00      -46.607       17.632      -11.500       11.554       16.475       12.266      133.490      271.414      150.467        0.159        0.028       49.831        6.960        0.020      334.771        4.964      861.309
03/28/2014  04:55:00      -10.785       24.752       -7.765       32.417       23.077        9.705     1050.886      532.534       94.182        0.123        0.084       27.000       13.486        0.249      334.898        5.175      861.296
03/28/2014  04:56:00       19.900       39.996       -5.612        9.902       12.240        8.644       98.058      149.808       74.721        0.117        0.016       44.673        7.482        0.028      334.904        5.186      861.272
03/28/2014  04:57:00       37.335       33.267       -4.849       18.154       13.483       10.529      329.575      181.804      110.854        0.157        0.031       50.006        9.468        0.036      334.890        5.163      861.257
03/28/2014  04:58:00       36.002       22.332       -3.719       19.040       12.352       14.395      362.538      152.582      207.230        0.127        0.036       42.366        9.069        0.046      334.898        5.175      861.245
03/28/2014  04:59:00       50.059       31.017        5.989       11.982       11.338       14.731      143.563      128.549      216.996        0.200        0.024       58.889        6.284        0.011      334.924        5.218      861.229
03/28/2014  05:00:00       37.751       25.276       10.156       12.002        8.418       11.639      144.054       70.860      135.462        0.126        0.018       45.432        5.908        0.017      334.934        5.233      861.216
03/28/2014  05:01:00       37.453       30.659        7.579       11.351        7.456       15.000      128.843       55.591      225.009        0.140        0.020       48.402        9.955        0.042      334.921        5.213      861.206
03/28/2014  05:02:00       40.375       25.504       -1.034       13.697        8.476        6.939      187.613       71.839       48.153        0.129        0.015       47.756        5.992        0.016      334.919        5.211      861.201
03/28/2014  05:03:00       29.279       24.303        5.162        7.862        8.897        8.003       61.808       79.165       64.054        0.084        0.010       38.051        6.196        0.027      334.915        5.202      861.206
03/28/2014  05:04:00       18.912       30.799        6.087       11.321        5.585        9.883      128.161       31.194       97.675        0.080        0.013       36.142        6.715        0.035      334.896        5.173      861.216
03/28/2014  05:05:00       12.805       28.945       -4.478        8.988        9.400        7.521       80.780       88.351       56.564        0.062        0.011       31.651        5.353        0.029      334.893        5.166      861.223
03/28/2014  05:06:00       12.291       32.873       -3.999        8.994        7.125        7.565       80.892       50.762       57.232        0.072        0.009       35.095        3.996        0.013      334.889        5.159      861.230
03/28/2014  05:07:00       13.648       52.522       -4.300       12.819       14.353        5.077      164.328      206.018       25.778        0.168        0.020       54.266        4.088        0.006      334.902        5.182      861.237
03/28/2014  05:08:00       20.878       40.305       -1.962       11.612       21.355       11.656      134.845      456.023      135.861        0.140        0.036       45.391       11.630        0.066      334.927        5.223      861.240
03/28/2014  05:09:00       32.335       22.628       -2.314       15.960       13.251       11.031      254.726      175.601      121.686        0.106        0.028       39.467        8.594        0.047      334.901        5.180      861.244
03/28/2014  05:10:00       39.885       27.637        2.789       16.475       13.638       12.903      271.410      185.996      166.479        0.149        0.031       48.525       11.130        0.053      334.918        5.209      861.242
03/28/2014  05:11:00       58.731       34.313        0.640       14.952       13.835       11.054      223.562      191.412      122.194        0.258        0.027       68.020        5.781        0.007      334.952        5.263      861.240
03/28/2014  05:12:00       55.916       46.344        4.214       16.182       13.699        8.390      261.847      187.658       70.394        0.291        0.026       72.625        8.465        0.014      334.951        5.261      861.253
03/28/2014  05:13:00       53.094       50.236        4.451       13.002       11.917        9.298      169.062      142.027       86.456        0.288        0.020       73.093        6.754        0.009      334.952        5.262      861.253
03/28/2014  05:14:00       37.347       36.151        1.556       15.127       14.279       14.184      228.835      203.877      201.188        0.167        0.032       51.977       10.101        0.038      334.957        5.272      861.261
03/28/2014  05:15:00       11.310       26.495       -2.298       13.266       13.452        9.697      175.987      180.965       94.030        0.064        0.023       28.808        6.882        0.057      334.979        5.307      861.286
03/28/2014  05:16:00        2.965       26.539       -6.652        9.092        7.223        4.248       82.660       52.169       18.044        0.046        0.008       26.704        5.446        0.042      335.008        5.355      861.299
03/28/2014  05:17:00      -11.467       11.590       -1.275        6.497        6.879        4.082       42.207       47.319       16.666        0.019        0.005       16.305        1.194        0.005      334.982        5.315      861.305
03/28/2014  05:18:00      -24.982      -15.357        1.718       20.022       23.366       14.897      400.900      545.985      221.921        0.102        0.058       29.325       10.595        0.131      334.868        5.124      861.308
03/28/2014  05:19:00      -36.628      -24.761        9.509       21.362       26.750       16.225      456.355      715.589      263.253        0.174        0.072       44.212       15.390        0.121      334.831        5.063      861.327
03/28/2014  05:20:00      -18.017        1.268        6.813       31.097       14.824       11.456      967.002      219.764      131.233        0.085        0.066       18.062       14.075        0.607      334.843        5.082      861.345
03/28/2014  05:21:00      -51.968        8.138       -5.571       12.361       14.526       10.296      152.796      210.995      105.998        0.163        0.023       52.601        7.316        0.019      334.772        4.967      861.354
03/28/2014  05:22:00      -49.173        3.223       -7.298       11.935       11.689        9.662      142.456      136.643       93.359        0.143        0.019       49.279        8.432        0.029      334.799        5.010      861.366
03/28/2014  05:23:00      -51.993       -5.066       -3.390       17.093        7.849       12.036      292.155       61.604      144.865        0.162        0.025       52.240       11.601        0.049      334.870        5.128      861.386
03/28/2014  05:24:00      -63.346        1.237       -7.337       10.990        7.667        8.567      120.784       58.776       73.399        0.216        0.013       63.358        2.423        0.001      334.853        5.098      861.401
03/28/2014  05:25:00      -48.468        1.459       -2.864       17.696       14.193        8.755      313.142      201.440       76.647        0.148        0.030       48.490        7.693        0.025      334.827        5.057      861.401
03/28/2014  05:26:00       10.864      -15.171       12.649       12.813       13.284       10.201      164.181      176.475      104.069        0.048        0.022       18.660        3.923        0.044      334.848        5.089      861.395
03/28/2014  05:27:00       -7.803      -13.232       -1.778       13.369       11.870        8.446      178.729      140.905       71.328        0.031        0.020       15.361        4.337        0.080      334.899        5.176      861.387
03/28/2014  05:28:00      -13.116      -17.033        4.654       15.244       16.941        9.282      232.373      287.000       86.150        0.054        0.030       21.498        9.697        0.203      335.050        5.426      861.390
03/28/2014  05:29:00      -28.925      -32.588        0.938       26.919       13.114       14.496      724.638      171.987      210.143        0.150        0.055       43.574       12.121        0.077      335.097        5.506      861.412
03/28/2014  05:30:00      -41.880      -29.930        1.811       17.547       10.759        8.683      307.896      115.749       75.399        0.158        0.025       51.476        9.857        0.037      334.984        5.317      861.450
03/28/2014  05:31:00      -37.176      -26.829        0.741       20.705       15.352        9.844      428.699      235.682       96.896        0.143        0.038       45.846        5.048        0.012      335.015        5.369      861.489
03/28/2014  05:32:00      -56.837      -28.557        3.036       24.012       17.982       14.288      576.586      323.334      204.149        0.258        0.055       63.608       12.062        0.036      334.936        5.237      861.515
03/28/2014  05:33:00      -35.430      -17.825        1.506       34.319       28.644       15.142     1177.794      820.497      229.282        0.190        0.111       39.661       21.076        0.282      334.954        5.269      861.538
03/28/2014  05:34:00      -67.602      -35.424        1.741       28.808       29.140       13.952      829.881      849.116      194.655        0.385        0.094       76.321       13.406        0.031      334.972        5.298      861.546
03/28/2014  05:35:00      -55.426      -13.100        4.356       34.964       31.048       19.315     1222.475      964.004      373.059        0.291        0.128       56.953       19.190        0.114      334.877        5.141      861.549
03/28/2014  05:36:00      -84.645       -8.397        0.607       25.871       18.916       18.140      669.331      357.801      329.060        0.430        0.068       85.060       12.041        0.020      334.847        5.090      861.548
03/28/2014  05:37:00      -37.670       14.499        3.522       16.251       15.354       11.233      264.090      235.734      126.177        0.113        0.031       40.364       10.573        0.069      334.832        5.064      861.542
03/28/2014  05:38:00      -14.808       10.486        5.664       16.037       12.254       11.357      257.182      150.167      128.990        0.045        0.027       18.145       11.826        0.425      334.836        5.071      861.552
03/28/2014  05:39:00      -12.535        6.617        0.276        8.839        6.196        5.647       78.130       38.393       31.892        0.017        0.007       14.174        3.878        0.075      334.842        5.081      861.562
03/28/2014  05:40:00      -37.391        4.529       -6.381        8.508        5.999        5.167       72.379       35.986       26.703        0.080        0.007       37.664        4.066        0.012      334.847        5.092      861.565
03/28/2014  05:41:00      -27.842        0.390       -5.228        9.816        6.078        6.705       96.356       36.947       44.951        0.049        0.009       27.844        3.934        0.020      334.878        5.144      861.571
03/28/2014  05:42:00      -40.692       -6.118       -1.144       13.078        8.664        9.636      171.044       75.068       92.846        0.102        0.017       41.149        7.430        0.033      334.931        5.229      861.565
03/28/2014  05:43:00      -38.897       -6.265       -0.233        8.705        6.769        5.457       75.777       45.825       29.780        0.085        0.008       39.399        3.080        0.006      334.942        5.246      861.561
03/28/2014  05:44:00      -12.339       -2.250        3.289       12.641        6.745        7.462      159.805       45.489       55.687        0.021        0.013       12.542        8.455        0.454      334.971        5.296      861.561
03/28/2014  05:45:00       -3.994        8.418        6.621        5.982        6.701        5.314       35.787       44.903       28.242        0.012        0.005        9.317        4.824        0.268      334.923        5.217      861.591
03/28/2014  05:46:00       -5.740       28.341       -4.121       11.712       11.541        9.441      137.170      133.206       89.128        0.061        0.018       28.916        6.838        0.056      334.863        5.117      861.629
03/28/2014  05:47:00        5.351       41.148       -6.146        9.046       10.893        6.003       81.823      118.650       36.034        0.100        0.012       41.494        3.894        0.009      334.830        5.061      861.667
03/28/2014  05:48:00        1.703       45.565       -8.325        3.230        8.384        4.962       10.431       70.296       24.617        0.113        0.005       45.597        3.232        0.005      334.840        5.080      861.689
03/28/2014  05:49:00       -8.044       16.271       -2.947        6.926       14.579        3.245       47.972      212.535       10.529        0.030        0.014       18.151        4.011        0.049      334.875        5.139      861.710
03/28/2014  05:50:00      -26.926       -2.638       -1.919        6.943        5.736        5.879       48.206       32.904       34.563        0.043        0.006       27.055        3.536        0.017      334.916        5.204      861.729
03/28/2014  05:51:00      -70.368       10.920       -0.159       18.845        9.253       11.053      355.132       85.617      122.178        0.282        0.028       71.211       10.004        0.020      334.908        5.192      861.746
03/28/2014  05:52:00      -59.356        0.503       -2.780       40.111       18.935       13.149     1608.867      358.553      172.889        0.284        0.107       59.358       16.270        0.075      334.859        5.110      861.756
03/28/2014  05:53:00      -85.297       12.439       -8.793       43.076       32.235       27.641     1855.513     1039.103      764.006        0.558        0.183       86.200       25.443        0.087      334.761        4.946      861.760
03/28/2014  05:54:00      -15.994       14.217      -16.187       37.051       15.547       10.060     1372.749      241.708      101.206        0.122        0.086       21.400       13.149        0.378      334.844        5.084      861.759
03/28/2014  05:55:00      -13.465       -4.932        6.288       20.219        9.625        8.891      408.825       92.640       79.044        0.041        0.029       14.339        6.308        0.194      334.915        5.202      861.762
03/28/2014  05:56:00      -93.474      -55.040       -5.558       47.237       35.130       17.818     2231.349     1234.124      317.492        0.779        0.189      108.475        4.873        0.002      334.890        5.161      861.779
03/28/2014  05:57:00      -67.151      -74.601        6.369       59.783       41.845       27.171     3573.993     1750.973      738.258        0.809        0.303      100.372       27.480        0.075      334.824        5.051      861.800
03/28/2014  05:58:00     -119.379      -23.205       -5.540       51.579       36.694       26.844     2660.387     1346.446      720.615        0.977        0.236      121.613       26.771        0.048      334.808        5.024      861.821
03/28/2014  05:59:00      -49.344       39.592      -22.942       78.096       62.174       30.564     6098.983     3865.616      934.163        0.771        0.545       63.264       31.723        0.251      335.257        5.770      861.842
03/28/2014  06:00:00      104.599       69.264       19.523       52.815       37.998       20.766     2789.422     1443.866      431.231        1.039        0.233      125.453        8.444        0.005      335.318        5.872      861.836
03/28/2014  06:01:00      -84.509       25.538      -15.712       60.549       39.620       34.155     3666.239     1569.783     1166.532        0.722        0.320       88.283       35.018        0.157      335.213        5.699      861.881
03/28/2014  06:02:00     -104.698      -47.276        2.845       82.458       43.978       37.623     6799.278     1934.091     1415.525        1.168        0.507      114.877       41.127        0.128      334.775        4.970      861.904
03/28/2014  06:03:00      -47.228       -8.389        0.558       42.053       22.701       17.244     1768.468      515.337      297.373        0.244        0.129       47.967        9.172        0.037      334.865        5.119      861.901
03/28/2014  06:04:00       36.804       57.028       11.012       24.896       38.134       27.031      619.822     1454.193      730.692        0.377        0.140       67.873       27.288        0.162      335.142        5.578      861.867
03/28/2014  06:05:00       11.508       55.478       29.027       26.842       18.950       20.028      720.500      359.115      401.124        0.277        0.074       56.659       16.364        0.083      335.001        5.344      861.857
03/28/2014  06:06:00      -16.573       17.745        2.082       20.173       11.012        9.376      406.965      121.268       87.904        0.060        0.031       24.281        5.505        0.051      334.976        5.302      861.875
03/28/2014  06:07:00      -55.490       -9.674       -4.744       19.453       16.984       12.782      378.433      288.460      163.374        0.201        0.042       56.327       10.577        0.035      334.985        5.318      861.890
03/28/2014  06:08:00      -41.436      -17.327        2.920       25.913       24.181       14.092      671.460      584.730      198.594        0.174        0.073       44.913       11.899        0.070      334.911        5.196      861.892
03/28/2014  06:09:00      -28.130      -24.575       -4.572       22.667       15.899       12.324      513.785      252.789      151.880        0.117        0.046       37.352       10.584        0.080      334.933        5.233      861.889
03/28/2014  06:10:00       -4.026       13.989       10.965       13.283       11.895       10.213      176.436      141.497      104.311        0.038        0.021       14.556        7.334        0.254      334.919        5.209      861.871
03/28/2014  06:11:00      -46.527        7.831       -0.178       35.105       19.491       10.658     1232.349      379.895      113.583        0.198        0.086       47.181       15.988        0.115      334.930        5.227      861.871
03/28/2014  06:12:00     -103.525      -32.299       -1.733       43.847       21.464       16.439     1922.531      460.690      270.250        0.721        0.133      108.446       21.670        0.040      334.921        5.212      861.877
03/28/2014  06:13:00      -61.916      -47.270        5.646       44.149       27.851       21.161     1949.118      775.686      447.799        0.464        0.159       77.898       23.307        0.090      334.926        5.220      861.876
03/28/2014  06:14:00      -80.803      -20.508       -5.846       18.923       27.060       14.410      358.083      732.218      207.643        0.414        0.065       83.365        8.775        0.011      334.897        5.175      861.874
03/28/2014  06:15:00      -82.488      -10.917       -4.550       20.888       24.078       18.270      436.297      579.737      333.792        0.415        0.067       83.208       11.177        0.018      334.945        5.253      861.875
03/28/2014  06:16:00     -111.688       31.857      -11.684       43.590       34.373       20.615     1900.046     1181.504      424.968        0.857        0.175      116.143       18.614        0.026      334.963        5.282      861.868
03/28/2014  06:17:00     -141.650       79.480      -19.950       35.683       31.444       22.447     1273.306      988.712      503.885        1.477        0.138      162.425       19.582        0.015      334.839        5.076      861.863
03/28/2014  06:18:00      -84.034      106.592      -20.413       38.265       30.006       21.296     1464.181      900.343      453.505        1.083        0.141      135.734       17.260        0.016      334.909        5.193      861.849
03/28/2014  06:19:00       14.283       49.141       -4.152       34.383       33.775       15.575     1182.206     1140.767      242.577        0.260        0.128       51.174       22.236        0.189      335.117        5.539      861.832
03/28/2014  06:20:00      100.793       75.901       29.582       22.180       28.396       35.866      491.934      806.356     1286.336        0.969        0.129      126.176       24.415        0.037      335.021        5.380      861.811
03/28/2014  06:21:00       34.771       81.736       84.693       48.196       34.442       32.426     2322.846     1186.247     1051.458        0.981        0.228       88.825       26.404        0.088      335.225        5.716      861.808
03/28/2014  06:22:00       55.044       72.307       44.939       49.425       28.061       31.366     2442.802      787.409      983.808        0.725        0.211       90.875       14.237        0.025      335.114        5.535      861.832
03/28/2014  06:23:00       13.368       35.985       49.436       23.079       21.154       12.755      532.627      447.502      162.692        0.253        0.057       38.387       10.911        0.081      335.056        5.438      861.867
03/28/2014  06:24:00        3.254       18.684       27.785        9.078       14.067        9.934       82.407      197.872       98.685        0.076        0.019       18.966        6.641        0.123      335.129        5.557      861.910
03/28/2014  06:25:00        8.831        7.323       18.548       12.571       15.021       11.885      158.021      225.624      141.242        0.050        0.026       11.473        4.671        0.166      335.114        5.533      861.941
03/28/2014  06:26:00      -10.586       -9.149       15.703        9.970       21.278       12.346       99.400      452.744      152.434        0.057        0.035       13.992       10.518        0.565      335.235        5.733      861.963
03/28/2014  06:27:00      -11.707       -0.081       21.855        9.852       15.609        8.318       97.062      243.647       69.187        0.051        0.020       11.707        5.099        0.190      335.204        5.683      861.982
03/28/2014  06:28:00      -30.701      -35.254        3.232       24.902       23.600       14.791      620.124      556.965      218.760        0.180        0.070       46.749       11.353        0.059      335.087        5.492      861.995
03/28/2014  06:29:00       -0.942       12.178       25.721        9.072       32.101       14.721       82.298     1030.473      216.705        0.107        0.066       12.214       18.006        2.173      335.102        5.514      862.001
03/28/2014  06:30:00       34.415       48.338       51.682       46.455       37.112       24.047     2158.062     1377.318      578.249        0.515        0.206       59.337       23.644        0.159      335.108        5.523      861.987
03/28/2014  06:31:00       51.926      108.239       98.978       43.605       48.950       30.100     1901.418     2396.056      906.029        1.471        0.260      120.050       27.475        0.052      335.049        5.426      861.959
03/28/2014  06:32:00      124.938      117.944       90.251       90.519       62.681       57.692     8193.632     3928.901     3328.360        2.656        0.773      171.815       61.326        0.127      335.033        5.397      861.920
03/28/2014  06:33:00      113.313      141.023      104.970       61.679       58.648       60.412     3804.324     3439.554     3649.631        2.732        0.545      180.907       42.909        0.056      335.024        5.382      861.882
03/28/2014  06:34:00      101.257      121.039      115.578       72.497       69.729       50.453     5255.875     4862.146     2545.512        2.546        0.633      157.808       36.868        0.055      334.976        5.302      861.861
03/28/2014  06:35:00      106.796       57.068       82.440       59.984       55.859       49.326     3598.055     3120.178     2433.022        1.530        0.458      121.087       31.290        0.067      334.951        5.263      861.850
03/28/2014  06:36:00       78.470       75.721       62.937       62.094       49.679       46.680     3855.626     2467.989     2179.068        1.218        0.425      109.047       40.304        0.137      334.919        5.209      861.849
03/28/2014  06:37:00       78.975       24.073       62.757       71.788       68.646       44.224     5153.521     4712.236     1955.761        1.129        0.591       82.562       50.112        0.368      334.958        5.274      861.858
03/28/2014  06:38:00       51.901      -36.670       29.714       56.943       63.885       44.834     3242.451     4081.304     2010.044        0.713        0.467       63.549       38.543        0.368      335.059        5.442      861.853
03/28/2014  06:39:00        1.725       44.550       70.029       26.027       48.862       28.804      677.379     2387.487      829.694        0.539        0.195       44.583       27.607        0.383      335.077        5.473      861.851
03/28/2014  06:40:00       54.759       -1.055       62.398       59.784       72.294       43.022     3574.159     5226.400     1850.890        0.877        0.533       54.770       47.000        0.736      335.029        5.392      861.856
03/28/2014  06:41:00       69.921      -38.119       35.144       67.074       57.746       42.372     4498.980     3334.625     1795.401        0.860        0.481       79.637       43.978        0.305      335.022        5.380      861.873
03/28/2014  06:42:00       58.478      -48.127       43.344       57.843       86.251       47.448     3345.861     7439.305     2251.294        1.032        0.652       75.736       58.243        0.591      335.017        5.372      861.892
03/28/2014  06:43:00       37.724        0.416       47.243       37.962       59.624       44.223     1441.089     3554.975     1955.703        0.530        0.348       37.726       44.163        1.370      334.953        5.266      861.897
03/28/2014  06:44:00       35.279       60.233       91.565       47.648       40.915       26.482     2270.335     1674.004      701.293        0.895        0.232       69.804       19.749        0.080      334.954        5.268      861.887
03/28/2014  06:45:00       87.789      101.952       68.194       78.017       37.023       40.467     6086.614     1370.668     1637.560        1.592        0.455      134.541       42.192        0.098      334.934        5.234      861.889
03/28/2014  06:46:00      107.522       76.990       55.666       72.060       52.909       56.232     5192.634     2799.404     3162.026        1.587        0.558      132.244       48.947        0.137      334.896        5.171      861.899
03/28/2014  06:47:00      141.350       68.370        9.796       43.667       41.650       37.812     1906.771     1734.707     1429.753        1.491        0.254      157.016       24.377        0.024      334.829        5.060      861.888
03/28/2014  06:48:00      165.459       97.768       34.564       65.013       61.304       46.527     4226.650     3758.151     2164.772        2.414        0.507      192.186       33.125        0.030      334.813        5.031      861.887
03/28/2014  06:49:00      106.302       63.909       25.518       63.409       52.858       31.312     4020.706     2793.960      980.450        1.191        0.390      124.034       11.558        0.009      334.801        5.012      861.915
03/28/2014  06:50:00       31.619       34.454       26.552       54.058       25.000       25.072     2922.258      624.995      628.605        0.353        0.209       46.763       19.100        0.167      334.805        5.020      861.966
03/28/2014  06:51:00      -26.531      -15.533        0.399       28.224       18.553       20.589      796.616      344.202      423.914        0.125        0.078       30.743       12.085        0.155      334.935        5.235      862.017
03/28/2014  06:52:00       39.587       22.135       43.893       44.340       41.098       37.133     1966.061     1689.065     1378.843        0.451        0.252       45.356       24.198        0.285      334.951        5.261      862.043
03/28/2014  06:53:00       -9.723       -2.733       33.756       42.862       27.130       34.890     1837.127      736.017     1217.323        0.252        0.190       10.100       36.078       12.760      335.052        5.433      862.047
03/28/2014  06:54:00      -23.504      -28.557        2.011       30.184       20.866       14.471      911.077      435.379      209.401        0.146        0.078       36.986       13.133        0.126      335.128        5.555      862.058
03/28/2014  06:55:00        0.539        3.704       35.990       24.283       49.999       34.785      589.686     2499.897     1210.011        0.280        0.215        3.743       37.232       98.923      335.147        5.587      862.074
03/28/2014  06:56:00      107.246       74.383       42.301       39.386       27.816       32.686     1551.286      773.718     1068.369        1.111        0.170      130.516       27.346        0.044      334.972        5.299      862.073
03/28/2014  06:57:00      116.082       66.127       31.475       49.907       37.401       27.237     2490.746     1398.863      741.851        1.173        0.232      133.596       21.051        0.025      335.005        5.351      862.068
03/28/2014  06:58:00      115.535       86.666       57.743       61.062       39.346       41.015     3728.522     1548.120     1682.229        1.558        0.348      144.428       33.278        0.053      334.988        5.323      862.069
03/28/2014  06:59:00       82.161       84.367       78.280       57.883       49.651       42.583     3350.492     2465.216     1813.339        1.381        0.381      117.763       35.667        0.092      334.937        5.239      862.071
03/28/2014  07:00:00       89.467       61.805       68.317       61.982       50.193       47.789     3841.825     2519.327     2283.807        1.257        0.432      108.739       41.058        0.143      334.877        5.139      862.093
03/28/2014  07:01:00       52.495       63.032       53.378       42.273       38.139       45.191     1786.986     1454.607     2042.240        0.743        0.264       82.029       25.433        0.096      334.893        5.167      862.125
03/28/2014  07:02:00       60.046       69.433       62.622       44.021       43.596       29.664     1937.845     1900.598      879.982        0.853        0.236       91.796       24.068        0.069      334.913        5.200      862.161
03/28/2014  07:03:00       90.457       44.451       47.425       41.788       35.921       33.127     1746.263     1290.307     1097.390        0.827        0.207      100.789       24.542        0.059      334.902        5.181      862.185
03/28/2014  07:04:00      113.678       75.996       33.846       46.928       31.801       40.018     2202.277     1011.278     1601.421        1.233        0.241      136.741       33.369        0.060      334.926        5.220      862.186
03/28/2014  07:05:00      112.528       35.611       21.194       41.685       42.433       34.105     1737.637     1800.525     1163.174        0.954        0.235      118.029       26.057        0.049      334.867        5.123      862.192
03/28/2014  07:06:00       80.953       75.779       64.375       38.836       46.531       43.945     1508.201     2165.109     1931.194        1.102        0.280      110.886       32.725        0.087      334.881        5.146      862.199
03/28/2014  07:07:00       77.906       61.542       59.286       42.678       37.419       29.138     1821.411     1400.190      848.999        0.872        0.204       99.281       19.188        0.037      334.848        5.092      862.228
03/28/2014  07:08:00       70.896       39.409       55.092       31.469       41.549       29.398      990.312     1726.285      864.213        0.660        0.179       81.113       23.991        0.087      334.834        5.067      862.234
03/28/2014  07:09:00       73.970       45.663       62.641       42.463       33.863       28.532     1803.106     1146.677      814.084        0.762        0.188       86.929       27.580        0.101      334.850        5.093      862.229
03/28/2014  07:10:00       96.101       72.649       69.860       50.329       45.712       47.467     2533.006     2089.604     2253.103        1.313        0.344      120.471       35.248        0.086      334.843        5.081      862.208
03/28/2014  07:11:00       29.275       51.798       85.515       44.525       45.216       27.122     1982.469     2044.458      735.624        0.781        0.238       59.499       27.687        0.217      334.876        5.138      862.177
03/28/2014  07:12:00       15.455      -20.925       41.635       33.770       74.737       28.370     1140.442     5585.646      804.863        0.497        0.377       26.013       36.411        1.959      334.974        5.300      862.166
03/28/2014  07:13:00       86.337      -79.260        4.426       56.644       63.091       31.721     3208.558     3980.421     1006.237        1.097        0.410      117.201       35.852        0.094      334.948        5.258      862.173
03/28/2014  07:14:00       83.262      -57.825       23.286       47.309       50.174       37.261     2238.182     2517.453     1388.414        0.848        0.307      101.372       37.757        0.139      334.927        5.223      862.190
03/28/2014  07:15:00       96.771      -78.489       13.814       60.288       51.805       44.762     3634.608     2683.728     2003.612        1.202        0.416      124.600       45.059        0.131      334.939        5.243      862.230
03/28/2014  07:16:00       54.697      -23.476       38.674       41.925       42.499       36.415     1757.744     1806.144     1326.075        0.496        0.244       59.522       36.420        0.374      334.922        5.214      862.274
03/28/2014  07:17:00       39.338       -7.015       36.738       49.458       42.205       25.874     2446.063     1781.286      669.470        0.392        0.245       39.958       28.967        0.526      334.970        5.294      862.286
03/28/2014  07:18:00       26.894       50.527       49.578       33.549       31.279       25.739     1125.559      978.386      662.481        0.425        0.138       57.239       18.064        0.100      334.965        5.286      862.289
03/28/2014  07:19:00       82.089       44.835       21.753       40.160       23.594       31.940     1612.854      556.685     1020.133        0.621        0.159       93.535       23.878        0.065      334.857        5.106      862.290
03/28/2014  07:20:00       40.366       47.503       53.130       37.260       27.829       24.346     1388.292      774.459      592.713        0.473        0.138       62.337        9.763        0.025      334.910        5.194      862.296
03/28/2014  07:21:00       80.692      -88.084        0.003       49.028       54.492       32.089     2403.772     2969.375     1029.705        1.034        0.320      119.457       34.391        0.083      334.982        5.313      862.315
03/28/2014  07:22:00       76.276      -60.987        8.290       55.858       65.360       45.786     3120.077     4271.893     2096.334        0.955        0.474       97.660       55.070        0.318      334.988        5.324      862.334
03/28/2014  07:23:00      -28.799      -28.064       38.708       32.875       35.476       24.945     1080.770     1258.535      622.273        0.304        0.148       40.212       24.414        0.369      335.091        5.494      862.349
03/28/2014  07:24:00      -31.109      -17.302        5.523       25.292       25.006       18.588      639.707      625.285      345.525        0.145        0.081       35.596        9.954        0.078      335.042        5.416      862.369
03/28/2014  07:25:00        0.352        5.868       10.772       26.499       25.834       13.703      702.220      667.379      187.782        0.085        0.078        5.879       12.134        4.260      335.041        5.414      862.398
03/28/2014  07:26:00      -25.107      -30.839        9.437       43.542       32.158       23.408     1895.927     1034.107      547.921        0.257        0.174       39.767       21.717        0.298      335.022        5.380      862.427
03/28/2014  07:27:00      -36.165       -7.726        6.566       35.613       32.181       20.505     1268.282     1035.636      420.460        0.207        0.136       36.982       20.216        0.299      334.981        5.313      862.462
03/28/2014  07:28:00      -31.226      -16.949        3.575       36.980       36.377       20.126     1367.493     1323.280      405.058        0.218        0.155       35.530       19.649        0.306      335.001        5.345      862.504
03/28/2014  07:29:00      -26.620      -49.448       -3.280       37.600       28.029       22.856     1413.731      785.632      522.406        0.294        0.136       56.158       18.073        0.104      335.103        5.516      862.538
03/28/2014  07:30:00       -2.626      -57.601       -1.654       54.197       43.451       24.194     2937.352     1887.986      585.363        0.437        0.271       57.661       23.929        0.172      335.133        5.566      862.555
03/28/2014  07:31:00       -0.814       -2.782        8.714       15.046       18.639       13.323      226.381      347.422      177.511        0.042        0.038        2.899        5.437        3.518      335.115        5.536      862.560
03/28/2014  07:32:00      -35.811      -15.630        3.838       34.547       26.920       21.720     1193.470      724.687      471.738        0.197        0.119       39.073       14.853        0.144      335.073        5.465      862.562
03/28/2014  07:33:00      -57.270      -33.418        5.044       46.784       27.249       20.085     2188.775      742.495      403.415        0.388        0.167       66.307       22.214        0.112      334.914        5.200      862.565
03/28/2014  07:34:00      -96.992      -89.227       -6.099       31.380       33.994       18.373      984.689     1155.592      337.557        0.994        0.124      131.791       15.924        0.015      334.868        5.126      862.560
03/28/2014  07:35:00      -96.818      -73.471        0.089       44.247       44.803       22.434     1957.804     2007.342      503.302        0.962        0.223      121.539       20.781        0.029      334.901        5.179      862.576
03/28/2014  07:36:00      -65.488      -87.654       10.024       53.648       44.276       38.649     2878.136     1960.353     1493.778        0.920        0.317      109.417       27.196        0.062      334.932        5.231      862.586
03/28/2014  07:37:00     -101.555     -143.199      -12.511       43.789       45.823       26.867     1917.495     2099.716      721.843        1.786        0.237      175.554       22.903        0.017      334.769        4.959      862.598
03/28/2014  07:38:00      -65.255      -77.061       -6.204       28.727       49.635       15.076      825.259     2463.677      227.282        0.688        0.176      100.978       13.660        0.018      334.718        4.876      862.593
03/28/2014  07:39:00       28.845       11.546       18.631       28.511       21.559       21.102      812.893      464.798      445.305        0.152        0.086       31.070       16.583        0.285      334.854        5.102      862.564
03/28/2014  07:40:00       55.149      -38.704       14.243       49.477       53.457       41.260     2447.968     2857.640     1702.379        0.587        0.350       67.375       40.807        0.367      334.889        5.160      862.567
03/28/2014  07:41:00       54.764      -95.376      -13.448       33.671       29.367       22.167     1133.721      862.445      491.383        0.738        0.124      109.980       19.740        0.032      334.971        5.295      862.583
03/28/2014  07:42:00      -11.496      -25.868        5.869       49.720       34.775       25.777     2472.092     1209.332      664.446        0.259        0.217       28.308        9.525        0.113      335.044        5.416      862.594
03/28/2014  07:43:00      -44.375      -43.583        8.715       37.253       32.827       17.941     1387.761     1077.611      321.872        0.337        0.139       62.199       14.166        0.052      335.047        5.421      862.605
03/28/2014  07:44:00     -102.126      -77.676       -2.890       55.428       44.629       24.100     3072.214     1991.712      580.819        1.106        0.282      128.310       14.199        0.012      335.003        5.348      862.627
03/28/2014  07:45:00      -79.855      -78.276       -7.060       38.418       34.790       17.952     1475.954     1210.329      322.286        0.778        0.150      111.821       17.872        0.026      334.927        5.222      862.628
03/28/2014  07:46:00       13.342       -2.428       25.549       41.073       38.764       25.428     1686.977     1502.609      646.576        0.234        0.192       13.561       22.318        2.708      335.062        5.447      862.607
03/28/2014  07:47:00      107.127      -70.032        0.744       42.717       44.745       34.255     1824.733     2002.095     1173.414        1.069        0.250      127.987       33.960        0.070      335.020        5.379      862.599
03/28/2014  07:48:00       12.331       11.560       50.627       44.930       59.348       33.823     2018.737     3522.128     1143.971        0.477        0.334       16.902       41.628        6.066      335.136        5.569      862.605
03/28/2014  07:49:00       23.511       19.838       57.685       38.462       47.604       38.612     1479.290     2266.138     1490.854        0.475        0.262       30.763       34.800        1.280      335.069        5.460      862.608
03/28/2014  07:50:00       46.247      -19.366       39.850       48.203       50.769       44.297     2323.543     2577.517     1962.211        0.548        0.343       50.138       43.166        0.741      335.078        5.473      862.617
03/28/2014  07:51:00       71.292      -96.391      -16.952       34.776       33.057       15.944     1209.386     1092.797      254.207        0.861        0.128      119.890       10.709        0.008      335.043        5.414      862.639
03/28/2014  07:52:00       -8.165      -19.092      -12.811       26.171       20.052       13.946      684.901      402.074      194.504        0.094        0.064       20.765        9.039        0.189      335.204        5.683      862.656
03/28/2014  07:53:00      -15.052       -0.591       -0.466       24.559       19.436       15.423      603.163      377.739      237.880        0.072        0.061       15.064        5.549        0.136      335.249        5.757      862.672
03/28/2014  07:54:00       24.728       54.806        4.876       17.240       36.183       14.551      297.208     1309.204      211.729        0.273        0.091       60.126       14.616        0.059      335.125        5.551      862.675
03/28/2014  07:55:00       12.124       27.931       47.726       18.657       22.341       12.579      348.082      499.134      158.231        0.211        0.050       30.448        6.479        0.045      335.183        5.647      862.684
03/28/2014  07:56:00       -4.799       23.899       18.538        9.125       17.497       14.231       83.269      306.154      202.517        0.076        0.030       24.377       11.775        0.233      335.180        5.641      862.699
03/28/2014  07:57:00       11.998       29.598        8.084       23.000       18.252       10.772      529.002      333.153      116.035        0.103        0.049       31.938        9.269        0.084      335.116        5.537      862.699
03/28/2014  07:58:00       50.903       40.049        5.903       34.297       24.078       15.166     1176.282      579.741      230.006        0.311        0.099       64.770       11.072        0.029      335.090        5.495      862.701
03/28/2014  07:59:00       97.944       60.906       -1.502       19.627       16.794       17.111      385.207      282.045      292.793        0.713        0.048      115.337        8.567        0.006      335.034        5.400      862.704
03/28/2014  08:00:00       91.985       57.371       20.561       27.097       21.629       18.854      734.232      467.813      355.473        0.687        0.078      108.410       17.306        0.025      335.041        5.414      862.708
03/28/2014  08:01:00       32.824       42.856       54.099       24.556       19.186       15.901      602.975      368.113      252.840        0.353        0.061       53.982        5.714        0.011      335.111        5.529      862.717
03/28/2014  08:02:00       -0.479       31.818       59.823       20.594       37.369       17.662      424.103     1396.456      311.944        0.336        0.107       31.821       11.941        0.141      335.181        5.644      862.731
03/28/2014  08:03:00        9.423       55.049       69.176       38.660       38.353       17.610     1494.621     1470.975      310.108        0.559        0.164       55.849       17.632        0.100      335.262        5.777      862.755
03/28/2014  08:04:00       32.565       60.364       65.194       27.798       20.997       11.440      772.731      440.863      130.879        0.515        0.067       68.588        9.474        0.019      335.076        5.470      862.772
03/28/2014  08:05:00       32.045       55.610       71.237       31.298       25.144       13.246      979.595      632.216      175.444        0.549        0.089       64.182       14.178        0.049      335.157        5.604      862.783
03/28/2014  08:06:00       55.728       83.574       78.776       60.314       35.131       26.401     3637.802     1234.174      696.996        1.093        0.278      100.450       25.922        0.067      335.187        5.653      862.790
03/28/2014  08:07:00      108.453       75.092       66.595       48.139       40.237       44.291     2317.398     1619.050     1961.648        1.387        0.295      131.912       34.542        0.069      335.135        5.568      862.796
03/28/2014  08:08:00      121.391       95.023       47.877       39.011       37.840       40.477     1521.881     1431.865     1638.420        1.532        0.230      154.159       30.300        0.039      335.088        5.492      862.811
03/28/2014  08:09:00       97.118       64.910       43.069       61.166       57.880       55.336     3741.314     3350.101     3062.116        1.283        0.508      116.813       45.226        0.150      335.101        5.514      862.822
03/28/2014  08:10:00       50.675       30.117       39.537       36.130       32.823       26.741     1305.374     1077.322      715.103        0.407        0.155       58.949       18.814        0.102      335.149        5.592      862.849
03/28/2014  08:11:00       71.039       54.872       25.716       34.206       23.220       24.898     1170.020      539.172      619.923        0.552        0.116       89.764       22.206        0.061      335.097        5.507      862.891
03/28/2014  08:12:00       60.470       25.422       17.412       30.453       28.829       23.144      927.415      831.108      535.663        0.345        0.115       65.597       22.529        0.118      335.114        5.533      862.936
03/28/2014  08:13:00       67.442       43.060        1.204       22.325       19.579       16.973      498.388      383.344      288.079        0.379        0.058       80.016        7.801        0.010      335.071        5.463      862.965
03/28/2014  08:14:00       43.229       51.832        0.701       22.585       23.411       16.847      510.077      548.061      283.814        0.295        0.067       67.493       14.481        0.046      335.148        5.591      862.980
03/28/2014  08:15:00       51.501       49.640        4.813       28.306       15.326       22.001      801.206      234.876      484.022        0.333        0.076       71.530       13.588        0.036      335.185        5.650      862.987
03/28/2014  08:16:00       30.073       46.713        8.933       22.283       18.125       15.523      496.531      328.505      240.956        0.212        0.053       55.556       15.604        0.079      335.183        5.647      862.979
03/28/2014  08:17:00        7.184       83.756       -9.784       10.383       23.649       11.324      107.817      559.252      128.234        0.398        0.040       84.064       10.730        0.016      335.141        5.579      862.956
03/28/2014  08:18:00       31.299       95.519      -10.666       19.478       26.963       22.938      379.409      726.993      526.151        0.592        0.082      100.516       19.946        0.039      335.195        5.667      862.947
03/28/2014  08:19:00       63.720       62.878       -2.295       31.145       26.897       15.380      970.038      723.431      236.541        0.497        0.097       89.521       13.509        0.023      335.185        5.650      862.947
03/28/2014  08:20:00       80.727       58.642        3.389       17.311       21.028       18.524      299.688      442.176      343.145        0.553        0.054       99.779       10.007        0.010      335.226        5.716      862.952
03/28/2014  08:21:00       76.134       60.297       31.202       35.715       24.699       16.041     1275.578      610.044      257.329        0.627        0.107       97.119       18.059        0.035      335.248        5.755      862.956
03/28/2014  08:22:00       64.169       47.517       34.068       39.652       27.844       32.879     1572.253      775.275     1081.022        0.548        0.171       79.847       26.579        0.111      335.325        5.883      862.948
03/28/2014  08:23:00       49.089       48.656       37.264       21.106       22.766       25.203      445.477      518.277      635.212        0.388        0.080       69.117        9.355        0.018      335.311        5.859      862.956
03/28/2014  08:24:00       39.416       48.843       43.489       31.150       21.196       24.155      970.303      449.290      583.450        0.392        0.100       62.764       18.306        0.085      335.316        5.867      862.948
03/28/2014  08:25:00       -2.770       20.467       44.768       16.698       24.733       16.899      278.814      611.698      285.580        0.180        0.059       20.654       14.986        0.526      335.433        6.063      862.921
03/28/2014  08:26:00       21.586       36.549       55.951       32.320       27.508       20.066     1044.586      756.693      402.644        0.357        0.110       42.448       17.281        0.166      335.330        5.891      862.907
03/28/2014  08:27:00       19.670      -34.969       22.277       29.322       49.617       26.051      859.808     2461.839      678.673        0.305        0.200       40.122       31.855        0.630      335.390        5.993      862.888
03/28/2014  08:28:00       36.455       24.607       41.630       24.826       37.174       19.516      616.328     1381.918      380.876        0.302        0.119       43.982       11.712        0.071      335.367        5.954      862.863
03/28/2014  08:29:00       70.692       69.828       58.113       23.083       22.445       24.902      532.842      503.766      620.131        0.745        0.083       99.365       10.498        0.011      335.265        5.783      862.837
03/28/2014  08:30:00       37.981       43.753       33.223       39.303       23.819       22.998     1544.716      567.329      528.926        0.355        0.132       57.939       21.555        0.138      335.304        5.846      862.838
03/28/2014  08:31:00       26.046       30.661       35.045       26.501       18.588       19.456      702.314      345.525      378.549        0.214        0.071       40.230       13.725        0.116      335.355        5.932      862.861
03/28/2014  08:32:00       40.964       19.033       27.975       31.534       29.142       24.107      994.364      849.277      581.163        0.262        0.121       45.169       13.150        0.085      335.354        5.931      862.886
03/28/2014  08:33:00       42.292       23.598       28.428       25.241       19.773       14.944      637.111      390.952      223.326        0.220        0.063       48.430        8.718        0.032      335.322        5.877      862.908
03/28/2014  08:34:00       45.102       37.585       10.804       28.108       23.230       17.860      790.084      539.644      318.991        0.261        0.082       58.710       11.110        0.036      335.318        5.871      862.926
03/28/2014  08:35:00       78.672       62.121       18.004       25.333       17.627       21.832      641.786      310.715      476.642        0.590        0.071      100.241       19.503        0.038      335.320        5.875      862.939
03/28/2014  08:36:00       85.969       63.530       13.725       22.580       18.874       18.658      509.875      356.222      348.135        0.641        0.061      106.896       13.862        0.017      335.303        5.845      862.947
03/28/2014  08:37:00      107.624       57.398       -0.200       30.419       20.762       24.456      925.341      431.081      598.087        0.842        0.098      121.973       18.782        0.024      335.360        5.941      862.942
03/28/2014  08:38:00       62.907       47.964        6.823       39.398       24.113       25.286     1552.194      581.454      639.361        0.454        0.139       79.106       19.786        0.063      335.407        6.020      862.923
03/28/2014  08:39:00       64.899       67.487        6.093       38.157       36.990       26.490     1455.993     1368.280      701.723        0.616        0.176       93.628       21.305        0.052      335.350        5.924      862.908
03/28/2014  08:40:00       77.943       62.757       11.210       29.037       34.450       29.641      843.168     1186.782      878.577        0.652        0.145      100.068       19.483        0.038      335.332        5.895      862.891
03/28/2014  08:41:00       61.360       51.675       -3.295       38.922       32.905       32.256     1514.918     1082.719     1040.428        0.504        0.182       80.221       17.534        0.048      335.356        5.934      862.886
03/28/2014  08:42:00       29.901       50.444        4.332       38.374       32.627       27.279     1472.564     1064.520      744.155        0.337        0.164       58.640       20.996        0.128      335.319        5.871      862.915
03/28/2014  08:43:00       52.009       55.231       -0.020       36.522       39.128       31.345     1333.880     1531.020      982.528        0.480        0.192       75.864       22.746        0.090      335.320        5.875      862.938
03/28/2014  08:44:00       48.574       28.673       -1.953       34.496       27.110       21.362     1189.952      734.931      456.349        0.278        0.119       56.406       11.033        0.038      335.315        5.866      862.964
03/28/2014  08:45:00       12.709       30.248       -5.842       15.795       18.393       10.341      249.472      338.319      106.944        0.090        0.035       32.809       10.787        0.108      335.385        5.981      862.977
03/28/2014  08:46:00       13.115       46.337        0.516       21.589       27.813       21.748      466.067      773.585      472.965        0.202        0.086       48.157       16.374        0.116      335.436        6.069      862.979
03/28/2014  08:47:00      -13.205      127.079      -17.245       16.829       28.848       14.806      283.228      832.205      219.205        0.898        0.067      127.763        9.174        0.005      335.424        6.047      862.995
03/28/2014  08:48:00       -5.624      131.420      -14.887       14.341       27.663       16.555      205.662      765.234      274.061        0.938        0.062      131.540       15.766        0.014      335.371        5.959      863.002
03/28/2014  08:49:00       -4.845      150.651      -12.669       17.601       28.106       24.640      309.797      789.938      607.122        1.229        0.085      150.729       14.045        0.009      335.309        5.856      863.026
03/28/2014  08:50:00       30.003       96.681      -10.954       22.507       48.422       28.491      506.562     2344.729      811.766        0.701        0.183      101.229       30.573        0.091      335.333        5.895      863.027
03/28/2014  08:51:00       30.405       58.577       -7.737       22.237       27.711       21.421      494.474      767.908      458.850        0.307        0.086       65.999       14.859        0.051      335.397        6.002      863.038
03/28/2014  08:52:00       78.040       51.005        5.860       29.930       26.245       24.411      895.828      688.816      595.919        0.545        0.109       93.230       14.423        0.024      335.365        5.950      863.051
03/28/2014  08:53:00       48.360       64.327       -1.269       27.978       36.374       22.228      782.781     1323.068      494.066        0.454        0.130       80.477       20.162        0.063      335.359        5.939      863.053
03/28/2014  08:54:00       39.374       43.031       -0.923       25.826       19.015       19.246      666.994      361.561      370.416        0.240        0.070       58.326       13.878        0.057      335.354        5.931      863.052
03/28/2014  08:55:00       33.143       44.341        7.040       34.142       23.447       21.795     1165.653      549.741      475.016        0.265        0.110       55.358       17.274        0.097      335.448        6.088      863.044
03/28/2014  08:56:00       54.526       42.046       10.373       34.944       22.592       25.957     1221.115      510.383      673.762        0.363        0.120       68.855       22.532        0.107      335.492        6.162      863.051
03/28/2014  08:57:00       62.846       71.890       54.250       34.835       29.798       33.547     1213.497      887.927     1125.401        0.764        0.161       95.487       19.763        0.043      335.470        6.125      863.036
03/28/2014  08:58:00       15.480       47.408       65.043       29.865       46.346       31.990      891.911     2147.910     1023.332        0.539        0.203       49.872       29.218        0.343      335.546        6.253      863.017
03/28/2014  08:59:00       75.578       67.858       65.589       60.676       42.386       35.574     3681.566     1796.542     1265.492        1.068        0.337      101.571       37.339        0.135      335.450        6.092      862.984
03/28/2014  09:00:00       94.779       92.707       49.587       42.335       32.369       53.723     1792.270     1047.748     2886.137        1.288        0.286      132.581       29.603        0.050      335.414        6.030      862.964
03/28/2014  09:01:00       83.985       37.984       35.246       45.678       30.280       29.343     2086.461      916.897      861.016        0.680        0.193       92.176       25.246        0.075      335.492        6.163      862.961
03/28/2014  09:02:00       72.905       11.729       43.405       55.552       37.552       35.002     3085.987     1410.116     1225.125        0.653        0.286       73.843       35.876        0.236      335.491        6.161      862.975
03/28/2014  09:03:00       33.089        6.412       24.024       34.318       31.729       27.458     1177.759     1006.710      753.958        0.233        0.147       33.704       15.733        0.218      335.634        6.398      862.991
03/28/2014  09:04:00       53.752       12.897       41.084       34.179       66.441       35.406     1168.225     4414.466     1253.582        0.579        0.342       55.278       39.827        0.519      335.610        6.359      863.018
03/28/2014  09:05:00       59.391       55.308       45.798       45.024       36.349       24.112     2027.200     1321.222      581.392        0.631        0.196       81.156       22.519        0.077      335.601        6.344      863.055
03/28/2014  09:06:00       16.486       -6.715       41.843       29.307       46.675       33.328      858.887     2178.594     1110.743        0.311        0.207       17.801       29.396        2.727      335.816        6.703      863.083
03/28/2014  09:07:00       34.699       57.979       74.007       35.540       45.395       27.066     1263.122     2060.724      732.575        0.705        0.203       67.569       29.286        0.188      335.620        6.375      863.114
03/28/2014  09:08:00       85.529       67.442       38.730       50.195       51.306       50.152     2519.539     2632.343     2515.260        1.051        0.383      108.921       39.901        0.134      335.488        6.156      863.152
03/28/2014  09:09:00       64.715       62.538       69.229       65.257       50.901       41.886     4258.472     2590.889     1754.449        1.075        0.430       89.995       43.868        0.238      335.471        6.127      863.154
03/28/2014  09:10:00       38.474       65.408       72.527       43.598       36.607       37.613     1900.825     1340.056     1414.762        0.784        0.233       75.884       29.971        0.156      335.564        6.282      863.162
03/28/2014  09:11:00       75.760      102.504       84.145       46.307       36.131       42.438     2144.372     1305.458     1800.986        1.429        0.263      127.463       28.336        0.049      335.633        6.397      863.151
03/28/2014  09:12:00      132.907       70.294       27.537       55.246       38.716       47.011     3052.160     1498.912     2210.005        1.506        0.338      150.351       34.014        0.051      335.519        6.206      863.144
03/28/2014  09:13:00       72.841       32.580       25.093       34.009       27.930       29.767     1156.623      780.083      886.057        0.491        0.141       79.796       19.880        0.062      335.534        6.232      863.161
03/28/2014  09:14:00       45.581       34.327       23.358       23.087       24.178       20.922      533.019      584.561      437.739        0.268        0.078       57.061       10.994        0.037      335.532        6.227      863.164
03/28/2014  09:15:00       24.666       13.457        6.145       25.613       23.639       13.612      656.021      558.805      185.287        0.111        0.070       28.098        9.171        0.107      335.545        6.250      863.161
03/28/2014  09:16:00       34.032       18.412       12.484       38.518       22.261       16.962     1483.610      495.535      287.707        0.196        0.113       38.693       12.519        0.105      335.704        6.516      863.153
03/28/2014  09:17:00       64.933       39.177       35.294       53.056       30.435       39.962     2814.957      926.304     1596.955        0.617        0.267       75.837       36.821        0.236      335.664        6.450      863.137
03/28/2014  09:18:00       83.159       34.011       -1.045       39.534       40.992       28.641     1562.899     1680.376      820.326        0.607        0.203       89.845       14.803        0.027      335.581        6.310      863.117
03/28/2014  09:19:00       71.553        3.169       26.827       44.526       37.709       32.995     1982.528     1421.985     1088.679        0.517        0.225       71.623       29.218        0.166      335.736        6.569      863.111
03/28/2014  09:20:00       89.352       60.648       35.231       44.432       39.438       34.162     1974.163     1555.366     1167.017        0.880        0.235      107.991       25.226        0.055      335.644        6.416      863.116
03/28/2014  09:21:00       38.694       20.655       28.169       40.397       32.108       21.780     1631.933     1030.909      474.348        0.293        0.157       43.862       21.764        0.246      335.710        6.526      863.121
03/28/2014  09:22:00       33.852       29.380       24.354       31.243       18.984       20.892      976.110      360.385      436.461        0.219        0.089       44.823       18.139        0.164      335.779        6.642      863.141
03/28/2014  09:23:00       80.241       55.631       44.595       46.850       35.879       32.901     2194.889     1287.331     1082.489        0.804        0.228       97.639       25.090        0.066      335.798        6.671      863.148
03/28/2014  09:24:00       38.027       53.190       51.256       40.588       34.379       24.309     1647.413     1181.936      590.929        0.516        0.171       65.386       16.729        0.065      335.887        6.821      863.144
03/28/2014  09:25:00       32.974       76.261       67.287       56.529       39.843       38.538     3195.570     1587.469     1485.149        0.885        0.313       83.084       35.899        0.187      335.860        6.774      863.154
03/28/2014  09:26:00      115.422       43.803       35.550       55.729       44.485       41.734     3105.751     1978.883     1741.709        1.166        0.341      123.455       28.606        0.054      335.787        6.653      863.149
03/28/2014  09:27:00       88.626       65.082       50.186       66.088       49.271       45.599     4367.562     2427.590     2079.294        1.174        0.444      109.955       40.621        0.136      335.819        6.706      863.158
03/28/2014  09:28:00       87.772       92.184       71.552       39.948       32.683       32.977     1595.834     1068.149     1087.502        1.254        0.188      127.286       26.037        0.042      335.779        6.639      863.171
03/28/2014  09:29:00       68.704       76.808       56.253       63.039       32.148       34.948     3973.957     1033.482     1221.376        1.001        0.311      103.052       40.225        0.152      335.800        6.675      863.168
03/28/2014  09:30:00       35.337       39.028       51.551       53.387       38.589       27.073     2850.149     1489.080      732.952        0.525        0.254       52.649       23.007        0.191      335.961        6.943      863.173
03/28/2014  09:31:00       24.917       15.639       26.566       38.285       37.521       29.691     1465.762     1407.807      881.558        0.266        0.188       29.418       20.207        0.472      336.037        7.068      863.185
03/28/2014  09:32:00       39.691       -6.531       28.308       45.098       30.415       30.728     2033.814      925.069      944.233        0.316        0.195       40.225       29.235        0.528      336.003        7.013      863.185
03/28/2014  09:33:00       51.976       32.278        6.765       36.517       41.633       34.940     1333.476     1733.336     1220.792        0.404        0.214       61.183       26.499        0.188      335.898        6.839      863.205
03/28/2014  09:34:00       44.809       41.941       16.670       30.578       30.813       27.487      935.032      949.435      755.538        0.334        0.132       61.375       15.582        0.064      335.906        6.851      863.219
03/28/2014  09:35:00       40.456      -31.866        7.233       32.516       35.719       21.714     1057.301     1275.866      471.498        0.275        0.140       51.499       21.181        0.169      336.006        7.018      863.217
03/28/2014  09:36:00       76.847      -83.179       -0.241       36.735       45.867       27.247     1349.464     2103.796      742.398        0.851        0.210      113.245       28.339        0.063      336.016        7.035      863.214
03/28/2014  09:37:00       58.783      -57.510       -3.104       43.533       46.604       33.131     1895.146     2171.958     1097.684        0.597        0.258       82.236       24.634        0.090      336.000        7.008      863.219
03/28/2014  09:38:00       32.451      -50.378       -1.914       38.337       49.915       33.304     1469.702     2491.466     1109.128        0.433        0.254       59.925       21.683        0.131      336.080        7.141      863.216
03/28/2014  09:39:00       18.687      -48.017       22.696       28.343       42.698       26.252      803.345     1823.122      689.186        0.324        0.166       51.526       19.861        0.149      336.214        7.365      863.242
03/28/2014  09:40:00       37.451       18.084       33.841       31.414       24.732       27.837      986.835      611.693      774.893        0.262        0.119       41.589       14.577        0.123      336.073        7.130      863.257
03/28/2014  09:41:00       38.192       -2.491       20.541       39.260       30.207       26.381     1541.347      912.450      695.958        0.252        0.157       38.274       18.642        0.237      335.994        6.998      863.278
03/28/2014  09:42:00       36.227        1.158       31.302       24.005       29.649       25.867      576.222      879.074      669.116        0.221        0.106       36.245       15.248        0.177      336.052        7.094      863.306
03/28/2014  09:43:00       27.633       35.998       10.955       13.692       15.806       13.278      187.468      249.815      176.312        0.140        0.031       45.380        8.543        0.035      335.909        6.854      863.310
03/28/2014  09:44:00        4.121       46.794       -7.928       14.588       30.266       15.308      212.817      916.024      234.331        0.182        0.068       46.975       12.130        0.067      335.963        6.944      863.309
03/28/2014  09:45:00        6.929      102.006      -10.838       21.222       27.917       15.835      450.378      779.337      250.734        0.603        0.074      102.241       11.744        0.013      336.026        7.051      863.311
03/28/2014  09:46:00       -0.078       63.014       -9.591       21.082       49.760       15.246      444.462     2476.061      232.444        0.361        0.158       63.014       18.576        0.087      336.049        7.090      863.307
03/28/2014  09:47:00      -11.695      126.473      -18.774       20.493       23.389       10.695      419.975      547.050      114.383        0.878        0.054      127.013        6.208        0.002      335.884        6.813      863.324
03/28/2014  09:48:00       -3.655       93.207      -12.562       23.191       30.671       16.078      537.841      940.716      258.486        0.530        0.087       93.279        9.745        0.011      335.991        6.993      863.346
03/28/2014  09:49:00      -18.941      103.104       -9.903       16.972       28.768       19.840      288.063      827.607      393.613        0.630        0.075      104.829       15.515        0.022      335.984        6.981      863.365
03/28/2014  09:50:00      -12.901       56.661      -16.382       21.820       52.245       10.934      476.112     2729.553      119.559        0.348        0.166       58.111        7.314        0.016      336.011        7.026      863.393
03/28/2014  09:51:00      -10.117       14.906       -0.869       14.273       18.474       12.486      203.717      341.278      155.890        0.051        0.035       18.015       11.935        0.439      336.154        7.265      863.389
03/28/2014  09:52:00      -13.330        3.826       -5.187       10.191       16.120       11.071      103.850      259.848      122.572        0.035        0.024       13.869        6.644        0.230      336.197        7.337      863.396
03/28/2014  09:53:00       -2.875       58.033        1.122       18.589       51.687       18.488      345.536     2671.568      341.805        0.337        0.168       58.104       25.735        0.196      336.263        7.446      863.396
03/28/2014  09:54:00       -4.792       98.904       -9.764       10.534       16.044       11.201      110.971      257.407      125.466        0.520        0.025       99.020        7.321        0.005      336.032        7.061      863.403
03/28/2014  09:55:00      -11.516       54.933        6.853       18.138       38.943       20.005      328.986     1516.561      400.201        0.272        0.112       56.127       19.078        0.116      336.263        7.448      863.392
03/28/2014  09:56:00       -3.831       54.334       -6.070        9.205       23.561       13.246       84.733      555.111      175.445        0.191        0.041       54.469       13.517        0.062      336.119        7.207      863.392
03/28/2014  09:57:00        2.513        5.173       21.305       12.162       11.213       13.968      147.906      125.730      195.109        0.048        0.023        5.751        6.784        1.391      336.514        7.868      863.387
03/28/2014  09:58:00       10.536       49.933      -14.066       20.194       29.589       21.907      407.798      875.488      479.938        0.228        0.088       51.032       16.281        0.102      336.160        7.275      863.390
03/28/2014  09:59:00        9.299       51.682      -13.827       20.051       28.651       18.455      402.054      820.891      340.573        0.226        0.078       52.512       13.094        0.062      336.143        7.246      863.384
03/28/2014  10:00:00       10.994      -38.897       -5.547        8.461       23.317       10.421       71.584      543.688      108.604        0.119        0.036       40.421        4.436        0.012      336.140        7.241      863.389
03/28/2014  10:01:00       23.496       15.147        5.419       19.476       25.282       20.187      379.329      639.204      407.526        0.112        0.071       27.955        9.675        0.120      336.359        7.607      863.377
03/28/2014  10:02:00       47.330       36.771        8.331       12.932       14.760       13.021      167.242      217.872      169.541        0.211        0.028       59.935        8.808        0.022      336.144        7.248      863.367
03/28/2014  10:03:00        9.735       13.381       11.577       22.533       15.242       12.155      507.733      232.317      147.746        0.065        0.044       16.547       11.301        0.466      336.342        7.579      863.377
03/28/2014  10:04:00      -34.540       67.449       -6.147       19.928       28.641       19.719      397.115      820.319      388.850        0.369        0.080       75.779       16.152        0.045      336.362        7.613      863.392
03/28/2014  10:05:00      -32.262       55.733       -7.524       22.786       23.993       11.343      519.209      575.673      128.670        0.271        0.061       64.397        9.931        0.024      336.308        7.521      863.395
03/28/2014  10:06:00       -1.909       14.296       10.286       40.631       11.009       22.874     1650.900      121.192      523.235        0.130        0.115       14.423       28.112        3.799      336.427        7.723      863.408
03/28/2014  10:07:00        6.635       36.710        7.624       22.173       21.848       18.783      491.641      477.356      352.812        0.139        0.066       37.304       12.235        0.108      336.414        7.700      863.403
03/28/2014  10:08:00       21.370       38.759        5.217       33.725       24.744       20.196     1137.404      612.259      407.867        0.207        0.108       44.260       19.479        0.194      336.373        7.632      863.391
03/28/2014  10:09:00       62.947       38.775       -4.023       36.424       24.204       19.236     1326.721      585.839      370.008        0.388        0.114       73.931       18.139        0.060      336.446        7.752      863.386
03/28/2014  10:10:00      131.712       75.316       -7.379       43.158       28.523       21.084     1862.584      813.558      444.530        1.310        0.156      151.726        6.674        0.002      336.413        7.697      863.368
03/28/2014  10:11:00      151.040       86.380        0.687       51.784       39.877       36.407     2681.591     1590.200     1325.457        1.794        0.280      173.996       20.242        0.014      336.320        7.542      863.352
03/28/2014  10:12:00       92.975       69.892       12.314       46.238       49.036       38.553     2137.924     2404.547     1486.365        0.985        0.301      116.315       28.710        0.061      336.429        7.724      863.343
03/28/2014  10:13:00      148.079       73.447       16.812       46.708       35.456       29.278     2181.606     1257.127      857.193        1.595        0.215      165.293       27.482        0.028      336.395        7.667      863.358
03/28/2014  10:14:00      120.153       71.705        9.705       36.566       38.895       29.804     1337.100     1512.809      888.290        1.170        0.187      139.923       18.139        0.017      336.415        7.701      863.371
03/28/2014  10:15:00      118.657       70.172        9.604       42.662       41.309       28.970     1820.035     1706.438      839.272        1.173        0.218      137.853       14.683        0.011      336.385        7.653      863.388
03/28/2014  10:16:00       93.151       77.694       11.832       45.313       31.826       32.055     2053.298     1012.878     1027.513        0.947        0.205      121.299       18.348        0.023      336.345        7.585      863.390
03/28/2014  10:17:00       98.896      101.158       -1.454       54.803       40.292       43.073     3003.345     1623.414     1855.298        1.325        0.324      141.469       32.307        0.052      336.352        7.597      863.392
03/28/2014  10:18:00       87.732       75.008       15.773       44.472       42.480       41.751     1977.792     1804.538     1743.156        0.955        0.276      115.425       30.299        0.069      336.492        7.830      863.391
03/28/2014  10:19:00       74.660       36.258        6.689       51.645       34.274       31.421     2667.183     1174.708      987.286        0.588        0.241       82.999       20.596        0.062      336.563        7.950      863.392
03/28/2014  10:20:00       92.390       72.180        9.883       35.788       36.643       28.925     1280.811     1342.679      836.669        0.865        0.173      117.242        2.768        0.001      336.643        8.084      863.405
03/28/2014  10:21:00       25.422      -14.883       42.930       40.293       49.565       34.465     1623.501     2456.737     1187.828        0.399        0.263       29.458       25.684        0.760      336.819        8.376      863.407
03/28/2014  10:22:00      102.610       53.194       23.181       57.658       50.481       41.501     3324.399     2548.363     1722.310        1.074        0.380      115.579       34.399        0.089      336.537        7.904      863.417
03/28/2014  10:23:00       82.587       56.440       18.275       50.594       33.542       31.083     2559.786     1125.056      966.133        0.749        0.233      100.030       19.479        0.038      336.544        7.917      863.415
03/28/2014  10:24:00       53.116       49.969        2.477       56.139       27.808       24.528     3151.605      773.261      601.631        0.492        0.226       72.926       17.925        0.060      336.583        7.983      863.409
03/28/2014  10:25:00        9.672       63.635        9.428       32.452       54.247       30.815     1053.116     2942.699      949.551        0.459        0.247       64.365       32.397        0.253      336.668        8.124      863.419
03/28/2014  10:26:00       35.506       55.572       -2.857       34.185       41.368       26.027     1168.639     1711.342      677.409        0.396        0.178       65.946       23.945        0.132      336.746        8.256      863.430
03/28/2014  10:27:00       18.655       78.573        2.242       33.857       50.713       31.326     1146.298     2571.835      981.342        0.561        0.235       80.757       33.793        0.175      336.700        8.178      863.453
03/28/2014  10:28:00       19.593       80.561       -7.824       21.610       40.627       16.218      466.974     1650.590      263.032        0.466        0.119       82.909       18.013        0.047      336.635        8.069      863.458
03/28/2014  10:29:00        3.579       84.893        1.302       22.298       45.635       24.999      497.215     2082.573      624.951        0.521        0.160       84.969       30.317        0.127      336.827        8.390      863.466
03/28/2014  10:30:00      -35.541      157.254      -18.074       28.608       61.090       21.482      818.411     3731.931      461.484        1.566        0.251      161.220       26.908        0.028      336.691        8.165      863.459
03/28/2014  10:31:00      -27.038      114.604      -23.189       32.002       28.714       19.918     1024.096      824.487      396.718        0.832        0.112      117.750       17.807        0.023      336.656        8.105      863.447
03/28/2014  10:32:00       -0.091       92.865      -11.471       16.525       52.038       21.026      273.075     2707.917      442.110        0.609        0.171       92.865       23.481        0.064      336.803        8.349      863.426
03/28/2014  10:33:00       21.780       62.415        3.769       22.722       32.852       22.537      516.292     1079.227      507.910        0.324        0.105       66.106       20.510        0.096      336.931        8.563      863.411
03/28/2014  10:34:00       35.097       33.403       -7.541       39.325       19.279       15.403     1546.441      371.697      237.247        0.228        0.108       48.451       10.351        0.046      336.821        8.380      863.396
03/28/2014  10:35:00      -13.823       24.955       -5.099       23.863       15.878       11.086      569.465      252.121      122.900        0.089        0.047       28.528        6.531        0.052      336.988        8.659      863.396
03/28/2014  10:36:00        0.822       23.214       13.910       25.037       23.279       28.616      626.836      541.925      818.854        0.136        0.099       23.228       22.653        0.951      337.179        8.978      863.377
03/28/2014  10:37:00      143.105       70.685       27.380       69.052       42.225       49.876     4768.110     1782.917     2487.610        1.763        0.452      159.610       40.543        0.065      336.959        8.608      863.346
03/28/2014  10:38:00       61.459       12.760       -7.187       51.206       47.245       18.000     2622.078     2232.083      324.012        0.458        0.259       62.770        7.132        0.013      336.967        8.623      863.365
03/28/2014  10:39:00      -23.612       71.761      -16.139       33.832       55.818       24.618     1144.597     3115.617      606.067        0.542        0.243       75.546       26.295        0.121      337.044        8.752      863.386
03/28/2014  10:40:00        0.746       23.806        4.213       19.992       27.359       17.038      399.683      748.522      290.309        0.101        0.072       23.818       18.682        0.615      337.120        8.879      863.397
03/28/2014  10:41:00      -38.036       20.707      -10.914       20.531       28.510       12.928      421.511      812.840      167.124        0.170        0.070       43.307       12.056        0.077      337.042        8.747      863.386
03/28/2014  10:42:00       14.013       13.802        7.749       34.053       17.327       18.710     1159.616      300.208      350.062        0.113        0.090       19.669       13.422        0.466      337.183        8.985      863.380
03/28/2014  10:43:00       69.705       26.760       23.255       38.549       28.225       26.757     1485.999      796.671      715.935        0.456        0.150       74.665       24.636        0.109      337.094        8.836      863.357
03/28/2014  10:44:00       61.113      -62.514       11.898       31.023       78.687       34.321      962.455     6191.618     1177.933        0.806        0.417       87.423       44.555        0.260      337.076        8.805      863.329
03/28/2014  10:45:00       40.000      -55.487        4.295       23.569       43.116       21.173      555.515     1859.010      448.297        0.378        0.143       68.402       12.994        0.036      337.216        9.041      863.306
03/28/2014  10:46:00       50.245       68.640       65.836       77.993       52.007       55.753     6082.846     2704.699     3108.425        1.173        0.595       85.065       47.253        0.309      337.353        9.269      863.294
03/28/2014  10:47:00      147.657       61.094       22.565       66.083       54.410       42.235     4366.968     2960.440     1783.813        1.758        0.456      159.797       30.255        0.036      337.057        8.771      863.294
03/28/2014  10:48:00      135.966       45.705       23.134       41.355       35.292       33.636     1710.266     1245.537     1131.364        1.260        0.204      143.442       20.800        0.021      337.117        8.874      863.290
03/28/2014  10:49:00       61.051       68.315       45.151       65.734       35.422       51.377     4320.979     1254.735     2639.550        0.932        0.411       91.620       47.675        0.271      337.293        9.170      863.278
03/28/2014  10:50:00      115.778       97.688       48.909       86.476       48.743       57.966     7478.160     2375.874     3360.014        1.927        0.661      151.484       61.870        0.167      337.310        9.197      863.263
03/28/2014  10:51:00      212.885      113.930       13.022       41.010       44.918       37.262     1681.830     2017.664     1388.477        3.178        0.254      241.454       22.428        0.009      337.124        8.880      863.258
03/28/2014  10:52:00      191.695      104.424       20.263       68.882       45.688       40.306     4744.670     2087.381     1624.568        2.826        0.423      218.292       30.063        0.019      337.240        9.076      863.232
03/28/2014  10:53:00      135.632       67.869       30.391       55.215       44.260       45.891     3048.669     1958.912     2106.002        1.552        0.356      151.665       31.938        0.044      337.310        9.197      863.227
03/28/2014  10:54:00      128.457       58.152       20.333       52.052       49.643       36.166     2709.377     2464.421     1307.994        1.339        0.324      141.006       28.937        0.042      337.313        9.202      863.227
03/28/2014  10:55:00       42.267       45.940       16.502       44.771       38.369       28.327     2004.414     1472.189      802.391        0.422        0.214       62.426       20.885        0.112      337.434        9.407      863.247
03/28/2014  10:56:00       34.150       21.230       15.312       47.687       40.405       27.840     2274.094     1632.597      775.068        0.327        0.234       40.211       12.317        0.094      337.546        9.593      863.264
03/28/2014  10:57:00       97.595       88.334       55.341       70.047       50.569       58.840     4906.595     2557.223     3462.182        1.566        0.546      131.634       59.030        0.201      337.250        9.096      863.304
03/28/2014  10:58:00       63.301       31.146        8.565       55.885       34.821       21.903     3123.168     1212.522      479.759        0.493        0.241       70.548       14.160        0.040      337.234        9.071      863.311
03/28/2014  10:59:00       90.874       36.873        6.716       60.345       41.259       37.078     3641.479     1702.317     1374.781        0.819        0.336       98.070       26.512        0.073      337.381        9.318      863.308
03/28/2014  11:00:00       62.049       49.766       39.921       40.809       51.907       46.913     1665.335     2694.298     2200.842        0.724        0.328       79.541       38.408        0.233      337.403        9.352      863.297
03/28/2014  11:01:00       71.121       47.816       11.093       20.950       13.168       20.409      438.884      173.404      416.517        0.425        0.051       85.700        8.597        0.010      337.192        9.001      863.276
03/28/2014  11:02:00      111.532       66.553       19.784       50.716       56.472       49.636     2572.135     3189.049     2463.729        1.274        0.411      129.880        9.314        0.005      337.329        9.229      863.284
03/28/2014  11:03:00      124.101       68.125       19.063       49.919       54.574       43.362     2491.928     2978.347     1880.255        1.388        0.368      141.570       25.237        0.032      337.241        9.082      863.302
03/28/2014  11:04:00       42.024       -3.682        2.963       31.485       34.443       22.815      991.288     1186.299      520.524        0.224        0.135       42.185        7.269        0.030      337.476        9.475      863.315
03/28/2014  11:05:00       63.198       77.328       68.932       55.531       53.776       43.879     3083.667     2891.899     1925.334        1.131        0.395       99.868       41.114        0.169      337.551        9.601      863.326
03/28/2014  11:06:00       74.478       88.836       75.688       57.961       56.094       44.778     3359.455     3146.546     2005.085        1.384        0.426      115.926       31.164        0.072      337.313        9.203      863.313
03/28/2014  11:07:00       49.669       -2.421       30.181       39.200       37.210       31.251     1536.643     1384.598      976.636        0.364        0.195       49.728       25.667        0.266      337.520        9.549      863.308
03/28/2014  11:08:00       67.217      -91.063        6.444       47.985       83.089       44.969     2302.573     6903.797     2022.173        1.204        0.561      113.184       46.121        0.166      337.569        9.632      863.288
03/28/2014  11:09:00       71.328     -106.388       -2.583       55.827       68.647       40.551     3116.692     4712.368     1644.375        1.294        0.474      128.086       38.241        0.089      337.603        9.689      863.281
03/28/2014  11:10:00       58.491      -65.904       15.183       47.090       59.805       43.464     2217.433     3576.654     1889.102        0.784        0.384       88.116       44.008        0.249      337.707        9.863      863.295
03/28/2014  11:11:00       26.133       -1.655       30.643       21.201       35.278       27.379      449.484     1244.536      749.595        0.203        0.122       26.185       26.753        1.044      337.735        9.910      863.302
03/28/2014  11:12:00       27.157       26.846       22.957       19.421       22.043       26.747      377.194      485.878      715.410        0.178        0.079       38.187       16.145        0.179      337.535        9.573      863.318
03/28/2014  11:13:00       -1.279        8.781        0.770       12.571       12.719       13.748      158.022      161.773      189.005        0.029        0.025        8.874        5.357        0.364      337.675        9.809      863.341
03/28/2014  11:14:00       49.646      -37.573       25.427       45.075       66.945       39.381     2031.740     4481.665     1550.846        0.629        0.403       62.261       45.898        0.543      337.669        9.799      863.345
03/28/2014  11:15:00       55.677      -66.225        8.147       50.639       65.054       32.491     2564.312     4232.026     1055.645        0.770        0.393       86.520       35.993        0.173      337.657        9.779      863.350
03/28/2014  11:16:00       19.473      -74.397       -3.187       39.270       56.940       38.850     1542.102     3242.165     1509.359        0.611        0.315       76.903       29.990        0.152      337.765        9.961      863.352
03/28/2014  11:17:00       89.131     -107.420      -12.774       37.810       34.392       23.824     1429.588     1182.818      567.593        1.141        0.159      139.583       21.969        0.025      337.529        9.565      863.368
03/28/2014  11:18:00       39.871      -64.110       13.355       29.925       36.574       37.040      895.501     1337.662     1371.933        0.474        0.180       75.497       26.017        0.119      337.785        9.995      863.379
03/28/2014  11:19:00       33.464      -85.512        0.848       40.535       39.792       25.538     1643.050     1583.384      652.185        0.616        0.194       91.826       18.868        0.042      337.768        9.966      863.390
03/28/2014  11:20:00       28.519       -2.619       27.352       36.883       48.411       38.004     1360.343     2343.613     1444.318        0.336        0.257       28.639       41.369        2.087      337.849       10.101      863.387
03/28/2014  11:21:00       59.886       46.768       44.010       43.000       28.340       28.898     1848.977      803.140      835.082        0.560        0.174       75.984       13.430        0.031      337.723        9.890      863.366
03/28/2014  11:22:00      107.408       49.746        6.625       40.170       36.045       31.182     1613.613     1299.218      972.289        0.897        0.194      118.369       14.664        0.015      337.834       10.075      863.371
03/28/2014  11:23:00       99.083       46.732       14.413       45.524       40.740       37.420     2072.474     1659.732     1400.257        0.867        0.257      109.550       13.929        0.016      337.728        9.899      863.374
03/28/2014  11:24:00       63.014       21.338       28.315       48.724       66.449       27.992     2374.004     4415.490      783.578        0.640        0.379       66.529       29.650        0.199      337.763        9.958      863.361
03/28/2014  11:25:00       41.500      -67.201        8.401       41.473       45.885       32.506     1719.993     2105.402     1056.654        0.559        0.244       78.982       32.011        0.164      337.850       10.102      863.367
03/28/2014  11:26:00       61.373       24.189       40.987       54.729       86.180       58.593     2995.306     7426.917     3433.127        0.994        0.693       65.968       61.047        0.856      337.799       10.016      863.370
03/28/2014  11:27:00       26.994       59.088       57.522       46.879       49.537       54.073     2197.605     2453.939     2923.842        0.755        0.379       64.962       48.314        0.553      337.784        9.992      863.339
03/28/2014  11:28:00      102.374      138.745      131.997      118.910       77.841       74.846    14139.624     6059.201     5601.858        3.647        1.290      172.426       66.287        0.148      337.843       10.088      863.283
03/28/2014  11:29:00       92.153      120.710      147.681       87.388       85.524       68.223     7636.635     7314.309     4654.386        3.224        0.980      151.865       74.302        0.239      337.686        9.824      863.270
03/28/2014  11:30:00      164.061       96.478       54.846       47.834       46.416       49.388     2288.046     2154.480     2439.180        2.306        0.344      190.326       33.242        0.031      337.544        9.589      863.279
03/28/2014  11:31:00       39.980       39.510       79.523       60.512       90.659       53.995     3661.687     8219.124     2915.443        1.214        0.740       56.209       57.358        1.041      337.941       10.255      863.291
03/28/2014  11:32:00       12.517       67.934      122.432       69.211       79.455       74.518     4790.150     6313.096     5552.997        1.821        0.833       69.077       72.296        1.095      338.077       10.483      863.303
03/28/2014  11:33:00       44.553      -80.757       16.092       98.743      162.161       99.504     9750.135    26296.180     9900.950        2.735        2.297       92.231      115.932        1.580      337.800       10.016      863.250
03/28/2014  11:34:00       59.151       -5.262       72.693       64.583      124.004       74.092     4170.930    15376.956     5489.652        1.692        1.252       59.384       69.313        1.362      337.942       10.256      863.226
03/28/2014  11:35:00       80.463        1.759       94.715       78.325      176.800      116.520     6134.809    31258.206    13576.842        3.320        2.548       80.482      134.288        2.784      337.856       10.111      863.231
03/28/2014  11:36:00      106.984     -161.937      -17.880       75.179       66.076       49.531     5651.943     4366.075     2453.362        2.523        0.624      194.085       48.024        0.061      337.845       10.092      863.215
03/28/2014  11:37:00       21.633      -26.370       21.714       63.220       69.300       43.413     3996.815     4802.505     1884.653        0.616        0.534       34.109       46.023        1.821      338.086       10.499      863.214
03/28/2014  11:38:00       40.157       27.760       71.356       54.970       64.509       42.121     3021.751     4161.438     1774.200        0.821        0.448       48.818       39.097        0.641      338.061       10.456      863.211
03/28/2014  11:39:00       72.563       -9.538       55.427       76.914       73.745       46.999     5915.756     5438.257     2208.919        1.099        0.678       73.187       45.124        0.380      337.988       10.334      863.208
03/28/2014  11:40:00       23.899        1.579       29.057       54.623       38.955       29.277     2983.710     1517.519      857.115        0.339        0.268       23.951       29.265        1.493      338.125       10.564      863.212
03/28/2014  11:41:00        4.861      -31.261        1.711       53.933       23.651       22.315     2908.808      559.354      497.971        0.248        0.198       31.637       24.569        0.603      337.788        9.999      863.227
03/28/2014  11:42:00      -34.688        2.207        8.431       24.391       21.656       20.907      594.931      469.001      437.113        0.139        0.075       34.758       17.800        0.262      338.147       10.601      863.225
03/28/2014  11:43:00       -4.832       32.398        5.153       27.618       20.572       17.165      762.745      423.211      294.647        0.129        0.074       32.756       13.760        0.176      338.221       10.727      863.231
03/28/2014  11:44:00      -34.487       58.860        0.599       70.900       54.840       30.391     5026.807     3007.449      923.606        0.680        0.448       68.220       42.187        0.382      338.183       10.663      863.254
03/28/2014  11:45:00       17.840       91.205      -21.962       51.786       53.244       35.852     2681.743     2834.897     1285.388        0.796        0.340       92.934       27.910        0.090      338.039       10.419      863.219
03/28/2014  11:46:00      -59.344      -90.356       -6.341       78.545       84.061       53.033     6169.344     7066.187     2812.492        1.388        0.802      108.101       50.154        0.215      338.169       10.636      863.244
03/28/2014  11:47:00      -84.548     -106.454       -8.289       83.019       70.848       35.423     6892.082     5019.386     1254.796        1.586        0.658      135.944       31.049        0.052      338.111       10.539      863.258
03/28/2014  11:48:00      -76.916      -38.482        8.744       81.153       79.755       32.796     6585.761     6360.931     1075.574        1.075        0.701       86.006       38.464        0.200      338.385       11.000      863.235
03/28/2014  11:49:00      -27.610     -173.007       -6.714       85.462       70.743       48.612     7303.809     5004.550     2363.157        2.270        0.734      175.196       39.436        0.051      338.311       10.876      863.218
03/28/2014  11:50:00       24.387      -86.968       24.335       72.911      106.041       58.169     5316.026    11244.665     3383.577        1.434        0.997       90.322       47.582        0.278      338.562       11.297      863.203
03/28/2014  11:51:00       55.043       59.963       76.428       76.659       71.113       68.801     5876.665     5057.045     4733.536        1.406        0.783       81.395       59.506        0.534      338.422       11.060      863.189
03/28/2014  11:52:00        5.337        7.881       49.834       69.860       70.518       48.570     4880.368     4972.817     2359.040        0.739        0.611        9.518       45.305       22.655      338.561       11.295      863.193
03/28/2014  11:53:00     -125.484     -225.457        5.249      132.934      151.557       70.581    17671.392    22969.394     4981.745        5.611        2.281      258.026       65.811        0.065      338.461       11.126      863.181
03/28/2014  11:54:00     -223.201     -149.885       -9.499      132.741       85.143       56.301    17620.081     7249.254     3169.770        5.020        1.402      268.857       58.403        0.047      338.357       10.951      863.171
03/28/2014  11:55:00     -180.537     -190.242       -8.822       95.945      132.683       47.278     9205.504    17604.908     2235.226        4.895        1.452      262.270       55.925        0.045      338.269       10.803      863.165
03/28/2014  11:56:00     -156.998     -129.025        6.431      106.668      111.310       57.401    11378.064    12389.924     3294.841        3.420        1.353      203.214       63.052        0.096      338.399       11.022      863.141
03/28/2014  11:57:00     -154.514      -72.134        9.154       76.962       68.971       45.513     5923.210     4756.994     2071.406        2.095        0.638      170.523       45.154        0.070      338.453       11.112      863.115
03/28/2014  11:58:00     -236.158     -250.137       -1.759      221.718      104.239       77.799    49158.856    10865.800     6052.682        9.220        3.304      344.005       73.511        0.046      338.373       10.978      863.133
03/28/2014  11:59:00     -297.251     -253.693        2.432      195.344      158.086       83.887    38159.129    24991.126     7036.992       11.144        3.509      390.792       96.070        0.060      338.416       11.048      863.099
03/28/2014  12:00:00     -288.188     -196.167      -10.078      190.967      166.905       82.229    36468.317    27857.294     6761.598        9.635        3.554      348.617       85.947        0.061      338.436       11.084      863.091
03/28/2014  12:01:00     -350.822     -178.675       -0.176      189.340      124.129       81.128    35849.513    15408.047     6581.799       10.641        2.892      393.702       93.618        0.057      338.470       11.140      863.103
03/28/2014  12:02:00     -424.891     -164.828        0.161      185.850      130.199       77.203    34540.230    16951.670     5960.291       13.257        2.873      455.742       81.719        0.032      338.417       11.051      863.112
03/28/2014  12:03:00     -356.388     -239.193       11.189      186.514      188.144      105.453    34787.563    35398.281    11120.308       13.281        4.065      429.216      119.427        0.077      338.260       10.788      863.097
03/28/2014  12:04:00     -335.447     -125.875      -15.646      153.545       99.509       58.533    23576.043     9901.955     3426.089        8.275        1.845      358.287       66.023        0.034      338.370       10.971      863.098
03/28/2014  12:05:00     -224.973     -250.947        0.230      178.218      150.553       75.189    31761.568    22666.055     5653.349        8.682        3.004      337.027       72.297        0.046      338.446       11.099      863.082
03/28/2014  12:06:00     -371.287      -65.256       -9.491      192.116      138.875       69.839    36908.735    19286.289     4877.555       10.163        3.054      376.978       70.132        0.035      338.442       11.092      863.050
03/28/2014  12:07:00     -355.484     -177.806        7.970      165.881      171.333       73.932    27516.573    29355.126     5465.955       11.018        3.117      397.472       68.169        0.029      338.474       11.146      863.046
03/28/2014  12:08:00     -355.244      -74.283        5.320      268.095      169.635       88.269    71874.800    28776.198     7791.419       12.007        5.422      362.927      120.986        0.111      338.406       11.033      863.040
03/28/2014  12:09:00     -185.046      -89.062        6.885      199.486      123.687       63.433    39794.578    15298.398     4023.780        5.066        2.956      205.363       63.190        0.095      338.547       11.271      863.049
03/28/2014  12:10:00     -329.247     -249.506       12.980      201.544      146.111       92.682    40619.864    21348.328     8589.865       12.068        3.528      413.106      104.802        0.064      338.425       11.065      863.033
03/28/2014  12:11:00     -444.531     -264.582        6.542      215.574      162.427      103.366    46472.343    26382.678    10684.445       17.558        4.177      517.312      112.502        0.047      338.314       10.878      863.002
03/28/2014  12:12:00     -363.468     -189.325      -13.700      214.113      121.620       71.777    45844.369    14791.412     5151.912       11.695        3.289      409.821       89.178        0.047      338.436       11.082      863.005
03/28/2014  12:13:00     -222.675     -279.779       -9.114      157.452      184.761       58.805    24791.057    34136.453     3458.033        9.515        3.119      357.576       51.744        0.021      338.468       11.137      863.010
03/28/2014  12:14:00     -350.933     -183.136      -14.156      157.045      128.589       84.471    24663.255    16535.136     7135.362       10.260        2.417      395.845       75.738        0.037      338.553       11.278      862.991
03/28/2014  12:15:00     -194.913     -143.465       22.565      211.149      175.534       78.763    44584.054    30812.123     6203.616        7.032        4.080      242.019       85.946        0.126      338.627       11.402      862.979
03/28/2014  12:16:00     -432.536     -226.138       -5.147      211.995      190.142       90.167    44941.947    36153.909     8130.154       16.372        4.461      488.083      101.587        0.043      338.421       11.057      862.939
03/28/2014  12:17:00     -350.457     -234.217        2.214      150.147      135.350       77.217    22544.010    18319.517     5962.454       11.224        2.341      421.519       75.727        0.032      338.563       11.297      862.926
03/28/2014  12:18:00     -256.375     -109.512       15.018      209.371      168.661       94.053    43836.349    28446.424     8846.040        7.952        4.056      278.785      118.655        0.181      338.736       11.589      862.898
03/28/2014  12:19:00     -478.683     -300.343      -23.958      276.680      195.696      116.693    76552.020    38296.852    13617.269       22.417        6.423      565.105      132.214        0.055      338.674       11.481      862.896
03/28/2014  12:20:00     -284.285     -149.065       15.406      206.703      162.797       91.588    42726.144    26502.771     8388.280        9.043        3.881      320.996      107.493        0.112      338.610       11.375      862.933
03/28/2014  12:21:00     -352.163     -229.094       -3.218      158.122      138.414       80.635    25002.618    19158.495     6502.049       11.358        2.533      420.123       78.574        0.035      338.645       11.434      862.924
03/28/2014  12:22:00     -327.929     -170.908       -0.478      209.835      165.583       85.036    44030.520    27417.686     7231.153       10.770        3.934      369.793      108.587        0.086      338.824       11.736      862.908
03/28/2014  12:23:00     -410.303     -259.475      -20.555      200.659      179.295      103.207    40263.847    32146.775    10651.674       15.956        4.153      485.465      111.682        0.053      338.620       11.391      862.936
03/28/2014  12:24:00     -364.804     -259.477       -3.250      258.225      199.342      115.834    66679.992    39737.349    13417.441       16.010        5.992      447.673      134.354        0.090      338.705       11.535      862.867
03/28/2014  12:25:00     -338.207      -82.658       -9.860      165.687      185.862       76.754    27452.233    34544.847     5891.140        9.459        3.394      348.161       75.188        0.047      338.719       11.558      862.890
03/28/2014  12:26:00     -362.520      -29.494      -18.329      230.442      174.496       89.764    53103.418    30448.863     8057.620       11.210        4.580      363.718       98.034        0.073      338.788       11.674      862.865
03/28/2014  12:27:00     -407.662      -55.654      -21.480      182.331      145.681       91.488    33244.687    21223.060     8369.991       11.628        3.142      411.444      107.238        0.068      338.820       11.729      862.849
03/28/2014  12:28:00     -377.335      -90.688       -9.414      163.144      125.905       68.904    26616.005    15852.182     4747.733        9.895        2.361      388.080       71.274        0.034      338.785       11.669      862.823
03/28/2014  12:29:00     -326.037      -73.471       -5.745      212.407      120.116       73.699    45116.651    14427.845     5431.584        8.834        3.249      334.213       88.927        0.071      338.984       12.004      862.830
03/28/2014  12:30:00     -223.617     -112.348        0.917      156.529      106.075       76.139    24501.314    11251.979     5797.211        5.208        2.078      250.253       80.996        0.105      339.158       12.297      862.840
03/28/2014  12:31:00     -238.904     -161.486        7.322      157.337      127.310       68.166    24755.078    16207.828     4646.616        6.440        2.280      288.362       76.201        0.070      339.157       12.295      862.841
03/28/2014  12:32:00     -384.950      -98.101        4.613      232.445      158.791       90.348    54030.699    25214.427     8162.849       12.260        4.370      397.253      103.404        0.068      339.056       12.125      862.807
03/28/2014  12:33:00     -410.194     -152.188      -14.797      210.648      166.397       80.970    44372.726    27687.979     6556.123       13.511        3.931      437.516       87.419        0.040      339.061       12.134      862.808
03/28/2014  12:34:00     -542.073     -246.441      -22.009      214.908      196.790       95.642    46185.349    38726.245     9147.323       22.454        4.703      595.463      103.170        0.030      338.912       11.883      862.803
03/28/2014  12:35:00     -403.098     -233.119      -13.749      228.461      153.255       85.532    52194.425    23487.207     7315.657       14.999        4.150      465.653       85.630        0.034      339.005       12.040      862.849
03/28/2014  12:36:00     -413.387     -222.061        9.384      235.600      173.999      114.042    55507.480    30275.738    13005.654       15.952        4.939      469.255      125.588        0.072      338.855       11.787      862.825
03/28/2014  12:37:00     -307.337     -225.521        9.301      235.900      187.387      104.910    55648.936    35113.939    11006.181       12.357        5.088      381.203      122.268        0.103      338.944       11.936      862.821
03/28/2014  12:38:00     -423.405      -90.309      -32.349      302.313      187.085       95.974    91393.062    35000.634     9211.096       16.201        6.780      432.929      118.805        0.075      339.034       12.088      862.844
03/28/2014  12:39:00     -271.425     -138.891      -15.717      185.778      147.267       77.355    34513.333    21687.502     5983.786        7.768        3.109      304.897       80.254        0.069      339.189       12.350      862.826
03/28/2014  12:40:00     -345.331     -215.485      -23.914      154.634      145.458       74.524    23911.625    21157.950     5553.784       10.843        2.531      407.047       79.727        0.038      339.309       12.549      862.799
03/28/2014  12:41:00     -258.608     -210.714        4.368      154.691      159.365       81.634    23929.241    25397.098     6664.148        8.363        2.800      333.584       93.373        0.078      339.333       12.592      862.843
03/28/2014  12:42:00     -239.171     -205.074        6.238      130.661       98.085       72.920    17072.220     9620.584     5317.274        6.565        1.601      315.053       74.960        0.057      339.315       12.561      862.872
03/28/2014  12:43:00     -397.925     -270.797      -24.871      223.513      177.659       81.663    49958.143    31562.625     6668.790       16.022        4.409      481.327       94.683        0.039      339.154       12.290      862.899
03/28/2014  12:44:00     -348.835     -263.706        3.389      229.258      172.384       76.458    52559.200    29716.219     5845.870       13.966        4.406      437.295      102.075        0.054      339.114       12.224      862.883
03/28/2014  12:45:00     -297.566     -253.182       -0.660      225.107      146.860       88.440    50673.346    21567.798     7821.578       11.634        4.003      390.700       91.553        0.055      339.112       12.218      862.865
03/28/2014  12:46:00     -315.758     -224.908       -4.256      175.952      172.274       87.423    30959.210    29678.198     7642.838       10.928        3.414      387.668      101.452        0.068      339.187       12.346      862.878
03/28/2014  12:47:00     -290.039     -285.016       -5.374      147.843      154.442       70.685    21857.615    23852.391     4996.307       10.804        2.535      406.641       44.866        0.012      339.131       12.251      862.881
03/28/2014  12:48:00     -411.623     -182.741      -26.272      166.429      140.272       75.794    27698.600    19676.182     5744.771       12.831        2.656      450.364       81.560        0.033      339.060       12.132      862.869
03/28/2014  12:49:00     -268.651     -120.556        2.629      200.009      166.061       80.896    40003.694    27576.233     6544.169        8.040        3.706      294.460       81.614        0.077      339.196       12.360      862.848
03/28/2014  12:50:00     -521.056      -83.961      -35.296      234.753      179.212       95.525    55109.173    32116.769     9124.960       18.805        4.818      527.778      117.989        0.050      339.056       12.126      862.847
03/28/2014  12:51:00     -516.028     -124.421      -27.824      193.451      177.962       88.950    37423.420    31670.561     7912.089       17.976        3.850      530.816       77.320        0.021      338.902       11.867      862.838
03/28/2014  12:52:00     -281.385     -100.910       10.778      327.772      194.302       89.880   107434.221    37753.337     8078.419       12.134        7.663      298.932      138.868        0.216      339.352       12.625      862.806
03/28/2014  12:53:00     -158.448      -77.499      -16.132      118.420       84.012       53.378    14023.349     7057.970     2849.202        2.765        1.197      176.385       49.047        0.077      339.423       12.744      862.796
03/28/2014  12:54:00     -370.735      -98.634       -9.590      194.548      123.581       71.725    37848.746    15272.258     5144.492       10.275        2.913      383.631       70.709        0.034      339.376       12.663      862.800
03/28/2014  12:55:00     -245.417     -260.303       10.256      135.712      118.991       83.350    18417.741    14158.893     6947.204        8.380        1.976      357.754       77.177        0.047      339.227       12.412      862.816
03/28/2014  12:56:00     -338.689     -187.513      -15.460      162.920      136.896       70.531    26543.082    18740.554     4974.611       10.017        2.513      387.132       60.867        0.025      339.085       12.174      862.835
03/28/2014  12:57:00     -299.561     -102.906        3.419      227.889      203.110       81.969    51933.604    41253.626     6718.919       10.010        4.995      316.744      105.710        0.111      339.244       12.443      862.812
03/28/2014  12:58:00     -305.275     -197.847       -1.756      218.889      161.011       79.763    47912.251    25924.583     6362.130       10.625        4.010      363.781      106.817        0.086      339.186       12.343      862.844
03/28/2014  12:59:00     -279.568     -250.933       26.298      225.329      188.090      118.771    50773.345    35377.936    14106.535       12.102        5.013      375.667      128.767        0.117      339.228       12.415      862.737
03/28/2014  13:00:00     -332.664     -139.070        6.754      206.021      155.776       87.293    42444.579    24266.089     7620.010       10.218        3.717      360.563      102.409        0.081      339.379       12.670      862.782
03/28/2014  13:01:00     -539.207     -200.498       -8.166      218.687      167.002       87.638    47823.812    27889.713     7680.449       20.719        4.170      575.276       98.296        0.029      339.093       12.187      862.799
03/28/2014  13:02:00     -468.922     -274.736      -13.369      204.502      156.256       90.023    41821.258    24415.871     8104.153       18.493        3.717      543.477       98.989        0.033      338.999       12.032      862.812
03/28/2014  13:03:00     -384.050     -236.704      -15.329      185.486      165.207       87.116    34405.055    27293.206     7589.256       13.651        3.464      451.136       89.950        0.040      339.147       12.276      862.811
03/28/2014  13:04:00     -312.942     -165.924      -19.712      122.745      121.891       56.341    15066.238    14857.398     3174.256        7.947        1.655      354.208       42.370        0.014      339.357       12.632      862.822
03/28/2014  13:05:00      -80.066      -20.454       35.554      153.862       95.008       70.741    23673.612     9026.572     5004.312        2.289        1.885       82.637       86.086        1.085      339.788       13.360      862.783
03/28/2014  13:06:00     -360.184     -193.715      -11.694      243.603      178.344       95.483    59342.569    31806.554     9117.017       13.381        5.013      408.971      102.342        0.063      339.288       12.515      862.757
03/28/2014  13:07:00     -435.034      -97.524      -13.589      215.413      186.039       99.246    46402.691    34610.553     9849.756       14.489        4.543      445.831      119.188        0.071      339.171       12.320      862.757
03/28/2014  13:08:00     -495.122     -161.218      -26.246      194.802      201.630       81.629    37947.650    40654.615     6663.271       17.853        4.263      520.708       78.869        0.023      339.018       12.061      862.768
03/28/2014  13:09:00     -403.795     -310.611        2.839      255.090      186.055      121.759    65071.091    34616.531    14825.169       18.700        5.726      509.441      140.478        0.076      339.087       12.178      862.721
03/28/2014  13:10:00     -417.840     -193.766      -16.724      210.157      104.766       64.890    44166.084    10975.956     4210.756       13.587        2.968      460.581       82.204        0.032      339.291       12.521      862.732
03/28/2014  13:11:00     -562.765      -83.868      -27.645      280.303      176.891      102.833    78569.582    31290.581    10574.669       22.244        6.022      568.980      117.060        0.042      339.221       12.402      862.723
03/28/2014  13:12:00     -383.485     -241.720       -3.360      200.830      164.853       94.183    40332.736    27176.591     8870.346       14.092        3.819      453.310       85.601        0.036      339.220       12.400      862.681
03/28/2014  13:13:00     -410.579     -250.267       -9.569      210.049      137.585       89.287    44120.729    18929.726     7972.183       15.115        3.551      480.842       90.154        0.035      339.200       12.367      862.720
03/28/2014  13:14:00     -393.668     -180.016      -16.878      200.118      143.525       80.471    40047.239    20599.560     6475.593       12.738        3.356      432.874       84.048        0.038      339.238       12.431      862.737
03/28/2014  13:15:00     -522.327     -241.047      -36.396      354.342      275.755      128.012   125558.434    76040.821    16387.106       27.508       10.899      575.265      158.456        0.076      339.162       12.303      862.712
03/28/2014  13:16:00     -594.636     -295.315      -27.703      245.444      228.808      119.219    60242.526    52353.310    14213.230       28.416        6.340      663.930      123.927        0.035      339.117       12.228      862.713
03/28/2014  13:17:00     -480.592     -294.773      -20.596      203.178      177.543      101.676    41281.368    31521.519    10337.923       20.070        4.157      563.790      105.747        0.035      339.271       12.487      862.669
03/28/2014  13:18:00     -297.543      -98.140       -0.919      178.562      167.967       66.828    31884.433    28213.019     4465.984        8.135        3.228      313.310       71.777        0.052      339.611       13.061      862.720
03/28/2014  13:19:00     -294.460     -181.386       -3.649      201.047      139.231       87.411    40419.836    19385.219     7640.661        9.352        3.372      345.844       89.026        0.066      339.529       12.923      862.707
03/28/2014  13:20:00     -319.854      -58.535       -0.356      226.573      195.448       90.987    51335.306    38199.843     8278.556       10.175        4.891      325.166      112.077        0.119      339.582       13.011      862.732
03/28/2014  13:21:00     -455.646     -103.304      -21.909      260.811      216.923       94.282    68022.197    47055.672     8889.141       17.134        6.198      467.210      118.227        0.064      339.405       12.712      862.738
03/28/2014  13:22:00     -362.453       -9.886        8.571      191.189      175.060       96.574    36553.190    30646.112     9326.573       10.402        3.826      362.588       96.679        0.071      339.490       12.856      862.729
03/28/2014  13:23:00     -522.439       23.301      -28.710      241.289      148.637       98.277    58220.311    22092.813     9658.442       18.212        4.499      522.958      121.587        0.054      339.359       12.636      862.734
03/28/2014  13:24:00     -377.944     -153.690       -3.804      189.689      156.943       80.859    35981.874    24631.147     6538.159       11.680        3.358      407.997       92.148        0.051      339.159       12.298      862.702
03/28/2014  13:25:00     -427.393     -128.749      -29.694      172.750      148.290       78.153    29842.625    21989.937     6107.818       12.902        2.897      446.365       74.823        0.028      339.135       12.259      862.658
03/28/2014  13:26:00     -230.477     -196.303        3.394      184.480      171.719       74.859    34032.869    29487.563     5603.943        8.038        3.456      302.744       78.666        0.068      339.336       12.596      862.611
03/28/2014  13:27:00     -261.549     -108.275       -2.868      175.066      125.543       66.567    30648.035    15761.006     4431.210        6.548        2.542      283.074       67.258        0.056      339.576       13.001      862.576
03/28/2014  13:28:00     -451.947      -55.368      -17.638      224.515      149.457       78.264    50407.057    22337.484     6125.311       14.324        3.943      455.326       95.806        0.044      339.540       12.940      862.577
03/28/2014  13:29:00     -310.206     -145.535        6.530      161.193      146.897       90.765    25983.305    21578.690     8238.197        8.661        2.790      342.649       91.765        0.072      339.727       13.256      862.614
03/28/2014  13:30:00     -315.366     -222.712       -6.219      154.148      129.814       78.148    23761.616    16851.698     6107.111        9.790        2.336      386.078       81.060        0.044      339.239       12.433      862.610
03/28/2014  13:31:00     -395.402     -180.307        7.687      217.455      171.751       90.282    47286.483    29498.368     8150.766       13.691        4.247      434.572      106.761        0.060      339.402       12.707      862.622
03/28/2014  13:32:00     -499.566     -172.832      -17.090      155.849      146.950       82.182    24288.875    21594.430     6753.899       16.617        2.632      528.618       77.968        0.022      339.282       12.506      862.605
03/28/2014  13:33:00     -353.448     -124.281       -2.809      188.020      157.561       88.679    35351.406    24825.544     7864.011       10.420        3.402      374.661       84.643        0.051      339.687       13.188      862.575
03/28/2014  13:34:00     -215.824      -66.854        1.416      137.198      102.250       55.876    18823.193    10455.129     3122.131        4.172        1.620      225.941       43.507        0.037      339.545       12.950      862.583
03/28/2014  13:35:00     -307.945      -20.393       -4.796      226.590      152.638       79.616    51343.081    23298.456     6338.731        8.811        4.049      308.619       94.197        0.093      339.586       13.018      862.581
03/28/2014  13:36:00     -235.484     -271.375       -9.583      122.420      158.393       73.527    14986.691    25088.414     5406.202        8.733        2.274      359.301       75.040        0.044      339.519       12.905      862.581
03/28/2014  13:37:00     -185.859     -131.011       31.261      159.810      136.168       90.288    25539.326    18541.662     8151.859        5.245        2.612      227.393       88.466        0.151      339.652       13.128      862.544
03/28/2014  13:38:00     -404.907      -98.231      -10.374      253.058      250.158       90.264    64038.545    62579.073     8147.610       15.421        6.738      416.652      102.813        0.061      339.386       12.681      862.550
03/28/2014  13:39:00     -447.841     -276.641        1.850      240.000      177.928       86.851    57599.944    31658.528     7543.035       18.693        4.840      526.395      107.166        0.041      339.171       12.319      862.537
03/28/2014  13:40:00     -388.403     -299.133        3.085      204.470      191.606       87.300    41807.846    36712.887     7621.377       16.323        4.307      490.242      102.437        0.044      339.426       12.747      862.535
03/28/2014  13:41:00     -448.663     -321.233       -8.683      200.336      182.918       93.218    40134.408    33459.082     8689.614       19.341        4.114      551.805       96.816        0.031      339.123       12.238      862.570
03/28/2014  13:42:00     -412.955     -256.698       -7.006      205.413      176.694       98.788    42194.513    31220.906     9759.129       15.981        4.159      486.236       97.591        0.040      339.049       12.113      862.557
03/28/2014  13:43:00     -314.087     -195.448       -1.188      173.551      141.135       79.966    30119.945    19919.084     6394.588        9.663        2.822      369.933      100.777        0.074      339.117       12.228      862.537
03/28/2014  13:44:00     -308.693     -170.514      -13.015      204.267      151.181       77.855    41725.210    22855.745     6061.328        9.757        3.532      352.656       90.120        0.065      339.400       12.704      862.546
03/28/2014  13:45:00     -331.153      -87.144       -9.267      220.260      153.103       95.957    48514.348    23440.376     9207.820        9.924        4.058      342.427      111.220        0.105      339.386       12.680      862.514
03/28/2014  13:46:00     -536.044     -124.029      -27.540      173.513      127.498       76.235    30106.717    16255.754     5811.739       17.782        2.609      550.205       74.339        0.018      339.378       12.666      862.493
03/28/2014  13:47:00     -431.688     -114.650       -8.310      215.659      208.052       94.713    46508.829    43285.620     8970.626       14.915        4.938      446.653      106.767        0.057      339.529       12.923      862.513
03/28/2014  13:48:00     -406.163     -211.036      -15.380      258.684      191.661      113.576    66917.579    36733.933    12899.614       16.312        5.828      457.716      130.996        0.082      339.371       12.655      862.524
03/28/2014  13:49:00     -384.397      -86.178       -3.668      229.999      182.939       81.766    52899.447    33466.841     6685.757       12.411        4.653      393.939       94.026        0.057      339.305       12.546      862.521
03/28/2014  13:50:00     -265.538     -106.919       -2.198      191.656      162.118       77.470    36732.009    26282.119     6001.558        7.547        3.451      286.255       92.449        0.104      339.441       12.774      862.498
03/28/2014  13:51:00     -287.067       10.031       -2.364      161.545      137.343       88.488    26096.699    18863.147     7830.038        6.764        2.639      287.242       75.739        0.070      339.504       12.880      862.437
03/28/2014  13:52:00     -148.193      -96.972       22.713      135.595      115.894       76.348    18386.044    13431.448     5828.965        3.476        1.882      177.101       77.008        0.189      339.656       13.137      862.424
03/28/2014  13:53:00     -318.211     -226.606       -8.673      188.780      149.731       75.332    35638.051    22419.388     5674.963       10.820        3.187      390.651       85.899        0.048      339.477       12.834      862.400
03/28/2014  13:54:00     -342.588     -164.199      -18.806      234.924      144.307       78.687    55189.213    20824.393     6191.706       11.343        4.110      379.905       92.941        0.060      339.630       13.092      862.386
03/28/2014  13:55:00     -451.337     -192.556      -16.017      253.805      115.219       84.864    64416.751    13275.452     7201.868       16.295        4.245      490.697      113.427        0.053      339.622       13.078      862.385
03/28/2014  13:56:00     -340.122     -139.584       -9.521      172.708      147.236       82.036    29827.918    21678.442     6729.884        9.674        2.912      367.651       92.675        0.064      339.873       13.501      862.366
03/28/2014  13:57:00     -311.376      -62.110        3.100      224.346      172.503       79.606    50331.130    29757.334     6337.094        9.361        4.321      317.510       95.097        0.090      339.791       13.364      862.386
03/28/2014  13:58:00     -592.211     -211.393      -23.000      211.628      203.320       85.503    44786.532    41339.064     7310.840       24.466        4.672      628.809       96.525        0.024      339.195       12.359      862.335
03/28/2014  13:59:00     -427.406     -160.030      -12.231      230.053      172.304      110.165    52924.173    29688.621    12136.280       15.157        4.737      456.383      129.410        0.080      339.484       12.848      862.292
03/28/2014  14:00:00     -432.940     -221.694      -11.727      265.150      160.236      100.134    70304.664    25675.698    10026.777       17.134        5.300      486.400      124.691        0.066      339.395       12.695      862.257
03/28/2014  14:01:00     -374.974     -228.482       -7.862      259.868      197.212      102.361    67531.482    38892.678    10477.718       15.486        5.845      439.101      124.131        0.080      339.643       13.115      862.254
03/28/2014  14:02:00     -350.703     -228.727       -5.454      250.133      179.713       93.131    62566.447    32296.863     8673.423       13.942        5.177      418.699      118.892        0.081      339.661       13.144      862.247
03/28/2014  14:03:00     -160.385      -97.457       -2.831      184.187      142.479       89.785    33924.792    20300.370     8061.289        4.875        3.114      187.674       78.895        0.177      339.742       13.283      862.260
03/28/2014  14:04:00     -168.810     -198.131       11.480      152.261      117.264       68.906    23183.558    13750.804     4748.087        5.478        2.084      260.294       62.800        0.058      339.637       13.104      862.225
03/28/2014  14:05:00     -307.103     -239.007       19.063      201.304      144.408       89.919    40523.490    20853.711     8085.358       11.062        3.473      389.148      105.633        0.074      339.573       12.995      862.254
03/28/2014  14:06:00     -295.758     -222.179       17.352      183.611      201.982       98.585    33713.158    40796.917     9719.086       11.067        4.211      369.914       92.565        0.063      339.558       12.970      862.222
03/28/2014  14:07:00     -378.928     -272.952       -5.373      162.711      133.377       81.393    26474.767    17789.368     6624.861       13.449        2.544      467.001       80.637        0.030      339.429       12.753      862.188
03/28/2014  14:08:00     -353.830     -160.422        0.167      260.776      165.191      106.614    68004.090    27288.024    11366.580       12.877        5.333      388.499      133.237        0.118      339.751       13.295      862.184
03/28/2014  14:09:00     -470.334     -222.277       -5.779      273.375      216.372      105.958    74733.772    46816.932    11227.154       20.169        6.639      520.212      116.665        0.050      339.518       12.904      862.177
03/28/2014  14:10:00     -382.271     -226.988        9.466      218.830      145.586       96.214    47886.551    21195.249     9257.069       13.803        3.917      444.584      102.917        0.054      339.781       13.347      862.179
03/28/2014  14:11:00     -622.166     -240.080      -47.643      275.757      231.001      105.157    76041.831    53361.616    11057.920       29.370        7.023      666.880      125.880        0.036      339.438       12.769      862.154
03/28/2014  14:12:00     -417.532     -187.386      -13.886      200.660      203.324      102.788    40264.276    41340.842    10565.448       15.089        4.609      457.653      105.820        0.053      339.814       13.402      862.107
03/28/2014  14:13:00     -453.860     -152.471      -13.930      297.026      204.730      109.839    88224.236    41914.247    12064.684       18.579        7.110      478.786      140.587        0.086      339.775       13.336      862.124
03/28/2014  14:14:00     -147.955     -133.510       28.284      150.391      139.449       72.202    22617.528    19446.046     5213.105        4.389        2.364      199.288       71.661        0.129      340.015       13.743      862.128
03/28/2014  14:15:00     -450.264     -114.823       -4.169      218.264      173.291       99.981    47639.204    30029.897     9996.183       15.178        4.383      464.674       96.451        0.043      339.680       13.175      862.079
03/28/2014  14:16:00     -574.952     -129.891      -14.308      219.909      202.451      102.335    48359.964    40986.524    10472.481       22.371        4.991      589.442      106.395        0.033      339.789       13.360      862.053
03/28/2014  14:17:00     -523.624     -210.412        4.676      297.204      215.371      102.640    88330.216    46384.512    10534.872       23.183        7.262      564.319      133.700        0.056      339.727       13.255      862.028
03/28/2014  14:18:00     -208.940      -99.119       29.885      180.286      167.123       83.954    32502.980    27929.957     7048.286        6.091        3.374      231.259       99.519        0.185      340.120       13.920      862.055
03/28/2014  14:19:00     -352.017     -360.050       -6.136      224.792      174.712       91.810    50531.247    30524.351     8429.100       17.152        4.474      503.540      102.564        0.041      339.570       12.990      862.018
03/28/2014  14:20:00     -257.740     -127.625       23.997      197.171      155.705       95.257    38876.413    24243.913     9073.961        7.773        3.610      287.608      107.456        0.140      339.932       13.601      862.003
03/28/2014  14:21:00     -363.186      -50.534      -16.948      228.945      132.709       81.608    52415.594    17611.790     6659.918       10.570        3.834      366.685       99.432        0.074      339.759       13.309      861.996
03/28/2014  14:22:00     -364.457     -262.985       19.127      282.231      194.581      122.161    79654.200    37861.676    14923.248       16.737        6.622      449.433      141.021        0.098      339.706       13.222      861.900
03/28/2014  14:23:00     -426.987     -319.614       -4.751      225.107      152.971      118.698    50673.128    23400.016    14089.111       18.631        4.408      533.359      128.413        0.058      339.927       13.592      861.887
03/28/2014  14:24:00     -301.540     -177.966       20.941      247.450      186.007      103.589    61231.559    34598.681    10730.687       11.478        5.328      350.140      126.571        0.131      340.072       13.838      861.924
03/28/2014  14:25:00     -380.118     -196.652      -14.931      188.468      119.168       92.830    35520.203    14201.026     8617.438       12.085        2.917      427.974       87.048        0.041      339.841       13.447      861.934
03/28/2014  14:26:00     -360.136     -100.271        8.216      191.844      203.688      114.397    36804.054    41488.633    13086.678       11.558        4.569      373.835      119.314        0.102      339.972       13.668      861.948
03/28/2014  14:27:00     -402.639      -83.241        2.001      220.197      147.358       92.016    48486.842    21714.431     8466.928       12.384        3.933      411.154       98.803        0.058      339.686       13.185      861.925
03/28/2014  14:28:00     -250.434     -265.047        1.934      145.733      150.478       79.178    21238.062    22643.701     6269.095        9.155        2.508      364.646       78.509        0.046      339.789       13.360      861.935
03/28/2014  14:29:00     -305.133     -214.568       -1.660      165.680      146.304       69.683    27449.959    21404.819     4855.762        9.642        2.686      373.022       82.496        0.049      339.757       13.307      861.916
03/28/2014  14:30:00     -273.084     -185.655       -3.047      174.300      142.401       68.780    30380.632    20277.913     4730.744        8.221        2.769      330.216       82.030        0.062      339.947       13.625      861.929
03/28/2014  14:31:00     -643.779     -241.966      -26.177      357.682      235.994      110.116   127936.571    55693.281    12125.444       33.468        9.788      687.750      137.730        0.040      339.758       13.308      861.880
03/28/2014  14:32:00     -455.838     -265.274        8.727      293.556      266.259      121.840    86175.202    70893.780    14844.986       22.504        8.596      527.407      133.738        0.064      339.798       13.374      861.873
03/28/2014  14:33:00     -551.847     -379.043      -20.012      244.583      200.097      125.780    59820.783    40038.758    15820.673       28.212        5.784      669.484      127.406        0.036      339.634       13.100      861.891
03/28/2014  14:34:00     -347.400     -189.738        8.103      241.192      166.737      100.130    58173.484    27801.070    10026.049       12.636        4.800      395.837      118.313        0.089      339.896       13.540      861.913
03/28/2014  14:35:00     -229.473     -156.452        1.235      244.082      149.485       85.935    59576.155    22345.731     7384.745        8.320        4.465      277.732       95.784        0.119      339.889       13.530      861.915
03/28/2014  14:36:00     -322.909     -160.974      -15.170      197.073      192.293       95.659    38837.913    36976.607     9150.581       10.767        4.248      360.809       88.985        0.061      339.943       13.619      861.830
03/28/2014  14:37:00     -607.538     -150.509      -10.120      284.382      189.653      124.317    80873.065    35968.272    15454.600       26.205        6.615      625.904      124.377        0.039      339.809       13.392      861.849
03/28/2014  14:38:00     -309.812     -137.227       -3.239      217.039      145.449       83.620    47106.058    21155.530     6992.262        9.502        3.763      338.844       90.594        0.071      339.678       13.173      861.913
03/28/2014  14:39:00     -389.087     -289.035       -9.651      196.533      160.963       83.670    38625.216    25909.188     7000.594       15.326        3.577      484.695       64.798        0.018      339.445       12.779      861.901
03/28/2014  14:40:00     -431.103     -327.899      -20.526      217.621      190.960      102.227    47358.810    36465.541    10450.294       19.401        4.714      541.634      111.167        0.042      339.510       12.888      861.836
03/28/2014  14:41:00     -221.303     -119.669       -6.193      157.131       99.527       58.544    24690.305     9905.619     3427.350        5.067        1.901      251.586       71.566        0.081      339.752       13.297      861.882
03/28/2014  14:42:00     -291.998     -214.135        2.051      133.317      120.847       57.111    17773.460    14603.929     3261.660        8.337        1.782      362.101       60.691        0.028      339.684       13.183      861.843
03/28/2014  14:43:00     -383.669     -252.462       -9.308      178.042      167.513       79.589    31698.939    28060.532     6334.379       13.855        3.305      459.280       69.935        0.023      339.762       13.313      861.801
03/28/2014  14:44:00     -369.207     -282.642      -12.218      230.038      160.852       85.876    52917.489    25873.314     7374.651       15.124        4.308      464.974       99.619        0.046      339.702       13.214      861.750
03/28/2014  14:45:00     -484.815     -282.671       -8.244      194.396      151.615       99.358    37789.887    22986.995     9871.958       19.282        3.532      561.203      108.824        0.038      339.880       13.514      861.753
03/28/2014  14:46:00     -249.501     -111.554       -2.922      164.996      112.422       76.778    27223.627    12638.633     5894.846        6.022        2.288      273.304       69.183        0.064      340.043       13.788      861.798
03/28/2014  14:47:00     -248.607     -142.044      -15.641      123.854      133.018       61.427    15339.847    17693.769     3773.249        5.951        1.840      286.325       50.598        0.031      339.765       13.319      861.830
03/28/2014  14:48:00     -291.910     -121.929      -14.303      153.312      130.860       58.058    23504.559    17124.290     3370.679        7.213        2.200      316.351       63.348        0.040      339.667       13.156      861.831
03/28/2014  14:49:00     -179.772      -41.891       -8.110      113.373       99.881       57.066    12853.474     9976.233     3256.582        3.011        1.304      184.589       58.664        0.101      339.592       13.029      861.826
03/28/2014  14:50:00     -236.968       41.642       -4.073       81.200       87.846       44.936     6593.455     7716.834     2019.244        3.711        0.816      240.599       31.455        0.017      339.623       13.081      861.801
03/28/2014  14:51:00     -256.227      -20.305       -9.108      122.454       92.092       62.482    14994.959     8480.893     3903.968        4.676        1.369      257.030       64.092        0.062      339.863       13.485      861.785
03/28/2014  14:52:00     -175.610     -127.244       -2.153      109.357       71.678       52.070    11958.905     5137.714     2711.319        3.342        0.990      216.863       47.495        0.048      339.789       13.359      861.775
03/28/2014  14:53:00     -201.532     -122.220       -5.311      115.513      158.221       72.908    13343.161    25033.914     5315.559        4.963        2.185      235.696       65.066        0.076      339.854       13.468      861.763
03/28/2014  14:54:00     -322.456     -214.463       -1.282      199.151      165.367       92.442    39661.121    27346.381     8545.456       11.275        3.778      387.262      102.407        0.070      339.909       13.563      861.752
03/28/2014  14:55:00     -367.380      -90.668        5.873      212.441      156.231       92.131    45131.336    24408.053     8488.061       11.061        3.901      378.403      114.559        0.092      339.587       13.019      861.737
03/28/2014  14:56:00     -437.789     -296.801      -15.044      232.031      186.807       97.570    53838.260    34896.976     9519.835       18.910        4.913      528.914      111.826        0.045      339.452       12.792      861.696
03/28/2014  14:57:00     -423.252      -78.687      -18.563      301.692      179.454       93.364    91018.139    32203.862     8716.755       15.878        6.597      430.504      133.683        0.096      339.525       12.915      861.647
03/28/2014  14:58:00     -338.090     -165.656       -5.810      234.383      203.187       95.818    54935.434    41284.902     9181.000       12.357        5.270      376.493      106.126        0.079      339.863       13.484      861.664
03/28/2014  14:59:00     -417.685     -275.769      -16.010      210.516      232.603      113.463    44316.963    54104.226    12873.923       18.101        5.565      500.509      119.732        0.057      339.766       13.321      861.724
03/28/2014  15:00:00     -237.335     -134.095        3.420      188.638      106.291       71.298    35584.426    11297.776     5083.423        6.313        2.598      272.597       87.962        0.104      339.983       13.687      861.768
03/28/2014  15:01:00     -388.161     -160.505      -12.310      217.003      117.153       73.258    47090.204    13724.730     5366.785       12.137        3.309      420.036       93.115        0.049      339.879       13.510      861.754
03/28/2014  15:02:00     -347.796     -174.016      -10.360      133.418      150.774       73.498    17800.345    22732.921     5401.956        9.863        2.297      388.900       78.428        0.041      339.884       13.521      861.735
03/28/2014  15:03:00     -255.492     -193.415       -9.802      233.918      125.270       76.004    54717.567    15692.556     5776.670        8.947        3.809      320.446       91.467        0.081      339.780       13.345      861.748
03/28/2014  15:04:00     -310.754     -212.865      -16.917      156.573      197.822       75.110    24515.174    39133.425     5641.482       10.571        3.465      376.669       70.230        0.035      339.589       13.022      861.738
03/28/2014  15:05:00     -140.037     -203.938       -0.732      164.314      160.920       71.585    26999.041    25895.355     5124.373        5.960        2.901      247.389       67.902        0.075      339.799       13.375      861.762
03/28/2014  15:06:00     -333.209     -255.825        8.230      199.649      188.604       87.864    39859.631    35571.374     7720.164       12.983        4.158      420.089       76.270        0.033      339.735       13.269      861.773
03/28/2014  15:07:00     -350.388     -237.828        0.092      172.378      153.786       81.576    29714.096    23650.244     6654.686       11.966        3.001      423.478       87.677        0.043      339.742       13.281      861.721
03/28/2014  15:08:00      -81.179     -162.921       10.020      105.057       92.055       59.491    11037.057     8474.105     3539.232        2.814        1.153      182.026       60.067        0.109      339.957       13.645      861.727
03/28/2014  15:09:00     -178.467      -88.387        4.941       93.135       69.547       51.842     8674.087     4836.759     2687.557        2.794        0.810      199.155       45.851        0.053      339.985       13.689      861.713
03/28/2014  15:10:00     -348.270     -161.223      -12.768      191.359      202.122       93.576    36618.195    40853.172     8756.522       11.682        4.311      383.777       99.387        0.067      339.864       13.485      861.706
03/28/2014  15:11:00     -396.082     -231.166      -11.039      202.282      139.928       98.681    40917.887    19579.790     9737.873       14.032        3.512      458.605      108.539        0.056      339.766       13.321      861.672
03/28/2014  15:12:00     -311.768     -244.570        0.731      214.461      141.400       86.653    45993.532    19994.061     7508.686       11.524        3.675      396.249       86.391        0.048      339.662       13.146      861.689
03/28/2014  15:13:00     -470.839     -290.734      -13.863      210.851      170.159      101.146    44457.957    28954.201    10230.510       19.501        4.182      553.367      109.067        0.039      339.520       12.906      861.706
03/28/2014  15:14:00     -340.321     -148.590       -0.451      180.831      157.617       81.862    32699.967    24843.219     6701.319       10.106        3.212      371.345       78.458        0.045      339.584       13.014      861.710
03/28/2014  15:15:00     -250.513     -151.192      -10.905      146.198      118.315       60.998    21373.725    13998.535     3720.714        6.241        1.955      292.602       69.268        0.056      339.486       12.848      861.720
03/28/2014  15:16:00     -216.002     -214.591        0.682      103.496      125.986       62.267    10711.446    15872.556     3877.164        6.158        1.523      304.476       64.283        0.045      339.400       12.703      861.686
03/28/2014  15:17:00     -139.786     -133.758        4.057      126.967       98.058       55.557    16120.642     9615.347     3086.600        3.313        1.441      193.472       41.205        0.045      339.700       13.211      861.676
03/28/2014  15:18:00     -394.441     -264.307      -17.309      178.015      164.269       93.337    31689.371    26984.269     8711.827       14.655        3.369      474.807       80.027        0.028      339.747       13.288      861.657
03/28/2014  15:19:00     -292.935     -118.987       -0.397      161.532      118.425       65.800    26092.464    14024.414     4329.633        7.220        2.222      316.179       75.018        0.056      339.818       13.410      861.620
03/28/2014  15:20:00     -372.950     -112.982       -5.823      269.294      199.135       99.296    72519.355    39654.584     9859.621       13.694        6.102      389.688       97.809        0.063      339.717       13.237      861.575
03/28/2014  15:21:00     -377.824     -298.261       -1.152      195.322      194.378       97.987    38150.870    37782.738     9601.408       15.861        4.277      481.364      103.207        0.046      339.527       12.917      861.604
03/28/2014  15:22:00     -399.057     -236.168       -1.860      203.630      126.912       87.694    41464.998    16106.711     7690.207       14.013        3.263      463.704       99.924        0.046      339.455       12.797      861.618
03/28/2014  15:23:00     -335.272      -94.542      -20.843      172.818      182.734       65.616    29866.234    33391.567     4305.486        9.466        3.378      348.347       67.446        0.037      339.591       13.026      861.596
03/28/2014  15:24:00     -385.883     -285.678       -0.433      176.661      146.663       91.104    31209.202    21509.940     8299.937       14.576        3.051      480.122       88.716        0.034      339.567       12.984      861.586
03/28/2014  15:25:00     -354.662     -255.472      -22.390      174.849      152.417       83.875    30572.027    23231.031     7035.057       12.618        3.042      437.094       84.718        0.038      339.568       12.986      861.611
03/28/2014  15:26:00     -289.812     -175.992      -14.503      163.150      120.450       60.919    26618.004    14508.221     3711.086        8.000        2.242      339.064       71.778        0.045      339.658       13.138      861.625
03/28/2014  15:27:00     -215.007      -81.288       -7.389       89.490       64.959       48.801     8008.416     4219.718     2381.507        3.375        0.730      229.861       49.678        0.047      339.603       13.046      861.621
03/28/2014  15:28:00     -185.368      -96.373        4.866      105.328      105.355       55.823    11093.891    11099.773     3116.240        3.449        1.265      208.924       62.924        0.091      339.655       13.136      861.584
03/28/2014  15:29:00     -148.182     -154.574       -0.028       91.845       99.178       49.897     8435.499     9836.277     2489.713        3.330        1.038      214.128       49.281        0.053      339.646       13.118      861.565
03/28/2014  15:30:00     -307.790      -19.456      -17.280      205.683      119.843       67.569    42305.626    14362.261     4565.563        7.831        3.062      308.404       80.850        0.069      339.752       13.300      861.527
03/28/2014  15:31:00     -328.403      -26.738       -9.292      203.667      219.499       96.909    41480.448    48179.611     9391.301       10.383        4.953      329.490      107.957        0.107      339.727       13.257      861.482
03/28/2014  15:32:00     -389.782     -126.721      -10.669      221.588      146.823      103.603    49101.311    21557.054    10733.674       12.473        4.070      409.863       97.112        0.056      339.586       13.019      861.455
03/28/2014  15:33:00     -362.836     -143.583        1.168      186.428      173.244       94.386    34755.522    30013.553     8908.784       11.296        3.684      390.213      101.227        0.067      339.546       12.950      861.489
03/28/2014  15:34:00     -348.148     -215.408       -0.574      141.288      115.996       75.368    19962.315    13455.030     5680.359       10.334        1.955      409.399       75.890        0.034      339.406       12.715      861.492
03/28/2014  15:35:00     -288.447      -60.229        1.942      125.888      108.078       70.367    15847.706    11680.893     4951.554        5.965        1.624      294.668       75.635        0.066      339.582       13.011      861.485
03/28/2014  15:36:00     -236.667     -113.497        0.771      130.549      118.979       68.756    17043.147    14156.118     4727.449        5.240        1.796      262.474       67.333        0.066      339.719       13.243      861.489
03/28/2014  15:37:00     -375.142      -70.923       -8.965      199.880      138.657       87.496    39951.878    19225.689     7655.571       10.632        3.342      381.787       99.575        0.068      339.627       13.086      861.497
03/28/2014  15:38:00     -311.935     -187.949      -11.276      198.648      107.554       71.867    39460.918    11567.893     5164.916        9.446        2.810      364.182       81.550        0.050      339.498       12.870      861.510
03/28/2014  15:39:00     -211.030     -163.746       15.866      156.274      105.937       71.249    24421.539    11222.722     5076.366        5.615        2.036      267.107       86.239        0.104      339.588       13.022      861.500
03/28/2014  15:40:00     -244.047     -209.796       10.589      179.287      133.079       85.632    32143.933    17710.041     7332.860        8.042        2.859      321.828      104.226        0.105      339.674       13.166      861.485
03/28/2014  15:41:00     -122.613      -36.659       35.502      191.121      127.633       84.007    36527.071    16290.158     7057.250        3.874        2.994      127.976       99.076        0.599      339.755       13.305      861.463
03/28/2014  15:42:00     -106.980       84.398       -3.713       93.172      116.707       53.448     8680.964    13620.426     2856.724        2.186        1.258      136.264       30.925        0.052      339.545       12.950      861.440
03/28/2014  15:43:00     -155.187      162.379      -30.728       76.709      140.070       45.488     5884.213    19619.589     2069.132        3.948        1.379      224.611       33.884        0.023      339.363       12.643      861.388
03/28/2014  15:44:00      -82.274       52.157      -14.829       92.314       71.145       46.047     8521.906     5061.655     2120.324        1.270        0.785       97.413       52.009        0.285      339.613       13.067      861.316
03/28/2014  15:45:00       34.217       31.141       20.912       77.522       62.349       46.848     6009.626     3887.427     2194.749        0.733        0.605       46.267       37.870        0.670      339.862       13.485      861.207
03/28/2014  15:46:00       68.888     -264.306      -45.255       98.903       98.061       56.798     9781.846     9615.990     3226.001        4.963        1.131      273.136       51.590        0.036      339.799       13.376      861.202
03/28/2014  15:47:00       32.105     -188.913      -11.269       91.230      128.585       67.309     8322.854    16533.998     4530.558        3.311        1.469      191.622       67.983        0.126      339.949       13.629      861.320
03/28/2014  15:48:00      -17.566     -122.328       -1.441       75.712       76.814       50.534     5732.343     5900.317     2553.672        1.473        0.709      123.583       36.914        0.089      340.091       13.871      861.413
03/28/2014  15:49:00      121.621     -212.700      -20.891      159.837      150.815       91.411    25547.842    22745.266     8355.907        5.855        2.832      245.016       69.030        0.079      339.870       13.496      861.424
03/28/2014  15:50:00       40.424     -159.027      -20.424      158.759       72.933       53.509    25204.422     5319.173     2863.185        3.036        1.669      164.084       40.841        0.062      339.768       13.326      861.450
03/28/2014  15:51:00     -113.585     -168.488       -0.907      132.324      133.645       52.640    17509.533    17861.009     2770.990        3.971        1.907      203.199       44.847        0.049      339.760       13.310      861.456
03/28/2014  15:52:00      -21.970      -76.109        7.407       88.687       72.680       51.968     7865.458     5282.401     2700.646        1.109        0.792       79.216       37.488        0.224      339.751       13.299      861.455
03/28/2014  15:53:00      -20.212     -153.060       -1.794       95.183      112.119       54.795     9059.807    12570.701     3002.513        2.423        1.232      154.389       34.891        0.051      340.009       13.732      861.421
03/28/2014  15:54:00      -60.798      -81.544       17.998       70.925       91.125       33.201     5030.425     8303.729     1102.338        1.255        0.722      101.714       41.894        0.170      340.000       13.717      861.422
03/28/2014  15:55:00      -55.039      -83.884        8.891       80.714       75.820       51.309     6514.670     5748.711     2632.590        1.252        0.745      100.329       52.179        0.270      340.114       13.911      861.429
03/28/2014  15:56:00        9.652      -55.182       51.313       92.812       91.293       57.565     8614.053     8334.481     3313.696        1.301        1.013       56.020       57.722        1.062      340.090       13.871      861.414
03/28/2014  15:57:00      -21.629      -98.786       30.279      108.881      104.595       83.578    11854.972    10940.186     6985.362        2.046        1.489      101.127       64.966        0.413      339.958       13.648      861.395
03/28/2014  15:58:00      -17.232     -116.869      -12.918       65.683       95.028       68.932     4314.199     9030.272     4751.608        1.611        0.905      118.133       63.808        0.292      340.057       13.814      861.407
03/28/2014  15:59:00      -88.641     -105.599       -9.770       55.157       69.285       37.582     3042.246     4800.476     1412.416        1.418        0.463      137.870       27.748        0.041      340.126       13.930      861.444
03/28/2014  16:00:00     -105.264     -164.576      -20.097       81.884       86.027       45.373     6705.019     7400.656     2058.710        2.736        0.808      195.361       29.707        0.023      339.844       13.453      861.503
03/28/2014  16:01:00     -124.858     -160.218       -4.394       79.273       99.091       52.793     6284.285     9819.120     2787.120        3.008        0.945      203.124       54.686        0.072      339.706       13.221      861.529
03/28/2014  16:02:00      -90.771     -255.963      -25.043      135.269      110.821       48.907    18297.662    12281.363     2391.891        5.367        1.649      271.581       23.703        0.008      339.839       13.442      861.521
03/28/2014  16:03:00     -264.888     -197.993      -17.975      194.855      174.862       77.147    37968.412    30576.854     5951.706        9.208        3.725      330.706       94.147        0.081      339.858       13.477      861.526
03/28/2014  16:04:00     -429.968     -299.112      -12.418      187.938      170.574       82.560    35320.718    29095.514     6816.155       17.285        3.562      523.775       71.278        0.019      339.492       12.860      861.482
03/28/2014  16:05:00     -462.269     -429.945      -24.216      194.518      220.257       87.101    37837.377    48513.310     7586.661       24.652        4.697      631.304       81.315        0.017      339.383       12.675      861.427
03/28/2014  16:06:00     -362.655     -214.626        2.949      235.489      163.205       90.188    55455.101    26635.979     8133.917       13.389        4.511      421.406       92.309        0.048      339.620       13.076      861.400
03/28/2014  16:07:00     -193.514     -218.715       16.764      188.351      149.418       91.086    35475.933    22325.683     8296.645        7.582        3.305      292.034      101.987        0.122      339.523       12.912      861.420
03/28/2014  16:08:00     -284.118     -230.790        4.492      179.779      111.605       85.782    32320.492    12455.677     7358.544        9.306        2.607      366.042       82.530        0.051      339.628       13.089      861.409
03/28/2014  16:09:00     -320.135     -144.884      -30.209      169.101       90.903       62.676    28595.007     8263.346     3928.305        8.258        2.039      351.394       64.081        0.033      339.525       12.915      861.440
03/28/2014  16:10:00     -153.470      -74.296       14.611      142.808      116.923       53.268    20394.156    13670.965     2837.532        3.309        1.845      170.508       68.277        0.160      339.751       13.297      861.407
03/28/2014  16:11:00     -316.755     -138.086      -16.129      138.420      133.627       81.257    19159.987    17856.164     6602.742        8.163        2.181      345.546       77.968        0.051      339.553       12.962      861.373
03/28/2014  16:12:00     -268.319     -187.966        0.793      198.737      134.117       66.866    39496.399    17987.265     4471.015        8.463        3.098      327.607       81.335        0.062      339.744       13.287      861.336
03/28/2014  16:13:00     -378.986     -130.373       -1.412      188.526      149.291       83.817    35541.925    22287.855     7025.241       11.273        3.243      400.784       83.403        0.043      339.674       13.165      861.362
03/28/2014  16:14:00     -352.244      -53.290      -16.355      159.165       92.870       50.921    25333.575     8624.916     2592.950        8.186        1.828      356.253       41.707        0.014      339.366       12.647      861.425
03/28/2014  16:15:00     -263.027     -227.249        5.612      198.401      122.267       98.296    39362.917    14949.292     9662.035        9.240        3.199      347.599      111.094        0.102      339.659       13.141      861.428
03/28/2014  16:16:00     -165.770      -96.913        1.196      134.661      113.306       58.250    18133.624    12838.269     3393.027        3.561        1.718      192.020       62.126        0.105      339.866       13.491      861.473
03/28/2014  16:17:00     -254.461     -235.618        2.102      181.475      147.206       89.673    32933.056    21669.701     8041.323        9.144        3.132      346.794      101.395        0.085      339.530       12.922      861.497
03/28/2014  16:18:00     -260.083     -109.859       -0.652      214.825      148.054       92.326    46149.611    21919.891     8524.114        7.814        3.830      282.333      108.518        0.148      339.560       12.974      861.505
03/28/2014  16:19:00     -272.087     -107.900      -20.714      117.032      113.699       56.458    13696.499    12927.471     3187.532        5.795        1.491      292.701       45.133        0.024      339.578       13.004      861.540
03/28/2014  16:20:00     -183.467     -104.920      -10.123       80.220       97.611       37.285     6435.237     9527.892     1390.140        3.106        0.868      211.349       26.624        0.016      339.424       12.745      861.546
03/28/2014  16:21:00      -26.593      -50.938        7.726       60.944       70.040       32.957     3714.140     4905.664     1086.159        0.653        0.485       57.462       23.521        0.168      339.490       12.859      861.532
03/28/2014  16:22:00      -56.708      -34.008        9.847       82.069       69.537       41.331     6735.293     4835.425     1708.285        0.887        0.664       66.124       43.900        0.441      339.566       12.986      861.519
03/28/2014  16:23:00       -5.598       18.333       23.356       36.939       41.102       31.451     1364.500     1689.382      989.187        0.248        0.202       19.169       25.497        1.769      339.708       13.227      861.476
03/28/2014  16:24:00      -29.407      -23.278       32.623       42.294       50.045       28.684     1788.767     2504.516      822.790        0.379        0.256       37.506       20.923        0.311      339.969       13.667      861.438
03/28/2014  16:25:00      117.186      -92.057       26.793      127.972      156.975      104.675    16376.770    24641.130    10956.958        3.744        2.599      149.020      127.028        0.727      339.580       13.008      861.435
03/28/2014  16:26:00      126.472     -214.633       10.031      159.776      179.403      109.555    25528.324    32185.447    12002.263        6.593        3.486      249.123      136.011        0.298      339.510       12.891      861.421
03/28/2014  16:27:00       80.636     -165.782      -12.661       93.645      116.747       63.694     8769.406    13629.826     4056.902        3.030        1.323      184.352       62.632        0.115      339.693       13.199      861.429
03/28/2014  16:28:00      -31.563      -46.966       69.157       77.169       91.731       52.821     5955.078     8414.639     2790.060        1.257        0.858       56.587       38.950        0.474      339.908       13.565      861.422
03/28/2014  16:29:00       28.616     -125.997       -8.316      117.572       86.880       61.449    13823.070     7548.215     3775.925        2.095        1.257      129.206       55.882        0.187      339.805       13.390      861.419
03/28/2014  16:30:00       77.956     -169.949      -17.543       72.606       83.958       58.293     5271.657     7048.888     3398.069        2.549        0.786      186.975       45.421        0.059      339.728       13.259      861.406
03/28/2014  16:31:00       11.762       45.378      110.256       77.816       72.326       61.922     6055.379     5231.004     3834.325        1.473        0.756       46.878       49.063        1.095      339.785       13.355      861.332
03/28/2014  16:32:00       38.232      -98.807        1.765       78.633      113.953       85.714     6183.209    12985.381     7346.831        1.887        1.326      105.945       80.566        0.578      339.693       13.200      861.305
03/28/2014  16:33:00     -121.051     -142.511       -6.698       97.917       76.797       49.173     9587.669     5897.802     2418.006        2.645        0.895      186.983       33.110        0.031      339.840       13.447      861.319
03/28/2014  16:34:00     -255.960     -131.903        5.384      180.994      155.924       92.173    32759.001    24312.228     8495.834        7.424        3.278      287.948       94.506        0.108      339.312       12.556      861.289
03/28/2014  16:35:00       36.520      -98.080       -2.789      152.959      103.394       61.439    23396.429    10690.365     3774.715        2.440        1.893      104.659       22.271        0.045      339.511       12.894      861.278
03/28/2014  16:36:00      116.621     -144.253        2.596      147.022      135.769       79.112    21615.567    18433.152     6258.698        4.035        2.315      185.497       86.906        0.219      339.550       12.958      861.264
03/28/2014  16:37:00       99.145     -159.300       -1.864      107.828      163.686      112.704    11626.906    26793.194    12702.217        4.316        2.556      187.633       94.107        0.252      339.519       12.908      861.227
03/28/2014  16:38:00      -67.739      -58.764       -8.446      105.393       84.247       49.243    11107.603     7097.583     2424.882        1.437        1.032       89.676       40.733        0.206      339.791       13.363      861.236
03/28/2014  16:39:00       71.462      -22.454       28.629       49.249      112.946       43.966     2425.447    12756.906     1933.006        1.177        0.856       74.907       53.128        0.503      339.810       13.397      861.198
03/28/2014  16:40:00      122.710      -90.928       38.109      124.542      194.791      113.271    15510.617    37943.343    12830.348        4.552        3.314      152.727      139.751        0.837      339.801       13.381      861.138
03/28/2014  16:41:00       19.389      -29.337      128.099       97.795      182.462      123.878     9563.803    33292.357    15345.759        3.791        2.910       35.165      137.640       15.320      339.776       13.338      861.087
03/28/2014  16:42:00       10.468      -24.968       78.963       46.996       91.133       53.592     2208.650     8305.301     2872.057        1.017        0.669       27.074       45.735        2.854      339.939       13.615      861.097
03/28/2014  16:43:00      -12.072      -30.686       68.041       95.902      111.036       74.143     9197.236    12329.026     5497.236        1.636        1.351       32.975       67.948        4.246      339.940       13.617      861.068
03/28/2014  16:44:00       36.703      -97.763       33.604       82.756      117.445       74.016     6848.522    13793.392     5478.343        1.907        1.306      104.426       60.454        0.335      339.986       13.695      861.070
03/28/2014  16:45:00       91.890      -73.177       60.066      104.795      160.040       83.633    10982.027    25612.745     6994.448        3.049        2.179      117.468       92.560        0.621      339.911       13.566      861.100
03/28/2014  16:46:00      122.349     -169.193       12.363      115.345      122.636       66.388    13304.521    15039.508     4407.417        3.824        1.638      208.796       67.143        0.103      339.704       13.218      861.104
03/28/2014  16:47:00       34.550      -56.170       54.816      103.253      140.394       98.399    10661.272    19710.363     9682.280        2.370        2.003       65.945       83.457        1.602      339.871       13.499      861.085
03/28/2014  16:48:00      -10.937      -53.166       51.258      112.996      124.093       57.390    12768.120    15399.041     3293.593        1.851        1.573       54.279       59.932        1.219      339.945       13.625      861.083
03/28/2014  16:49:00      100.083      -91.186       19.386       98.088      119.426       85.013     9621.319    14262.473     7227.261        2.490        1.556      135.394       74.420        0.302      339.465       12.815      861.083
03/28/2014  16:50:00       60.963     -115.530       30.125       97.518      128.866       97.865     9509.762    16606.379     9577.594        2.683        1.785      130.628       85.750        0.431      339.628       13.090      861.059
03/28/2014  16:51:00       39.534     -190.967       20.401       94.280      117.543       95.579     8888.647    13816.290     9135.290        3.514        1.592      195.016       75.015        0.148      339.715       13.237      861.064
03/28/2014  16:52:00      -34.158     -143.641      -18.583      106.426      127.295       66.624    11326.536    16203.939     4438.790        2.705        1.598      147.647       62.492        0.179      339.915       13.573      861.107
03/28/2014  16:53:00      -48.845     -113.149       21.492      110.702      105.523       66.918    12254.926    11135.191     4478.081        2.175        1.393      123.242       59.472        0.233      339.754       13.302      861.143
03/28/2014  16:54:00      -55.949     -135.654       -5.641       90.627      102.314       56.130     8213.309    10468.250     3150.549        2.169        1.092      146.739       21.750        0.022      339.692       13.199      861.144
03/28/2014  16:55:00     -117.023     -104.690       12.582      115.430       77.693       51.080    13324.156     6036.153     2609.213        2.339        1.098      157.017       44.916        0.082      339.390       12.689      861.135
03/28/2014  16:56:00      -60.831      -73.174        4.150      115.175       75.698       59.616    13265.392     5730.198     3554.074        1.581        1.127       95.157       36.168        0.144      339.629       13.092      861.142
03/28/2014  16:57:00      126.522     -120.464       -2.439      133.692      150.057       75.331    17873.453    22517.238     5674.744        3.829        2.303      174.698       89.418        0.262      339.679       13.175      861.118
03/28/2014  16:58:00       46.476      -46.751       72.005       77.976      149.561      100.566     6080.295    22368.425    10113.440        2.404        1.928       65.922      111.418        2.857      339.638       13.107      861.091
03/28/2014  16:59:00       -7.538      -14.240       54.953       66.298      119.087       81.905     4395.432    14181.779     6708.401        1.428        1.264       16.112       80.735       25.109      339.940       13.618      861.102
03/28/2014  17:00:00      -79.252      -45.094        0.457       53.159       48.690       24.887     2825.911     2370.730      619.382        0.706        0.291       91.183       18.260        0.040      340.041       13.789      861.136
03/28/2014  17:01:00      -12.216      -78.705        8.839       76.405       62.363       42.232     5837.763     3889.114     1783.518        0.896        0.576       79.647       32.844        0.170      339.986       13.696      861.139
03/28/2014  17:02:00      -37.488     -193.037      -21.955       91.445       89.239       58.926     8362.164     7963.583     3472.224        2.947        0.990      196.643       43.132        0.048      339.848       13.461      861.162
03/28/2014  17:03:00      -44.166     -105.939       -5.338       70.284       48.680       41.560     4939.890     2369.781     1727.201        1.112        0.452      114.777       38.187        0.111      339.656       13.138      861.171
03/28/2014  17:04:00      -20.743       -7.878       14.922       46.905       40.234       26.564     2200.077     1618.749      705.671        0.262        0.226       22.188       28.935        1.701      340.162       13.993      861.187
03/28/2014  17:05:00     -131.513     -134.822       19.660      131.667       80.211       53.287    17336.273     6433.836     2839.508        3.123        1.330      188.342       56.946        0.091      339.858       13.478      861.188
03/28/2014  17:06:00     -112.260     -102.926       16.257       93.139       69.768       42.058     8674.891     4867.616     1768.884        1.938        0.766      152.302       40.532        0.071      339.867       13.493      861.197
03/28/2014  17:07:00     -110.057      -47.583       33.550      122.171       86.571       47.730    14925.653     7494.566     2278.154        2.010        1.235      119.903       50.859        0.180      339.784       13.354      861.176
03/28/2014  17:08:00      -18.211      -24.520       19.731       94.717       78.638       45.541     8971.248     6183.926     2074.003        0.927        0.861       30.543       38.253        1.569      339.844       13.454      861.186
03/28/2014  17:09:00       -6.599      -10.077       51.241       87.751       74.518       51.403     7700.198     5552.861     2642.225        0.933        0.795       12.045       41.950       12.129      339.942       13.620      861.169
03/28/2014  17:10:00       15.117      -91.649       24.872      117.159      151.099       83.854    13726.227    22830.985     7031.435        2.641        2.179       92.888       89.261        0.923      339.815       13.406      861.134
03/28/2014  17:11:00      -15.513      -74.304        1.510       73.154       82.514       56.527     5351.486     6808.631     3195.283        1.056        0.768       75.906       40.810        0.289      339.780       13.347      861.122
03/28/2014  17:12:00        3.724      -97.684       26.635      100.996      126.077       75.244    10200.244    15895.474     5661.693        2.101        1.588       97.755       72.138        0.545      339.721       13.248      861.083
03/28/2014  17:13:00       18.237        4.197       99.261      101.381      145.642       68.061    10278.040    21211.476     4632.355        2.316        1.806       18.714       91.329       23.817      339.655       13.137      861.043
03/28/2014  17:14:00       -2.801     -110.116       25.066       86.032       90.932       71.985     7401.559     8268.590     5181.789        1.680        1.043      110.151       60.673        0.303      339.727       13.259      861.041
03/28/2014  17:15:00      -15.745     -185.711        2.289      134.113      156.835       55.569    17986.377    24597.112     3087.902        4.020        2.284      186.377       62.322        0.112      339.498       12.871      861.082
03/28/2014  17:16:00       -9.479      -36.728       19.592       63.254       61.916       54.272     4001.023     3833.578     2945.462        0.630        0.539       37.931       28.660        0.571      339.676       13.173      861.064
03/28/2014  17:17:00      -32.604      -47.518       26.977       57.187       89.190       55.123     3270.345     7954.780     3038.550        0.915        0.713       57.628       57.697        1.002      339.812       13.401      861.033
03/28/2014  17:18:00        4.862      -96.951        4.807      113.341       86.954       47.150    12846.245     7561.016     2223.108        1.603        1.132       97.073       24.079        0.062      339.651       13.129      861.041
03/28/2014  17:19:00      -35.813     -181.465        1.370       71.228      117.812       52.108     5073.417    13879.637     2715.279        2.794        1.083      184.966       31.780        0.030      339.626       13.085      861.038
03/28/2014  17:20:00     -110.962     -110.448       -3.862       88.424      117.440       52.721     7818.878    13792.235     2779.480        2.445        1.220      156.562       38.701        0.061      339.756       13.306      861.079
03/28/2014  17:21:00     -190.387     -181.247       -9.167      114.223      155.678       69.857    13046.991    24235.589     4879.981        5.566        2.108      262.864       71.998        0.075      339.490       12.854      861.126
03/28/2014  17:22:00     -109.964      -91.332        3.685       91.911       90.686       47.969     8447.647     8223.946     2301.022        1.971        0.949      142.946       41.271        0.083      339.705       13.220      861.130
03/28/2014  17:23:00     -165.499     -129.258       11.807      153.149      103.519       58.485    23454.557    10716.085     3420.465        4.091        1.880      209.994       67.613        0.104      339.611       13.062      861.167
03/28/2014  17:24:00     -357.065     -160.533        0.677       89.668       94.993       60.240     8040.334     9023.637     3628.830        8.698        1.035      391.492       50.864        0.017      339.035       12.090      861.154
03/28/2014  17:25:00     -294.303      -52.047      -20.625      103.729       73.269       45.805    10759.603     5368.374     2098.104        5.398        0.911      298.870       48.636        0.026      339.169       12.314      861.143
03/28/2014  17:26:00     -163.180      -67.099       -5.383       74.802      105.458       39.233     5595.273    11121.458     1539.224        2.470        0.913      176.437       33.228        0.035      339.329       12.585      861.155
03/28/2014  17:27:00      -64.056      -58.919        2.734       61.512       78.385       36.294     3783.744     6144.262     1317.289        0.941        0.562       87.033       34.004        0.153      339.322       12.576      861.169
03/28/2014  17:28:00      -89.974      -55.048        7.468       58.941       50.836       32.494     3474.035     2584.268     1055.837        0.915        0.356      105.478       20.563        0.038      339.378       12.671      861.177
03/28/2014  17:29:00     -106.544      -63.669       11.830      101.826       59.263       43.472    10368.557     3512.058     1889.780        1.565        0.789      124.118       50.182        0.163      339.390       12.690      861.170
03/28/2014  17:30:00      -70.506      -29.018       10.194       76.864       60.804       38.583     5908.069     3697.093     1488.652        0.850        0.555       76.244       38.460        0.254      339.647       13.122      861.183
03/28/2014  17:31:00      -26.234      -75.015       14.240       94.440       87.245       46.827     8918.934     7611.657     2192.781        1.262        0.936       79.470       45.903        0.334      339.815       13.406      861.186
03/28/2014  17:32:00     -102.365      -82.635       -6.283       48.677       47.812       33.860     2369.413     2285.972     1146.477        1.157        0.290      131.557       26.357        0.040      339.502       12.880      861.147
03/28/2014  17:33:00      -40.004      -61.701      -18.136       55.994       47.057       33.714     3135.316     2214.369     1136.620        0.611        0.324       73.534       32.794        0.199      339.476       12.835      861.106
03/28/2014  17:34:00      -48.667     -108.005       -8.341       64.031       44.142       32.154     4100.006     1948.508     1033.886        1.059        0.354      118.463       23.242        0.038      339.409       12.722      861.093
03/28/2014  17:35:00      -68.315      -11.796      -16.190       57.137       54.736       23.426     3264.670     2996.051      548.791        0.594        0.340       69.326       17.009        0.060      339.301       12.540      861.082
03/28/2014  17:36:00     -202.231      -42.498      -16.328       80.532       71.257       36.652     6485.412     5077.515     1343.358        2.794        0.645      206.648       32.556        0.025      339.571       12.993      861.069
03/28/2014  17:37:00     -278.051      -52.743      -14.508       93.509       68.436       47.302     8743.840     4683.455     2237.439        4.798        0.783      283.009       43.699        0.024      339.337       12.598      861.066
03/28/2014  17:38:00     -382.975     -122.284        5.355      163.713      110.135       65.438    26801.842    12129.664     4282.093       10.242        2.161      402.024       77.507        0.037      339.324       12.575      861.084
03/28/2014  17:39:00     -334.622     -126.081      -11.589      149.052      126.429       69.628    22216.582    15984.200     4848.021        8.552        2.152      357.587       72.524        0.041      339.074       12.155      861.087
03/28/2014  17:40:00     -181.833      -41.739       -1.778      103.383      104.096       55.392    10688.136    10835.917     3068.302        2.970        1.230      186.562       58.640        0.099      339.387       12.683      861.070
03/28/2014  17:41:00     -258.095      -23.110      -13.225       96.632       94.400       60.201     9337.753     8911.382     3624.204        4.459        1.094      259.127       55.394        0.046      339.240       12.435      861.056
03/28/2014  17:42:00     -221.869      -34.754        5.513      147.126       85.627       69.575    21645.984     7331.901     4840.722        4.213        1.691      224.574       77.368        0.119      339.217       12.398      861.043
03/28/2014  17:43:00     -153.446      -53.808       12.611       98.826       92.202       50.419     9766.585     8501.250     2542.037        2.370        1.040      162.607       57.442        0.125      339.211       12.387      861.023
03/28/2014  17:44:00     -174.112      -15.739      -15.258       88.279       78.830       43.420     7793.239     6214.208     1885.265        2.334        0.795      174.821       42.076        0.058      339.303       12.541      860.989
03/28/2014  17:45:00     -317.975     -104.868      -26.327      154.689      161.835       66.979    23928.747    26190.514     4486.166        8.369        2.730      334.822       74.615        0.050      339.134       12.257      860.947
03/28/2014  17:46:00     -298.831      -15.433      -16.645      157.713      101.512       60.774    24873.287    10304.670     3693.456        6.434        1.944      299.230       70.202        0.055      339.339       12.602      860.919
03/28/2014  17:47:00     -275.623      -60.344       -8.692      111.367       76.511       48.359    12402.562     5853.950     2338.612        5.014        1.030      282.151       43.297        0.024      339.322       12.574      860.914
03/28/2014  17:48:00     -306.990      -31.617       -6.130      125.947      133.111       60.470    15862.628    17718.473     3656.583        6.625        1.862      308.613       59.481        0.037      339.254       12.457      860.914
03/28/2014  17:49:00      -88.708      -87.097       27.582      121.936      102.535       62.694    14868.510    10513.453     3930.575        2.276        1.466      124.318       63.311        0.259      339.333       12.593      860.916
03/28/2014  17:50:00     -262.456     -147.548       -4.339      200.700      130.925       81.018    40280.671    17141.431     6563.887        7.732        3.199      301.087       88.231        0.086      339.104       12.203      860.885
03/28/2014  17:51:00     -256.443     -195.261       -1.731      168.281      143.602       92.175    28318.416    20621.557     8496.166        8.065        2.872      322.320       93.799        0.085      339.076       12.159      860.874
03/28/2014  17:52:00     -332.220     -179.424        4.259      149.037      132.703       77.737    22212.089    17610.138     6043.062        9.421        2.293      377.575       85.438        0.051      338.972       11.985      860.886
03/28/2014  17:53:00     -148.335     -130.372        6.697      118.225      102.079       64.751    13977.136    10420.219     4192.710        3.381        1.430      197.485       57.345        0.084      339.037       12.093      860.906
03/28/2014  17:54:00     -156.862     -112.830      -12.070       64.798       55.652       35.816     4198.729     3097.199     1282.755        2.303        0.429      193.226       34.699        0.032      339.074       12.157      860.895
03/28/2014  17:55:00     -133.021      -90.301        3.815      149.090       78.308       55.155    22227.875     6132.091     3042.125        2.863        1.570      160.776       73.142        0.207      339.222       12.406      860.880
03/28/2014  17:56:00     -165.002      -75.645      -10.549      116.423       85.732       48.665    13554.426     7350.011     2368.328        2.816        1.164      181.515       37.002        0.042      339.069       12.148      860.868
03/28/2014  17:57:00      -13.260      -27.191       21.599       87.128       87.125       44.120     7591.366     7590.689     1946.602        0.925        0.856       30.252       49.256        2.651      339.304       12.545      860.896
03/28/2014  17:58:00     -170.741     -146.035        3.789       99.904       80.075       53.833     9980.818     6412.066     2897.967        3.489        0.965      224.675       55.834        0.062      338.959       11.962      860.930
03/28/2014  17:59:00     -298.635     -180.013      -16.622      120.369      122.266       71.715    14488.800    14948.956     5142.990        7.822        1.729      348.694       73.194        0.044      338.926       11.905      860.969
03/28/2014  18:00:00     -202.998     -131.041       -3.656      126.055       98.652       52.625    15889.764     9732.178     2769.416        4.339        1.420      241.619       58.464        0.059      338.967       11.976      860.988
03/28/2014  18:01:00     -117.598     -209.402        2.909      105.952      107.362       65.023    11225.898    11526.547     4228.037        4.233        1.349      240.164       62.371        0.067      338.958       11.961      860.992
03/28/2014  18:02:00      -85.014     -175.027       -5.016      129.248       74.403       55.097    16705.024     5535.757     3035.640        3.158        1.264      194.581       61.899        0.101      338.978       11.994      860.978
03/28/2014  18:03:00     -185.516     -181.642      -13.990       82.427       78.143       52.667     6794.180     6106.344     2773.855        4.164        0.784      259.634       50.716        0.038      339.029       12.079      860.969
03/28/2014  18:04:00     -165.679     -120.772       -2.759       68.185       55.916       39.877     4649.198     3126.637     1590.137        2.570        0.468      205.026       40.118        0.038      339.131       12.253      860.960
03/28/2014  18:05:00     -117.814      -83.772       -2.517       78.910       96.139       36.199     6226.827     9242.793     1310.359        1.884        0.839      144.561       38.613        0.071      339.244       12.443      860.945
03/28/2014  18:06:00     -187.500     -115.309        0.048      123.181       82.978       58.685    15173.539     6885.292     3443.933        3.697        1.275      220.119       68.737        0.098      339.076       12.160      860.924
03/28/2014  18:07:00     -265.432     -161.753       -5.885      140.322      131.855       66.532    19690.282    17385.636     4426.571        6.907        2.075      310.835       65.955        0.045      338.996       12.025      860.921
03/28/2014  18:08:00     -169.673     -186.246      -15.819       79.870       64.153       40.800     6379.225     4115.660     1664.652        3.794        0.608      251.946       24.042        0.009      339.040       12.098      860.952
03/28/2014  18:09:00     -153.767      -84.442       -2.141      121.149       49.401       33.198    14677.023     2440.438     1102.139        2.450        0.911      175.427       32.109        0.034      339.211       12.387      860.977
03/28/2014  18:10:00      -49.902     -142.859       -7.492       76.904       40.718       27.975     5914.178     1657.977      782.592        1.565        0.418      151.324       16.579        0.012      339.268       12.483      860.995
03/28/2014  18:11:00      -82.938      -79.328       10.151       81.396       68.072       44.276     6625.266     4633.820     1960.355        1.324        0.661      114.767       41.105        0.128      339.275       12.497      860.987
03/28/2014  18:12:00      -82.048     -156.348       -4.573       62.795       57.131       36.751     3943.232     3263.950     1350.620        1.988        0.428      176.569       28.482        0.026      339.262       12.473      860.964
03/28/2014  18:13:00      -69.720      -64.748        0.395       61.054       57.244       40.637     3727.628     3276.856     1651.386        0.885        0.433       95.148       29.258        0.095      339.324       12.579      860.919
03/28/2014  18:14:00      -42.373     -113.316        1.669       91.869       86.711       50.768     8439.862     7518.857     2577.355        1.658        0.927      120.980       43.007        0.126      339.359       12.637      860.918
03/28/2014  18:15:00     -142.824     -209.984      -12.397      120.670      224.003       66.597    14561.302    50177.271     4435.208        6.690        3.459      253.953       81.229        0.102      339.339       12.603      860.937
03/28/2014  18:16:00     -142.945     -335.737      -16.762      202.546      228.723       93.888    41024.924    52314.318     8814.959       11.777        5.108      364.901       96.786        0.070      339.118       12.230      860.889
03/28/2014  18:17:00     -134.704     -202.471        6.992      136.185      177.592       78.979    18546.412    31539.023     6237.751        5.774        2.816      243.187       61.153        0.063      339.146       12.276      860.869
03/28/2014  18:18:00     -209.159     -186.378        2.832      177.997      125.749       73.008    31682.760    15812.923     5330.168        6.565        2.641      280.150       82.832        0.087      339.156       12.295      860.896
03/28/2014  18:19:00     -271.486     -153.725        6.207      164.144      123.286       73.191    26943.343    15199.375     5356.948        7.243        2.375      311.987       91.902        0.087      339.058       12.129      860.905
03/28/2014  18:20:00     -354.856     -191.113      -12.938      146.733      118.919       59.781    21530.446    14141.667     3573.772       10.092        1.962      403.047       65.357        0.026      339.006       12.040      860.893
03/28/2014  18:21:00     -255.604     -110.123       -8.112      117.445       96.374       51.259    13793.397     9288.003     2627.456        5.161        1.285      278.318       47.924        0.030      339.022       12.068      860.868
03/28/2014  18:22:00     -236.978     -124.594      -17.080      142.823      104.733       55.391    20398.412    10968.962     3068.176        5.320        1.722      267.736       71.190        0.071      339.011       12.051      860.888
03/28/2014  18:23:00     -239.306      -64.592        2.808      151.451       94.492       54.432    22937.551     8928.733     2962.835        4.813        1.741      247.870       47.235        0.036      338.970       11.982      860.882
03/28/2014  18:24:00     -293.525     -191.972        6.207      105.830       93.811       59.114    11199.951     8800.457     3494.462        7.327        1.175      350.728       65.684        0.035      338.937       11.925      860.891
03/28/2014  18:25:00     -117.433      -77.211        7.131       87.117       76.464       43.391     7589.342     5846.727     1882.746        1.756        0.766      140.542       48.529        0.119      339.051       12.118      860.886
03/28/2014  18:26:00      -68.245      -59.214        3.696       69.079       66.042       33.049     4771.868     4361.490     1092.262        0.920        0.511       90.353       33.759        0.140      339.079       12.165      860.871
03/28/2014  18:27:00      -69.602      -27.457        7.254       57.482       52.716       33.236     3304.157     2778.969     1104.661        0.642        0.359       74.822       36.169        0.234      339.089       12.184      860.867
03/28/2014  18:28:00      -28.436     -130.028        7.327       68.610       80.034       38.189     4707.371     6405.435     1458.382        1.517        0.629      133.101       34.100        0.066      339.097       12.196      860.864
03/28/2014  18:29:00      -80.330     -145.041        2.156       65.562       47.608       47.061     4298.318     2266.495     2214.750        1.814        0.439      165.801       35.677        0.046      339.033       12.089      860.899
03/28/2014  18:30:00     -151.255     -177.578      -27.672      122.720      100.023       63.303    15060.267    10004.536     4007.325        4.212        1.454      233.264       74.360        0.102      339.009       12.046      860.882
03/28/2014  18:31:00      -17.746     -108.118      -26.118       62.679      106.181       52.745     3928.657    11274.409     2782.081        1.533        0.899      109.565       47.485        0.188      339.090       12.183      860.832
03/28/2014  18:32:00      -70.008        9.937       22.112       64.176       88.584       53.015     4118.533     7847.170     2810.599        1.013        0.739       70.709       56.628        0.641      339.022       12.070      860.779
03/28/2014  18:33:00     -178.425     -137.547       -1.896      115.732       94.116       52.784    13394.003     8857.882     2786.167        3.789        1.252      225.287       46.972        0.043      339.094       12.188      860.832
03/28/2014  18:34:00     -174.313     -139.321        6.217      129.955      119.575       57.806    16888.259    14298.232     3341.485        4.217        1.726      223.149       57.915        0.067      339.031       12.084      860.880
03/28/2014  18:35:00     -217.773     -171.723      -13.081      151.288      106.912       63.051    22888.155    11430.254     3975.472        5.768        1.915      277.333       63.599        0.053      338.990       12.013      860.869
03/28/2014  18:36:00     -113.111      -78.378       -5.743      102.467       66.338       41.322    10499.532     4400.730     1707.506        1.779        0.830      137.612       53.222        0.150      339.002       12.036      860.846
03/28/2014  18:37:00      -57.138      -67.735       -1.956       42.305       61.103       30.355     1789.729     3733.616      921.447        0.715        0.322       88.616       27.211        0.094      338.987       12.011      860.776
03/28/2014  18:38:00      -54.459      -35.037        5.184       46.242       35.947       26.732     2138.307     1292.217      714.601        0.418        0.207       64.756       24.016        0.138      339.102       12.206      860.758
03/28/2014  18:39:00      -23.350      -27.936        1.378       34.620       30.904       15.153     1198.563      955.076      229.607        0.185        0.119       36.410       21.043        0.334      339.022       12.070      860.774
03/28/2014  18:40:00      -48.905      -12.198        3.093       48.685       17.981       21.065     2370.193      323.323      443.721        0.284        0.157       50.403       26.665        0.280      339.022       12.071      860.801
03/28/2014  18:41:00      -48.647      -62.900        3.137       45.176       33.794       24.415     2040.883     1142.037      596.069        0.506        0.189       79.517       21.976        0.076      339.149       12.284      860.845
03/28/2014  18:42:00      -51.755      -68.548       -7.049       50.015       52.427       30.899     2501.536     2748.541      954.740        0.681        0.310       85.892       25.071        0.085      339.175       12.328      860.862
03/28/2014  18:43:00     -149.443      -89.840        5.815       92.140       68.962       38.642     8489.819     4755.797     1493.202        2.259        0.737      174.369       32.701        0.035      339.168       12.314      860.910
03/28/2014  18:44:00     -160.260      -66.281        5.028      133.073       75.889       48.763    17708.436     5759.106     2377.841        2.797        1.292      173.426       52.144        0.090      339.107       12.212      860.955
03/28/2014  18:45:00     -300.882     -167.084       -2.415      122.647       95.884       58.937    15042.184     9193.805     3473.546        7.308        1.385      344.162       52.888        0.024      338.957       11.959      860.973
03/28/2014  18:46:00     -248.540      -50.341       -8.423      109.896       56.699       50.747    12077.170     3214.730     2575.265        4.112        0.893      253.587       53.259        0.044      338.900       11.863      860.964
03/28/2014  18:47:00     -125.200      -76.593       -7.315       61.023       65.187       34.350     3723.785     4249.336     1179.908        1.537        0.458      146.770       27.389        0.035      338.982       12.003      860.969
03/28/2014  18:48:00     -211.662     -121.573       -0.250      151.094      107.658       64.039    22829.547    11590.269     4101.006        4.904        1.926      244.092       68.126        0.078      338.954       11.955      860.912
03/28/2014  18:49:00     -145.605      -64.653       12.611       87.868      100.387       50.921     7720.853    10077.568     2592.983        2.296        1.020      159.314       53.928        0.115      339.021       12.067      860.853
03/28/2014  18:50:00     -191.437      -60.964       -0.182       91.219       93.653       50.719     8320.959     8770.900     2572.381        3.001        0.983      200.910       51.711        0.066      338.954       11.954      860.807
03/28/2014  18:51:00     -220.646      -70.562        4.830       94.342       62.467       37.858     8900.355     3902.183     1433.240        3.396        0.712      231.654       39.931        0.030      338.867       11.808      860.836
03/28/2014  18:52:00      -50.293      -21.433       19.021       91.802       62.234       40.594     8427.585     3873.077     1647.877        0.865        0.697       54.670       36.645        0.449      338.964       11.974      860.868
03/28/2014  18:53:00        0.415       33.426        2.671       29.754       40.786       26.186      885.299     1663.535      685.702        0.218        0.162       33.429       17.301        0.268      339.045       12.109      860.875
03/28/2014  18:54:00      -59.536        5.309       -5.933       45.401       28.444       29.171     2061.281      809.080      850.957        0.366        0.186       59.772       27.588        0.213      339.062       12.138      860.881
03/28/2014  18:55:00       34.170      -58.050        5.553       59.128       50.039       45.020     3496.161     2503.941     2026.757        0.630        0.401       67.360       30.337        0.203      339.096       12.195      860.900
03/28/2014  18:56:00      -65.163      -54.275        1.357       91.231       52.046       23.090     8323.089     2708.793      533.130        0.938        0.578       84.805       27.462        0.105      339.141       12.270      860.920
03/28/2014  18:57:00     -111.377     -117.068       -5.888      106.219       93.659       42.188    11282.451     8772.028     1779.848        2.399        1.092      161.585       45.747        0.080      338.993       12.021      860.951
03/28/2014  18:58:00      -95.032     -121.307        1.969       83.534       83.094       48.729     6977.860     6904.690     2374.512        2.000        0.813      154.099       45.872        0.089      338.938       11.927      860.934
03/28/2014  18:59:00     -132.501      -62.298        6.357       77.126       64.221       38.512     5948.428     4124.379     1483.136        1.651        0.578      146.415       38.288        0.068      338.997       12.027      860.937
03/28/2014  19:00:00     -117.651      -84.665       -4.787       45.157       45.600       28.239     2039.182     2079.342      797.447        1.297        0.246      144.948       20.691        0.020      338.967       11.980      860.958
03/28/2014  19:01:00     -117.747      -99.884       -8.976       59.488       41.892       29.973     3538.863     1754.907      898.376        1.506        0.310      154.406       21.085        0.019      338.959       11.964      860.990
03/28/2014  19:02:00      -65.017     -104.781        9.406       52.316       74.293       36.197     2737.003     5519.449     1310.215        1.243        0.478      123.313       33.778        0.075      338.996       12.027      860.997
03/28/2014  19:03:00     -161.588     -119.741      -12.548      100.326       67.254       39.220    10065.369     4523.084     1538.179        2.836        0.806      201.118       48.704        0.059      338.974       11.988      861.003
03/28/2014  19:04:00     -128.469      -31.140        0.359      141.268       50.007       37.803    19956.519     2500.728     1429.037        2.068        1.194      132.189       50.035        0.143      338.970       11.981      861.010
03/28/2014  19:05:00      -78.319     -112.478       -6.513       40.360       60.797       21.335     1628.942     3696.320      455.181        1.230        0.289      137.059       19.656        0.021      339.011       12.052      861.054
03/28/2014  19:06:00      -57.294     -149.016        1.509       51.568       83.556       37.166     2659.233     6981.540     1381.318        1.825        0.551      159.651       38.918        0.059      338.979       11.997      861.067
03/28/2014  19:07:00     -219.152     -255.169      -12.354       99.301      108.314       60.624     9860.665    11731.936     3675.252        6.927        1.263      336.361       52.419        0.024      338.895       11.854      861.046
03/28/2014  19:08:00     -166.166     -224.261       -3.457       77.261       99.462       52.750     5969.331     9892.709     2782.608        4.828        0.932      279.113       34.672        0.015      338.818       11.725      861.010
03/28/2014  19:09:00     -172.119     -230.997       -0.795      123.423      101.886       51.525    15233.294    10380.679     2654.828        5.562        1.413      288.070       59.820        0.043      338.883       11.832      860.954
03/28/2014  19:10:00     -113.564      -34.046       -1.827       66.794       63.783       31.160     4461.421     4068.256      970.966        1.178        0.475      118.557       35.757        0.091      338.883       11.836      860.942
03/28/2014  19:11:00     -121.770      -42.498        2.577       69.178       55.360       35.926     4785.604     3064.753     1290.676        1.289        0.457      128.973       31.738        0.061      338.937       11.927      860.972
03/28/2014  19:12:00     -106.514      -56.455        9.355       91.459       57.274       41.411     8364.765     3280.301     1714.899        1.399        0.668      120.550       37.641        0.097      338.913       11.888      861.015
03/28/2014  19:13:00     -167.880     -173.401        2.696      112.031       88.885       49.112    12550.843     7900.545     2412.031        4.056        1.143      241.354       58.973        0.060      338.892       11.850      861.030
03/28/2014  19:14:00     -207.436     -126.883       -7.913      101.000       69.789       44.860    10201.075     4870.465     2012.407        3.813        0.854      243.165       50.366        0.043      338.866       11.804      861.026
03/28/2014  19:15:00     -107.094     -101.432       -8.156       87.586      108.562       43.883     7671.272    11785.757     1925.708        2.160        1.069      147.504       45.910        0.097      338.895       11.856      860.975
03/28/2014  19:16:00      -97.172       33.508       18.721       92.286       59.544       54.794     8516.660     3545.491     3002.426        1.299        0.753      102.787       58.989        0.329      338.990       12.017      860.930
03/28/2014  19:17:00       -1.418     -128.028       -2.399       76.518       97.784       43.414     5855.054     9561.725     1884.773        1.685        0.865      128.036       36.947        0.083      339.011       12.051      860.967
03/28/2014  19:18:00       14.792     -100.674        1.490       92.128       70.659       58.517     8487.596     4992.724     3424.286        1.363        0.845      101.755       66.659        0.429      338.994       12.024      860.974
03/28/2014  19:19:00     -137.083      -90.186      -10.741       98.986      116.621       35.444     9798.289    13600.394     1256.250        2.584        1.233      164.090       36.266        0.049      339.164       12.308      860.984
03/28/2014  19:20:00     -160.938     -126.885        7.980      122.224      128.098       63.493    14938.590    16408.975     4031.389        3.871        1.769      204.941       69.851        0.116      338.922       11.900      860.991
03/28/2014  19:21:00     -196.438      -66.680        7.215      157.237       96.631       58.692    24723.428     9337.532     3444.693        4.029        1.875      207.447       74.554        0.129      338.852       11.784      860.969
03/28/2014  19:22:00     -175.863     -135.302       -7.673      122.596      107.664       55.878    15029.755    11591.530     3122.380        3.951        1.487      221.888       57.930        0.068      338.781       11.664      860.922
03/28/2014  19:23:00     -107.002      -83.633       17.255      103.203       82.959       45.722    10650.920     6882.155     2090.463        1.918        0.981      135.809       55.563        0.167      338.806       11.706      860.874
03/28/2014  19:24:00     -156.099      -59.138        9.031      110.616       90.945       53.127    12235.882     8270.958     2822.493        2.563        1.166      166.926       43.739        0.069      338.778       11.659      860.865
03/28/2014  19:25:00     -287.884      -98.997      -15.206      154.614      137.729       47.600    23905.599    18969.413     2265.770        6.902        2.257      304.430       51.830        0.029      338.730       11.577      860.869
03/28/2014  19:26:00     -286.844     -111.439       -4.494      112.579       95.468       58.965    12673.924     9114.113     3476.880        5.999        1.263      307.731       61.939        0.041      338.684       11.498      860.873
03/28/2014  19:27:00     -295.749     -145.394      -37.589      126.593      112.248       57.012    16025.718    12599.725     3250.409        7.094        1.594      329.556       46.746        0.020      338.719       11.558      860.898
03/28/2014  19:28:00     -148.131      -61.258        4.239       91.776       90.918       47.463     8422.768     8266.057     2252.708        2.232        0.947      160.297       45.882        0.082      338.778       11.658      860.887
03/28/2014  19:29:00     -235.773     -128.714       13.100      154.762      127.537       80.692    23951.150    16265.768     6511.260        5.952        2.336      268.619       84.146        0.098      338.740       11.594      860.913
03/28/2014  19:30:00     -190.267     -146.877        1.216      147.572      127.885       85.086    21777.460    16354.479     7239.662        5.156        2.269      240.363       88.047        0.134      338.761       11.631      860.933
03/28/2014  19:31:00     -292.873     -152.009       -9.594      155.006      110.387       67.357    24026.931    12185.272     4536.984        7.485        2.037      329.971       62.559        0.036      338.692       11.512      860.951
03/28/2014  19:32:00     -301.473      -38.184      -18.552      125.283       96.514       48.709    15695.804     9314.941     2372.591        6.003        1.369      303.881       49.233        0.026      338.722       11.563      860.930
03/28/2014  19:33:00     -174.662      -41.378       16.642      135.161      109.222       56.466    18268.577    11929.441     3188.457        3.293        1.669      179.497       58.682        0.107      338.745       11.603      860.909
03/28/2014  19:34:00      -55.015     -144.891        4.626       64.793       71.738       43.902     4198.104     5146.298     1927.383        1.765        0.564      154.984       36.839        0.057      338.779       11.660      860.914
03/28/2014  19:35:00     -113.079     -130.372      -10.997       86.183       55.107       34.887     7427.524     3036.809     1217.074        2.079        0.584      172.579       32.477        0.035      338.823       11.735      860.929
03/28/2014  19:36:00      -96.845     -160.517       -0.652       78.728       68.870       41.316     6198.042     4743.044     1706.978        2.389        0.632      187.469       40.973        0.048      338.833       11.750      860.938
03/28/2014  19:37:00     -187.967     -124.543       -6.563       76.582       87.404       35.370     5864.782     7639.391     1251.053        3.282        0.738      225.483       37.459        0.028      338.768       11.643      860.920
03/28/2014  19:38:00      -93.607     -117.332        9.398       77.772       79.175       34.413     6048.513     6268.623     1184.238        1.806        0.675      150.097       31.178        0.043      338.797       11.693      860.902
03/28/2014  19:39:00     -192.546     -128.386       -4.876       77.771       79.251       39.212     6048.326     6280.712     1537.543        3.372        0.693      231.424       33.521        0.021      338.737       11.590      860.907
03/28/2014  19:40:00     -162.305      -79.416        3.461      109.234       57.927       37.817    11932.061     3355.540     1430.132        2.469        0.836      180.692       42.689        0.056      338.714       11.551      860.901
03/28/2014  19:41:00     -171.385      -97.584       11.308      128.667      109.266       50.340    16555.184    11939.049     2534.120        3.502        1.551      197.220       52.482        0.071      338.690       11.509      860.880
03/28/2014  19:42:00     -114.972     -160.316        3.467       83.579       71.110       48.788     6985.499     5056.618     2380.275        2.667        0.721      197.281       36.336        0.034      338.694       11.518      860.850
03/28/2014  19:43:00        1.727     -146.589        5.891       73.825       80.303       46.396     5450.195     6448.560     2152.628        1.779        0.703      146.599       40.372        0.076      338.810       11.714      860.818
03/28/2014  19:44:00      -26.139     -107.538       21.629       88.031       77.141       55.457     7749.445     5950.728     3075.429        1.474        0.839      110.669       51.718        0.218      338.788       11.677      860.854
03/28/2014  19:45:00       -1.786      -99.997        5.312       71.960       93.415       52.012     5178.279     8726.435     2705.272        1.332        0.830      100.013       47.114        0.222      338.828       11.745      860.874
03/28/2014  19:46:00      -92.556      -41.893       -8.256       71.756       45.617       26.839     5148.979     2080.901      720.350        0.917        0.398      101.596       23.709        0.054      338.853       11.787      860.887
03/28/2014  19:47:00      -61.770      -76.077        9.721       69.734       75.233       35.573     4862.868     5659.945     1265.427        1.074        0.589       97.996       36.286        0.137      338.831       11.749      860.888
03/28/2014  19:48:00      -19.157      -63.882       18.052       55.009       61.282       31.282     3025.936     3755.530      978.549        0.627        0.388       66.693       27.367        0.168      338.815       11.722      860.905
03/28/2014  19:49:00       92.426     -179.241       -0.717      171.544      108.729       83.864    29427.292    11822.089     7033.115        4.447        2.414      201.668       72.358        0.129      338.797       11.690      860.879
03/28/2014  19:50:00       -4.848     -251.080       -5.300      134.418      111.860       74.351    18068.128    12512.585     5528.105        4.959        1.805      251.127       41.012        0.027      338.757       11.623      860.888
03/28/2014  19:51:00      -66.283     -163.068        5.579       83.680       69.768       49.008     7002.265     4867.638     2401.794        2.264        0.714      176.024       42.018        0.057      338.754       11.619      860.830
03/28/2014  19:52:00       42.168      -19.022       83.955       94.758      154.268      101.566     8979.171    23798.681    10315.746        2.613        2.155       46.260      111.327        5.791      338.817       11.723      860.758
03/28/2014  19:53:00       28.873     -101.472       19.553      116.524      107.943       72.930    13577.903    11651.592     5318.800        2.102        1.527      105.500       69.900        0.439      338.791       11.680      860.754
03/28/2014  19:54:00       14.220     -112.949       -3.930       77.012       92.960       63.185     5930.899     8641.538     3992.405        1.577        0.928      113.840       59.752        0.275      338.855       11.789      860.774
03/28/2014  19:55:00      -55.393     -160.783      -11.414      101.285      102.196       67.056    10258.637    10443.943     4496.549        2.712        1.260      170.057       49.281        0.084      338.936       11.924      860.807
03/28/2014  19:56:00       35.672     -155.544       13.344      115.290      124.724       57.228    13291.870    15556.086     3275.000        2.888        1.606      159.582       62.703        0.154      338.966       11.975      860.849
03/28/2014  19:57:00      -68.450     -222.849       -7.647       71.601      132.516       54.983     5126.677    17560.445     3023.116        4.005        1.286      233.124       53.169        0.052      338.894       11.854      860.887
03/28/2014  19:58:00      -41.783     -162.908      -16.116       89.389      104.235       57.106     7990.311    10865.033     3261.083        2.533        1.106      168.181       38.469        0.052      338.895       11.855      860.903
03/28/2014  19:59:00       -6.179     -143.032       -3.445      126.065       79.104       47.686    15892.335     6257.434     2273.995        2.246        1.221      143.166       39.224        0.075      338.831       11.749      860.881
03/28/2014  20:00:00      -55.838      -41.249       16.940       77.094       75.527       43.905     5943.419     5704.302     1927.625        0.934        0.679       69.422       40.895        0.347      338.776       11.656      860.873
03/28/2014  20:01:00     -109.078      -80.045        0.791       75.175       69.975       30.744     5651.247     4896.466      945.163        1.490        0.575      135.297       31.293        0.053      338.724       11.569      860.906
03/28/2014  20:02:00      -86.187     -187.227        1.458       93.168       86.744       62.562     8680.250     7524.475     3914.057        3.130        1.006      206.112       53.485        0.067      338.731       11.580      860.904
03/28/2014  20:03:00       83.148     -133.932        2.695       83.689       96.195       54.480     7003.893     9253.523     2968.050        2.204        0.961      157.643       46.285        0.086      338.793       11.685      860.914
03/28/2014  20:04:00      -49.896      -77.914        9.953       67.950       57.368       37.105     4617.174     3291.072     1376.775        0.897        0.464       92.521       35.314        0.146      338.793       11.685      860.952
03/28/2014  20:05:00      -35.104      -93.257        8.229       69.594       80.508       48.921     4843.329     6481.611     2393.302        1.185        0.686       99.646       42.433        0.181      338.802       11.701      860.973
03/28/2014  20:06:00      -40.144     -129.444        3.551       91.611       60.964       35.306     8392.532     3716.561     1246.480        1.587        0.668      135.526       26.816        0.039      338.782       11.667      860.992
03/28/2014  20:07:00      -61.862      -54.474        4.234       75.028       76.316       41.207     5629.128     5824.134     1698.016        0.998        0.658       82.428       25.663        0.097      338.735       11.588      860.997
03/28/2014  20:08:00       73.630     -120.525        7.436       89.832       97.812       62.041     8069.754     9567.144     3849.040        2.074        1.074      141.236       66.259        0.220      338.749       11.610      861.014
03/28/2014  20:09:00      -92.696      -53.585        1.829       72.987       65.713       32.178     5327.062     4318.231     1035.411        1.107        0.534      107.069       32.562        0.092      338.684       11.503      861.015
03/28/2014  20:10:00     -123.192      -85.210        9.351       88.752       66.956       37.516     7876.941     4483.103     1407.468        1.814        0.688      149.790       36.187        0.058      338.653       11.449      861.030
03/28/2014  20:11:00     -199.133     -107.023       -9.642      110.298      108.242       54.051    12165.577    11716.430     2921.501        3.900        1.340      226.071       66.642        0.087      338.625       11.401      861.035
03/28/2014  20:12:00     -271.931     -133.903        5.187      128.028       86.812       58.630    16391.158     7536.340     3437.438        5.963        1.368      303.111       62.255        0.042      338.579       11.323      861.052
03/28/2014  20:13:00     -215.549     -123.361        1.687      177.584       87.493       70.683    31535.900     7655.045     4996.111        5.293        2.209      248.353       83.696        0.114      338.591       11.343      861.058
03/28/2014  20:14:00     -285.037     -193.012       -9.893      124.576      120.190       60.267    15519.207    14445.663     3632.092        7.609        1.680      344.238       53.696        0.024      338.586       11.333      861.059
03/28/2014  20:15:00     -170.004     -148.480        3.565      130.364      108.112       68.712    16994.795    11688.157     4721.397        4.218        1.670      225.716       74.431        0.109      338.561       11.294      861.047
03/28/2014  20:16:00     -160.830     -116.929       -4.541       95.121       72.278       39.942     9048.099     5224.126     1595.329        2.771        0.793      198.843       33.035        0.028      338.570       11.309      861.100
03/28/2014  20:17:00     -163.147     -122.105       -2.947      112.905      102.548       57.359    12747.494    10516.125     3290.048        3.404        1.328      203.781       63.716        0.098      338.571       11.311      861.130
03/28/2014  20:18:00     -189.604     -192.828       -6.870      105.295       95.460       56.262    11087.064     9112.573     3165.412        4.827        1.168      270.430       49.102        0.033      338.554       11.281      861.138
03/28/2014  20:19:00     -111.091     -180.766      -10.912       40.570       74.923       35.787     1645.924     5613.426     1280.698        2.684        0.427      212.173       24.571        0.013      338.582       11.328      861.148
03/28/2014  20:20:00      -74.860      -67.986        0.436       59.141       47.403       31.050     3497.709     2247.083      964.078        0.847        0.335      101.124       30.273        0.090      338.605       11.371      861.133
03/28/2014  20:21:00      -48.257      -66.665        9.681       51.367       53.571       27.426     2638.588     2869.860      752.179        0.656        0.313       82.298       27.144        0.109      338.603       11.367      861.134
03/28/2014  20:22:00      -48.973      -76.194        6.014       46.267       48.312       27.620     2140.670     2334.061      762.853        0.674        0.262       90.576       16.923        0.035      338.606       11.370      861.114
03/28/2014  20:23:00      -60.262      -59.850        1.274       56.963       60.594       27.933     3244.728     3671.642      780.228        0.745        0.385       84.932       22.426        0.070      338.573       11.315      861.106
03/28/2014  20:24:00     -157.762     -146.371       12.424      147.215      129.593       69.219    21672.144    16794.444     4791.223        4.485        2.163      215.206       81.965        0.145      338.508       11.203      861.127
03/28/2014  20:25:00      -72.269     -152.870       10.613      106.434      132.071       53.288    11328.166    17442.689     2839.563        3.015        1.581      169.092       64.090        0.144      338.505       11.201      861.168
03/28/2014  20:26:00     -105.488     -210.541      -14.953       84.848      107.232       49.320     7199.217    11498.722     2432.483        3.840        1.057      235.489       13.323        0.003      338.563       11.298      861.150
03/28/2014  20:27:00      -92.857      -75.534       10.939       96.566       56.319       38.209     9324.943     3171.847     1459.923        1.420        0.698      119.699       37.135        0.096      338.530       11.242      861.136
03/28/2014  20:28:00     -156.038      -88.493       10.059      101.210       68.322       46.136    10243.467     4667.931     2128.533        2.466        0.852      179.385       52.150        0.085      338.507       11.201      861.124
03/28/2014  20:29:00     -190.552      -20.385        0.093       96.071       88.722       46.142     9229.554     7871.537     2129.117        2.797        0.962      191.639       44.140        0.053      338.549       11.273      861.109
03/28/2014  20:30:00     -148.454      -59.221        2.849       90.239       95.567       48.468     8143.163     9132.986     2349.154        2.259        0.981      159.830       52.453        0.108      338.472       11.146      861.084
03/28/2014  20:31:00      -84.705     -157.003        2.249       89.241       66.253       40.139     7964.013     4389.469     1611.177        2.289        0.698      178.395       25.122        0.020      338.499       11.189      861.063
03/28/2014  20:32:00     -139.749     -108.052       10.502       90.043       66.098       41.294     8107.756     4368.937     1705.166        2.275        0.709      176.650       43.794        0.061      338.494       11.182      861.034
03/28/2014  20:33:00      -73.374      -91.957        9.375       68.487       71.818       34.279     4690.424     5157.770     1175.080        1.247        0.551      117.643       34.864        0.088      338.493       11.182      861.034
03/28/2014  20:34:00     -174.373     -138.885      -10.678      135.891       81.452       52.045    18466.251     6634.370     2708.723        3.880        1.390      222.924       57.391        0.066      338.450       11.106      861.029
03/28/2014  20:35:00     -230.939      -64.004       -5.784       78.985       63.529       40.053     6238.573     4035.953     1604.252        3.467        0.594      239.644       41.935        0.031      338.419       11.054      861.039
03/28/2014  20:36:00     -123.483      -94.560       12.113      111.678       80.397       49.841    12471.919     6463.757     2484.083        2.287        1.071      155.530       63.012        0.164      338.466       11.135      861.081
03/28/2014  20:37:00     -214.799     -131.530        4.306      162.286      123.124       58.355    26336.631    15159.572     3405.261        5.417        2.245      251.870       83.030        0.109      338.479       11.155      861.127
03/28/2014  20:38:00     -114.859     -136.964        1.336      116.960       90.856       51.668    13679.526     8254.762     2669.567        2.827        1.230      178.751       46.454        0.068      338.441       11.093      861.143
03/28/2014  20:39:00      -12.577      -31.657       32.131       36.866       65.065       30.969     1359.134     4233.498      959.064        0.437        0.328       34.064       31.478        0.854      338.475       11.152      861.153
03/28/2014  20:40:00      -22.093      -65.454       -4.431       62.114       59.347       29.482     3858.184     3522.093      869.159        0.652        0.412       69.082       30.037        0.189      338.587       11.340      861.145
03/28/2014  20:41:00      -56.496      -11.868       -7.932       57.733       28.719       24.099     3333.146      824.781      580.764        0.407        0.237       57.729       27.958        0.235      338.643       11.433      861.146
03/28/2014  20:42:00      -75.275     -107.761       -6.312       40.467       39.366       23.747     1637.563     1549.654      563.930        1.053        0.188      131.449       17.118        0.017      338.559       11.292      861.164
03/28/2014  20:43:00      -47.405      -54.686       11.620       70.328       55.031       34.585     4946.059     3028.382     1196.113        0.727        0.459       72.373       29.816        0.170      338.557       11.288      861.185
03/28/2014  20:44:00       -0.736      -14.949       23.350       55.369       55.171       31.353     3065.766     3043.787      983.029        0.393        0.355       14.968       29.574        3.904      338.545       11.268      861.189
03/28/2014  20:45:00        1.688     -145.685       18.844      127.108      127.999       72.949    16156.339    16383.684     5321.526        2.971        1.893      145.695       75.727        0.270      338.517       11.220      861.201
03/28/2014  20:46:00       67.571     -134.651      -29.960       89.720       92.414       64.459     8049.610     8540.277     4154.943        2.217        1.037      150.654       49.310        0.107      338.470       11.141      861.166
03/28/2014  20:47:00      -57.349      -53.283        1.417       64.208       66.022       32.101     4122.673     4358.895     1030.487        0.782        0.476       78.281       29.708        0.144      338.678       11.493      861.144
03/28/2014  20:48:00      -52.092     -119.035       -1.394       70.850       51.202       45.710     5019.682     2621.599     2089.432        1.331        0.487      129.934       35.580        0.075      338.530       11.244      861.153
03/28/2014  20:49:00      -87.590      -63.665       11.484       94.470       74.294       41.421     8924.539     5519.643     1715.686        1.401        0.808      108.283       46.667        0.186      338.410       11.040      861.167
03/28/2014  20:50:00      -84.729     -109.758       -7.960       77.850       70.909       49.377     6060.612     5028.020     2438.040        1.641        0.676      138.657       32.844        0.056      338.442       11.097      861.177
03/28/2014  20:51:00      -84.308      -57.802        9.577       90.445       68.395       29.483     8180.366     4677.811      869.255        1.213        0.686      102.220       33.678        0.109      338.416       11.051      861.188
03/28/2014  20:52:00     -266.119      -68.154       -6.066      115.290       96.085       48.048    13291.738     9232.364     2308.634        5.016        1.242      274.707       45.102        0.027      338.348       10.935      861.170
03/28/2014  20:53:00     -283.011      -96.419       -6.505      141.013      126.572       70.153    19884.655    16020.396     4921.487        6.512        2.041      298.985       77.875        0.068      338.364       10.962      861.178
03/28/2014  20:54:00     -159.810     -145.189        4.814       85.913       91.178       44.376     7381.044     8313.500     1969.225        3.215        0.883      215.914       49.276        0.052      338.344       10.929      861.230
03/28/2014  20:55:00      -82.447      -65.053       16.106       99.248       66.852       49.273     9850.201     4469.220     2427.783        1.401        0.837      105.021       59.473        0.321      338.348       10.939      861.251
03/28/2014  20:56:00     -109.404      -39.431       -6.522       53.694       48.985       34.311     2883.014     2399.525     1177.236        1.001        0.323      116.293       32.799        0.080      338.299       10.858      861.218
03/28/2014  20:57:00     -121.455      -36.178      -10.316       68.889       62.386       29.253     4745.654     3891.973      855.711        1.283        0.475      126.729       27.445        0.047      338.422       11.062      861.190
03/28/2014  20:58:00     -146.499      -51.455       -1.260      104.076       52.876       42.311    10831.843     2795.840     1790.252        1.976        0.771      155.273       42.087        0.073      338.332       10.910      861.173
03/28/2014  20:59:00     -132.487      -57.870       11.347       80.694       61.403       41.461     6511.462     3770.336     1719.025        1.651        0.600      144.575       40.602        0.079      338.377       10.986      861.171
03/28/2014  21:00:00      -86.920      -48.627        9.549       84.113       60.993       38.967     7074.940     3720.126     1518.441        1.116        0.616       99.597       45.941        0.213      338.412       11.045      861.167
03/28/2014  21:01:00      -75.914     -106.846       13.612       86.445       64.375       47.620     7472.805     4144.083     2267.707        1.562        0.694      131.068       45.724        0.122      338.315       10.883      861.186
03/28/2014  21:02:00     -131.028     -162.903        5.969      127.328      115.452       63.796    16212.511    13329.187     4069.963        3.867        1.681      209.059       80.370        0.148      338.304       10.863      861.205
03/28/2014  21:03:00     -259.587     -149.726      -10.208       65.220       80.900       48.911     4253.673     6544.863     2392.266        5.155        0.660      299.672       37.665        0.016      338.291       10.838      861.242
03/28/2014  21:04:00     -197.096     -102.096        5.502      157.212      123.285       67.198    24715.538    15199.311     4515.566        4.686        2.222      221.969       82.634        0.139      338.341       10.926      861.285
03/28/2014  21:05:00     -254.708     -162.095       -9.578      131.956       97.540       55.124    17412.292     9514.043     3038.683        6.060        1.498      301.912       64.929        0.046      338.305       10.862      861.332
03/28/2014  21:06:00     -247.158     -146.416        1.522      125.440       78.449       56.461    15735.306     6154.217     3187.872        5.380        1.254      287.271       64.989        0.051      338.303       10.860      861.361
03/28/2014  21:07:00     -188.045     -139.151        6.986       97.348       81.943       47.292     9476.689     6714.687     2236.498        3.660        0.921      233.931       53.619        0.053      338.300       10.855      861.388
03/28/2014  21:08:00     -172.587     -178.450      -10.507       70.585       59.109       37.884     4982.284     3493.825     1435.212        3.582        0.496      248.255       38.785        0.024      338.291       10.840      861.384
03/28/2014  21:09:00      -67.563     -105.142       -0.236       44.928       50.419       21.696     2018.565     2542.041      470.716        1.032        0.252      124.979       20.297        0.026      338.335       10.917      861.356
03/28/2014  21:10:00     -162.630       -1.884       -1.309       54.492       50.687       39.566     2969.369     2569.198     1565.505        1.678        0.355      162.641       29.825        0.034      338.326       10.900      861.331
03/28/2014  21:11:00     -153.841      -70.570       -1.394       60.124       61.162       37.712     3614.846     3740.763     1422.220        1.871        0.439      169.255       30.977        0.033      338.293       10.845      861.318
03/28/2014  21:12:00      -93.852      -84.243        8.134       61.710       41.630       25.213     3808.078     1733.083      635.689        1.107        0.309      126.116       29.652        0.055      338.297       10.853      861.324
03/28/2014  21:13:00     -117.647      -74.319       -9.873       40.819       36.909       21.120     1666.150     1362.278      446.071        1.147        0.174      139.155       15.896        0.013      338.337       10.920      861.343
03/28/2014  21:14:00      -83.039      -87.677       -0.475       54.397       37.271       27.463     2959.084     1389.111      754.219        0.984        0.255      120.759       29.404        0.059      338.317       10.887      861.364
03/28/2014  21:15:00     -113.004      -59.027       -3.676       65.020       44.999       26.743     4227.610     2024.870      715.191        1.162        0.348      127.492       23.759        0.035      338.324       10.897      861.355
03/28/2014  21:16:00      -23.747      -22.527       -1.963       34.582       34.183       18.331     1195.914     1168.451      336.020        0.189        0.135       32.732       10.948        0.112      338.346       10.934      861.324
03/28/2014  21:17:00      -21.684       -0.177        8.224       24.654       16.051       16.485      607.811      257.646      271.754        0.084        0.057       21.685       16.509        0.580      338.373       10.981      861.293
03/28/2014  21:18:00      -52.636        5.611        2.284       25.726       32.308       16.492      661.806     1043.807      271.990        0.239        0.099       52.935       12.833        0.059      338.476       11.154      861.299
03/28/2014  21:19:00      -13.482      -20.814        2.679       35.762       23.561       17.743     1278.909      555.114      314.813        0.139        0.107       24.799       16.643        0.450      338.387       11.004      861.335
03/28/2014  21:20:00      -53.669      -82.060        6.179       99.473       48.829       38.487     9894.848     2384.314     1481.228        1.170        0.688       98.052       31.686        0.104      338.409       11.039      861.366
03/28/2014  21:21:00     -119.140      -74.494       -6.708       48.702       46.172       27.518     2371.839     2131.815      757.241        1.252        0.263      140.512       18.386        0.017      338.288       10.839      861.379
03/28/2014  21:22:00     -107.045      -79.405       -3.548       79.050       78.643       41.265     6248.891     6184.669     1702.815        1.595        0.707      133.281       42.811        0.103      338.288       10.835      861.360
03/28/2014  21:23:00     -128.138      -80.757      -10.371       85.251       70.550       40.181     7267.686     4977.259     1614.514        1.845        0.693      151.463       37.409        0.061      338.307       10.869      861.317
03/28/2014  21:24:00     -137.896     -226.707       -7.817       79.436       73.994       44.577     6310.139     5475.050     1987.082        4.212        0.689      265.351       38.256        0.021      338.253       10.776      861.287
03/28/2014  21:25:00     -188.214     -201.623       -6.525      104.683      111.051       48.801    10958.450    12332.292     2381.525        5.089        1.284      275.819       45.687        0.027      338.255       10.783      861.307
03/28/2014  21:26:00     -172.594     -247.481       -5.897      103.623      113.187       59.232    10737.659    12811.207     3508.489        5.906        1.353      301.721       56.535        0.035      338.232       10.740      861.344
03/28/2014  21:27:00     -155.995     -113.132       -1.100       76.022       73.809       47.553     5779.352     5447.810     2261.315        2.531        0.674      192.700       43.169        0.050      338.233       10.743      861.330
03/28/2014  21:28:00     -125.676     -167.062       -7.011       87.801       78.408       35.119     7709.026     6147.803     1233.367        2.942        0.755      209.055       30.171        0.021      338.266       10.798      861.285
03/28/2014  21:29:00     -100.491      -93.996       -2.682       69.004       43.913       37.206     4761.620     1928.388     1384.263        1.351        0.404      137.599       33.058        0.058      338.279       10.824      861.230
03/28/2014  21:30:00      -90.723      -28.190        3.455       41.107       41.445       21.684     1689.815     1717.728      470.185        0.646        0.194       95.002       18.543        0.038      338.228       10.737      861.187
03/28/2014  21:31:00      -89.697       -5.821        7.612       59.194       38.705       36.194     3503.889     1498.042     1310.024        0.722        0.316       89.886       37.339        0.173      338.412       11.046      861.179
03/28/2014  21:32:00     -136.621      -37.450       15.553       90.849       60.430       34.154     8253.527     3651.803     1166.512        1.669        0.654      141.661       41.667        0.087      338.287       10.834      861.189
03/28/2014  21:33:00     -214.349      -80.416      -11.443       88.175       84.069       51.437     7774.860     7067.557     2645.765        3.501        0.874      228.937       49.612        0.047      338.156       10.614      861.210
03/28/2014  21:34:00     -177.578      -75.915        0.592       91.075       57.583       32.150     8294.659     3315.837     1033.645        2.497        0.632      193.124       37.222        0.037      338.146       10.595      861.242
03/28/2014  21:35:00     -151.311      -80.772       -1.924       73.231       70.155       41.139     5362.772     4921.757     1692.407        2.070        0.599      171.521       46.000        0.072      338.184       10.661      861.254
03/28/2014  21:36:00     -153.705      -85.100       -7.615       69.154       57.083       39.770     4782.247     3258.476     1581.661        2.027        0.481      175.690       38.915        0.049      338.184       10.662      861.256
03/28/2014  21:37:00     -120.554      -81.163       -3.776       80.911       55.124       37.306     6546.636     3038.688     1391.771        1.605        0.549      145.329       40.228        0.077      338.197       10.684      861.206
03/28/2014  21:38:00     -242.605     -115.935       -5.663       73.769       91.215       49.608     5441.916     8320.126     2460.998        4.427        0.811      268.883       50.174        0.035      338.146       10.595      861.167
03/28/2014  21:39:00     -212.644     -167.612       -4.166      101.545      110.329       50.941    10311.483    12172.436     2594.983        4.920        1.254      270.760       56.700        0.044      338.135       10.579      861.196
03/28/2014  21:40:00     -210.918      -89.834       -8.728       77.715       72.991       40.354     6039.617     5327.618     1628.479        3.281        0.650      229.252       41.337        0.033      338.161       10.620      861.219
03/28/2014  21:41:00     -152.580     -121.207       -3.799      112.693       98.354       54.682    12699.697     9673.468     2990.120        3.167        1.268      194.863       56.438        0.084      338.158       10.617      861.234
03/28/2014  21:42:00     -130.453      -72.602       -9.189       91.143       61.656       38.862     8307.096     3801.454     1510.280        1.799        0.681      149.295       31.646        0.045      338.161       10.622      861.255
03/28/2014  21:43:00     -190.036     -103.957        3.134       80.229       69.062       37.818     6436.632     4769.623     1430.206        2.978        0.632      216.611       32.585        0.023      338.136       10.579      861.253
03/28/2014  21:44:00      -97.526     -104.816        1.014       69.032       48.912       33.853     4765.413     2392.378     1146.013        1.440        0.415      143.170       29.747        0.043      338.173       10.644      861.267
03/28/2014  21:45:00      -39.887     -141.838       21.385      188.318      201.647       99.613    35463.778    40661.654     9922.679        5.409        4.302      147.340      126.339        0.735      338.151       10.606      861.220
03/28/2014  21:46:00     -157.375     -285.092       -8.172      118.993      161.824       58.363    14159.238    26186.862     3406.298        7.492        2.188      325.645       62.155        0.036      338.142       10.589      861.207
03/28/2014  21:47:00     -224.907     -166.568       -3.652       76.757       64.629       46.067     5891.595     4176.897     2122.138        4.526        0.610      279.871       44.398        0.025      338.124       10.558      861.170
03/28/2014  21:48:00     -192.124     -171.809      -10.559      103.605       71.021       45.007    10734.098     5044.029     2025.632        4.217        0.890      257.741       33.921        0.017      338.109       10.532      861.159
03/28/2014  21:49:00     -158.818      -68.666        8.194       79.539       73.203       40.035     6326.438     5358.677     1602.773        2.164        0.664      173.026       40.846        0.056      338.080       10.487      861.130
03/28/2014  21:50:00     -164.791      -18.498       10.024      103.477       72.012       49.079    10707.498     5185.656     2408.784        2.295        0.915      165.826       47.141        0.081      338.121       10.555      861.125
03/28/2014  21:51:00     -154.707      -77.277       10.611       91.671       95.753       53.896     8403.500     9168.625     2904.779        2.524        1.024      172.934       55.378        0.103      338.142       10.590      861.152
03/28/2014  21:52:00     -164.253      -62.370       -6.138       73.236       77.431       41.419     5363.486     5995.483     1715.563        2.199        0.654      175.696       44.080        0.063      338.084       10.494      861.153
03/28/2014  21:53:00     -119.936      -21.954       -4.622       55.355       42.108       32.361     3064.134     1773.097     1047.243        1.039        0.294      121.929       33.058        0.074      338.052       10.441      861.127
03/28/2014  21:54:00      -98.414      -36.354       14.932       80.325       55.107       42.798     6452.038     3036.776     1831.691        1.127        0.566      104.914       46.957        0.200      338.068       10.467      861.093
03/28/2014  21:55:00      -82.003     -138.822       14.463       79.661       83.215       51.180     6345.901     6924.661     2619.372        2.104        0.794      161.233       48.085        0.089      338.070       10.470      861.108
03/28/2014  21:56:00      -84.730      -77.119        9.380       72.500       50.037       41.716     5256.191     2503.690     1740.240        1.136        0.475      114.571       24.271        0.045      338.157       10.617      861.109
03/28/2014  21:57:00      -51.383      -29.776       -0.394       55.291       51.715       35.422     3057.042     2674.484     1254.690        0.526        0.349       59.387       20.533        0.120      338.138       10.588      861.070
03/28/2014  21:58:00     -105.353      -96.965        0.057       63.727       56.494       31.445     4061.070     3191.528      988.797        1.437        0.412      143.183       21.387        0.022      338.124       10.562      861.052
03/28/2014  21:59:00     -198.557     -136.826        8.515      118.676       83.693       46.967    14083.880     7004.599     2205.900        4.075        1.165      241.135       54.616        0.051      338.089       10.501      861.072
03/28/2014  22:00:00     -184.765     -134.470       -0.591      102.665       80.723       43.127    10540.031     6516.218     1859.933        3.556        0.946      228.518       45.635        0.040      338.056       10.446      861.072
03/28/2014  22:01:00     -113.989     -121.448        0.383       69.651       58.320       39.001     4851.245     3401.236     1521.084        1.876        0.489      166.563       38.207        0.053      338.058       10.450      861.065
03/28/2014  22:02:00     -143.524      -94.723       -1.958       63.914       63.907       37.539     4085.020     4084.070     1409.173        1.957        0.479      171.963       34.165        0.039      338.042       10.422      861.081
03/28/2014  22:03:00      -14.804       -4.529       34.513       54.094       30.136       23.427     2926.170      908.179      548.803        0.291        0.219       15.481       26.535        2.938      338.062       10.458      861.065
03/28/2014  22:04:00      -32.398       16.425       -9.666       25.882       36.825       27.827      669.890     1356.082      774.346        0.211        0.140       36.323       13.328        0.135      338.118       10.553      860.960
03/28/2014  22:05:00     -157.569     -115.051      -17.376      153.114      120.870       54.839    23443.940    14609.616     3007.320        3.971        2.053      195.102       60.300        0.096      338.145       10.597      860.927
03/28/2014  22:06:00       20.813      -45.334       38.587       83.372      128.681       64.836     6950.888    16558.830     4203.704        1.584        1.386       49.883       77.256        2.399      338.151       10.607      860.889
03/28/2014  22:07:00       85.930     -174.832      -33.378      128.384      141.946       66.164    16482.469    20148.587     4377.740        4.003        2.050      194.808       44.075        0.051      338.188       10.667      860.838
03/28/2014  22:08:00      -43.012     -144.059      -13.433      130.962      110.762       52.944    17151.110    12268.241     2803.018        2.750        1.611      150.343       51.810        0.119      338.133       10.576      860.744
03/28/2014  22:09:00      -56.560     -118.327       12.085       99.726       91.709       53.385     9945.231     8410.476     2849.969        1.927        1.060      131.150       55.895        0.182      338.101       10.523      860.787
03/28/2014  22:10:00      -49.685     -106.740       -6.609      119.285       50.556       59.986    14228.841     2555.890     3598.339        1.714        1.019      117.737       28.911        0.060      338.119       10.554      860.820
03/28/2014  22:11:00     -187.101     -161.877       -3.248       90.878       88.312       50.626     8258.882     7799.030     2562.947        3.992        0.931      247.408       49.338        0.040      338.141       10.588      860.834
03/28/2014  22:12:00      -65.852      -80.727        7.480       85.442       83.347       36.347     7300.387     6946.669     1321.114        1.324        0.778      104.179       31.659        0.092      338.133       10.578      860.779
03/28/2014  22:13:00      -24.732      -62.205        8.083       49.423       74.382       35.577     2442.610     5532.613     1265.710        0.689        0.462       66.941       27.348        0.167      338.173       10.645      860.736
03/28/2014  22:14:00      -96.063     -182.748      -10.198       82.796      106.357       43.737     6855.131    11311.713     1912.942        3.140        1.004      206.458       48.447        0.055      338.276       10.815      860.781
03/28/2014  22:15:00     -160.105     -166.967       -8.346       86.342      110.933       47.135     7454.909    12306.150     2221.666        3.778        1.099      231.326       46.785        0.041      338.206       10.697      860.770
03/28/2014  22:16:00     -115.352      -31.387       -8.162       88.686       43.165       42.109     7865.281     1863.259     1773.159        1.293        0.575      119.546       41.415        0.120      338.251       10.775      860.685
03/28/2014  22:17:00      -19.624      -53.780        7.877       29.349       34.702       23.977      861.335     1204.229      574.899        0.299        0.132       57.249       13.165        0.053      338.262       10.795      860.660
03/28/2014  22:18:00       -3.779       -4.973       10.321       38.814       46.365       20.324     1506.496     2149.684      413.050        0.211        0.203        6.246       20.281       10.543      338.221       10.726      860.658
03/28/2014  22:19:00       13.209      -28.009       34.728       40.788       86.845       37.025     1663.660     7541.968     1370.851        0.637        0.529       30.968       45.204        2.131      338.214       10.713      860.606
03/28/2014  22:20:00      -62.257      -42.162        1.246       84.304       50.788       31.702     7107.104     2579.437     1005.047        0.817        0.535       75.190       17.973        0.057      338.288       10.838      860.640
03/28/2014  22:21:00      -10.438      -57.160       21.748      101.809       79.049       64.554    10365.011     6248.773     4167.254        1.231        1.039       58.105       56.601        0.949      338.283       10.829      860.698
03/28/2014  22:22:00      -38.472     -158.080      -15.139       80.569       82.105       38.858     6491.313     6741.211     1509.953        2.072        0.737      162.694       36.990        0.052      338.306       10.867      860.688
03/28/2014  22:23:00     -110.142     -161.684       -7.385       90.414       63.706       39.828     8174.620     4058.402     1586.275        2.607        0.691      195.635       31.446        0.026      338.284       10.830      860.688
03/28/2014  22:24:00     -200.427     -127.929      -11.220       87.474       71.043       42.514     7651.688     5047.080     1807.404        3.558        0.725      237.775       39.220        0.027      338.253       10.777      860.694
03/28/2014  22:25:00     -221.513     -187.645       -5.355      108.158      105.991       48.447    11698.106    11234.040     2347.112        5.479        1.264      290.308       43.858        0.023      338.253       10.777      860.699
03/28/2014  22:26:00     -145.648     -137.176       -4.302       84.078       78.593       50.522     7069.046     6176.833     2552.445        2.792        0.790      200.076       46.479        0.054      338.237       10.750      860.710
03/28/2014  22:27:00     -145.798      -95.176       -2.929       80.819       79.840       37.008     6531.636     6374.458     1369.594        2.230        0.714      174.113       45.723        0.069      338.167       10.633      860.706
03/28/2014  22:28:00     -158.430      -75.823        0.937       69.662       53.943       31.331     4852.821     2909.810      981.639        1.980        0.437      175.640       30.400        0.030      338.153       10.608      860.712
03/28/2014  22:29:00     -117.558      -75.249      -12.698       64.294       43.086       28.166     4133.702     1856.443      793.329        1.321        0.339      139.579       24.586        0.031      338.149       10.605      860.715
03/28/2014  22:30:00     -113.334     -181.425       -4.343       86.601       85.749       41.038     7499.719     7352.887     1684.129        3.115        0.827      213.915       36.655        0.029      338.181       10.656      860.684
03/28/2014  22:31:00     -102.843     -204.534      -17.077      109.854      116.400       61.452    12067.813    13549.066     3776.333        4.104        1.470      228.934       47.157        0.042      338.266       10.798      860.722
03/28/2014  22:32:00      -67.150     -105.554        1.221       81.824       82.890       43.481     6695.110     6870.712     1890.566        1.555        0.773      125.103       25.739        0.042      338.224       10.729      860.759
03/28/2014  22:33:00      -45.442     -124.599      -22.845       65.348       59.500       33.814     4270.343     3540.199     1143.360        1.353        0.448      132.627       29.511        0.050      338.262       10.793      860.763
03/28/2014  22:34:00      -66.805      -77.921        5.292       56.999       56.483       41.514     3248.855     3190.370     1723.450        0.936        0.408      102.638       30.082        0.086      338.348       10.938      860.730
03/28/2014  22:35:00      -56.802      -44.113       -2.328       97.103       39.313       29.306     9429.051     1545.540      858.867        0.850        0.592       71.920       39.279        0.298      338.258       10.788      860.718
03/28/2014  22:36:00      107.440      -71.690       31.848      145.215      124.163       61.060    21087.331    15416.349     3728.332        2.896        2.012      129.162       75.434        0.341      338.213       10.710      860.735
03/28/2014  22:37:00     -171.956     -160.935      -15.214      186.015      122.270       86.185    34601.641    14949.973     7427.853        5.633        2.849      235.519       90.269        0.147      338.244       10.761      860.718
03/28/2014  22:38:00      -45.136     -140.647       -0.544      107.658       82.147       53.487    11590.219     6748.179     2860.902        2.150        1.060      147.712       38.637        0.068      338.320       10.890      860.730
03/28/2014  22:39:00      -94.778     -199.605      -14.828      158.706      138.141       67.091    25187.495    19083.019     4501.215        4.890        2.439      220.964       65.580        0.088      338.281       10.824      860.754
03/28/2014  22:40:00     -139.650     -167.748       -2.994      108.872      113.934       50.585    11853.132    12980.991     2558.837        3.752        1.370      218.270       56.780        0.068      338.220       10.721      860.759
03/28/2014  22:41:00      -26.645      -37.136        5.049       52.041       73.969       32.082     2708.234     5471.359     1029.247        0.566        0.460       45.706       31.428        0.473      338.238       10.754      860.710
03/28/2014  22:42:00        9.902      -53.684       13.791       58.680       91.934       64.274     3443.330     8451.828     4131.129        0.960        0.801       54.589       68.553        1.577      338.240       10.756      860.660
03/28/2014  22:43:00       10.076      -98.926       -7.434       43.899       61.189       37.949     1927.110     3744.068     1440.129        0.853        0.356       99.438       28.525        0.082      338.330       10.907      860.634
03/28/2014  22:44:00       51.730       -4.414       46.926       57.136       81.109       51.877     3264.521     6578.710     2691.229        0.871        0.627       51.918       55.912        1.160      338.242       10.760      860.626
03/28/2014  22:45:00        1.602        7.880       92.004       61.349       77.974       74.516     3763.709     6079.914     5552.654        1.196        0.770        8.041       55.459       47.566      338.182       10.659      860.618
03/28/2014  22:46:00      128.768     -111.055       69.415      121.142      214.262      134.126    14675.465    45908.177    17989.755        5.614        3.929      170.042      150.467        0.783      338.201       10.689      860.555
03/28/2014  22:47:00      121.983     -135.987       36.121      153.192      158.319       87.106    23467.803    25065.036     7587.533        4.539        2.806      182.681       94.609        0.268      338.286       10.832      860.547
03/28/2014  22:48:00      -23.986      -41.712       44.571       95.283       88.336       51.002     9078.918     7803.217     2601.184        1.189        0.974       48.117       44.685        0.862      338.325       10.900      860.576
03/28/2014  22:49:00      -22.067      -49.791       15.861       91.624       87.719       56.463     8394.908     7694.624     3188.116        1.124        0.964       54.462       36.493        0.449      338.332       10.912      860.573
03/28/2014  22:50:00      130.171     -181.295       18.228      120.284      195.547       99.600    14468.220    38238.635     9920.239        5.637        3.131      223.187      123.882        0.308      338.315       10.881      860.562
03/28/2014  22:51:00       20.808      -94.208        3.761       65.578       74.419       44.003     4300.436     5538.256     1936.278        1.055        0.589       96.478       41.982        0.189      338.413       11.047      860.608
03/28/2014  22:52:00      -20.158      -21.473        8.633       43.111       43.813       27.700     1858.556     1919.556      767.298        0.274        0.227       29.452       30.739        1.089      338.360       10.958      860.595
03/28/2014  22:53:00      -38.398      -47.430       -4.688       81.999       48.819       30.934     6723.782     2383.274      956.883        0.690        0.503       61.025       25.220        0.171      338.392       11.012      860.634
03/28/2014  22:54:00      -11.820      -70.461       20.396      107.443       63.840       49.234    11543.948     4075.486     2423.947        1.178        0.902       71.445       54.499        0.582      338.363       10.963      860.672
03/28/2014  22:55:00      -27.276      -92.974        6.944       90.076       61.591       41.102     8113.707     3793.425     1689.362        1.151        0.680       96.892       30.419        0.099      338.405       11.032      860.674
03/28/2014  22:56:00      -43.224      -63.263        5.904       91.356       51.033       38.280     8345.984     2604.391     1465.349        0.916        0.621       76.619       28.182        0.135      338.364       10.966      860.664
03/28/2014  22:57:00      -67.080     -221.567       -8.597      104.959      154.350       73.697    11016.464    23824.050     5431.203        4.696        2.014      231.499       63.025        0.074      338.390       11.006      860.670
03/28/2014  22:58:00      -60.000     -172.327      -10.844       97.011      123.369       56.585     9411.130    15219.822     3201.823        3.062        1.392      182.474       47.091        0.067      338.404       11.030      860.680
03/28/2014  22:59:00      -98.784      -78.264       14.864       80.051       91.518       44.899     6408.137     8375.592     2015.964        1.645        0.840      126.030       29.977        0.057      338.308       10.869      860.620
03/28/2014  23:00:00      -85.594      -69.461       17.254       54.539       52.809       38.426     2974.530     2788.789     1476.593        0.984        0.362      110.232       35.577        0.104      338.297       10.853      860.520
03/28/2014  23:01:00       28.790      -96.679      -11.016       55.041       54.142       36.660     3029.481     2931.353     1343.929        0.880        0.365      100.875       29.329        0.085      338.398       11.021      860.537
03/28/2014  23:02:00       -9.133      -55.695       -0.861       66.772       52.790       40.075     4458.561     2786.752     1605.998        0.602        0.443       56.439       30.834        0.298      338.341       10.927      860.596
03/28/2014  23:03:00      -78.205      -40.158       11.479       59.954       80.457       31.897     3594.456     6473.382     1017.442        0.947        0.554       87.913       32.282        0.135      338.324       10.897      860.588
03/28/2014  23:04:00       13.803      -88.574       17.644       94.013       92.329       64.092     8838.362     8524.705     4107.841        1.490        1.074       89.643       56.274        0.394      338.335       10.915      860.541
03/28/2014  23:05:00       66.176     -118.722       10.864      119.814       79.703       58.891    14355.464     6352.637     3468.141        2.138        1.209      135.920       60.324        0.197      338.366       10.967      860.526
03/28/2014  23:06:00       97.420     -127.490      -14.496       85.869       81.873       57.958     7373.505     6703.244     3359.185        2.169        0.872      160.451       56.401        0.124      338.234       10.745      860.540
03/28/2014  23:07:00       15.159      -74.008        7.509       65.793       68.428       48.398     4328.782     4682.369     2342.403        0.856        0.568       75.545       31.898        0.178      338.356       10.953      860.545
03/28/2014  23:08:00       40.882     -208.252      -14.188      161.604      143.803       73.819    26115.866    20679.409     5449.266        4.873        2.612      212.227       64.225        0.092      338.400       11.022      860.577
03/28/2014  23:09:00       17.776     -228.680       -4.430      151.020      152.221       87.643    22806.929    23171.297     7681.298        5.313        2.683      229.370       78.873        0.118      338.354       10.947      860.566
03/28/2014  23:10:00      -54.731     -213.403       -0.674      108.600      152.059       59.904    11793.921    23121.811     3588.507        4.351        1.925      220.309       69.726        0.100      338.449       11.105      860.554
03/28/2014  23:11:00      -73.707     -193.635        5.363      130.427      148.518       62.003    17011.319    22057.642     3844.365        4.293        2.146      207.189       71.248        0.118      338.380       10.990      860.504
03/28/2014  23:12:00     -104.775     -180.682        5.495      132.675      114.827       51.591    17602.666    13185.260     2661.625        3.855        1.672      208.863       48.666        0.054      338.392       11.009      860.452
03/28/2014  23:13:00       99.262     -269.531        9.330      155.210      200.715       65.768    24090.132    40286.330     4325.404        7.563        3.435      287.228       99.515        0.120      338.360       10.957      860.440
03/28/2014  23:14:00       16.918     -148.399        9.153       82.971      105.166       62.986     6884.181    11059.828     3967.179        2.215        1.096      149.360       42.065        0.079      338.392       11.011      860.400
03/28/2014  23:15:00       21.638      -96.673       14.640       90.331       56.391       31.406     8159.662     3179.891      986.334        1.117        0.616       99.065       19.816        0.040      338.489       11.176      860.412
03/28/2014  23:16:00       12.233      -98.302        0.578       77.797       80.826       51.344     6052.441     6532.842     2636.238        1.251        0.761       99.060       53.177        0.288      338.487       11.170      860.391
03/28/2014  23:17:00      -99.916      -91.755       -1.059       91.663       77.099       42.788     8402.149     5944.265     1830.847        1.729        0.809      135.655       46.820        0.119      338.428       11.070      860.354
03/28/2014  23:18:00       -7.318       -2.483       30.323       53.480       87.156       42.112     2860.100     7596.090     1773.452        0.660        0.611        7.728       51.800       44.933      338.405       11.034      860.389
03/28/2014  23:19:00       91.788     -170.995       33.905       94.469      153.715       97.344     8924.328    23628.387     9475.919        4.041        2.101      194.073       98.295        0.257      338.440       11.089      860.390
03/28/2014  23:20:00        0.984     -158.687      -28.115       99.429       71.720       51.255     9886.075     5143.818     2627.106        2.181        0.883      158.690       43.396        0.075      338.412       11.045      860.431
03/28/2014  23:21:00       38.777      -88.614       26.916       94.577      159.044       57.583     8944.891    25295.152     3315.812        2.381        1.878       96.727       65.648        0.461      338.406       11.034      860.427
03/28/2014  23:22:00       49.449      -77.710       47.567       67.168      113.003       86.535     4511.601    12769.740     7488.297        1.775        1.238       92.109       78.612        0.728      338.344       10.930      860.411
03/28/2014  23:23:00       15.241      -68.688       15.573       43.820       60.803       43.173     1920.206     3696.975     1863.874        0.634        0.374       70.359       30.466        0.187      338.492       11.180      860.375
03/28/2014  23:24:00      -10.655       10.944      110.871       49.336      121.742       82.713     2434.000    14821.128     6841.362        1.831        1.205       15.274       90.888       35.407      338.368       10.971      860.365
03/28/2014  23:25:00      108.152      -99.205        6.576       89.278       83.365       57.450     7970.509     6949.653     3300.458        1.990        0.911      146.760       52.646        0.129      338.413       11.046      860.367
03/28/2014  23:26:00       73.159      -71.524       46.462       80.426      112.169       63.517     6468.315    12581.939     4034.397        1.785        1.154      102.313       66.996        0.429      338.389       11.006      860.335
03/28/2014  23:27:00      153.572     -213.039       -3.309      114.742      127.718       69.421    13165.756    16311.903     4819.247        5.163        1.715      262.621       73.620        0.079      338.493       11.179      860.319
03/28/2014  23:28:00      107.459     -278.739       -2.352      157.132      163.430       75.650    24690.501    26709.517     5722.855        7.317        2.856      298.736       50.840        0.029      338.427       11.066      860.292
03/28/2014  23:29:00       31.689     -162.911        8.048       93.949      116.433       47.324     8826.382    13556.721     2239.603        2.611        1.231      165.964       43.813        0.070      338.415       11.050      860.296
03/28/2014  23:30:00      -15.603      -45.895       30.372       59.952       69.232       41.667     3594.276     4793.049     1736.105        0.670        0.506       48.475       42.215        0.758      338.441       11.094      860.253
03/28/2014  23:31:00      -10.993      -52.186        9.785       41.296       59.434       31.116     1705.357     3532.377      968.183        0.457        0.310       53.332       30.066        0.318      338.449       11.108      860.195
03/28/2014  23:32:00      -55.541      -66.467       -1.229      100.621       69.460       42.280    10124.648     4824.739     1787.618        1.212        0.837       86.618       21.634        0.062      338.453       11.114      860.157
03/28/2014  23:33:00        1.028      -86.339        9.608       52.550       63.362       39.025     2761.529     4014.790     1522.974        0.792        0.415       86.345       36.975        0.183      338.442       11.095      860.188
03/28/2014  23:34:00      115.984     -231.864       12.743      146.058      215.383      102.304    21332.817    46389.993    10466.191        7.277        3.909      259.255      117.418        0.205      338.411       11.042      860.271
03/28/2014  23:35:00      213.875     -294.346       -6.747      170.250      205.645       89.850    28985.015    42289.808     8072.956       10.587        3.967      363.844      113.314        0.097      338.316       10.882      860.250
03/28/2014  23:36:00       55.327      -75.238       61.162       85.977      137.027       68.985     7392.000    18776.460     4758.940        2.169        1.546       93.391       77.916        0.696      338.318       10.886      860.217
03/28/2014  23:37:00      -36.550      -64.319       51.857       64.359       99.713       54.814     4142.032     9942.771     3004.585        1.262        0.854       73.979       44.875        0.368      338.356       10.951      860.133
03/28/2014  23:38:00      -34.634      -72.372       16.447       72.108       54.939       40.395     5199.616     3018.282     1631.728        0.828        0.492       80.233       42.191        0.277      338.425       11.068      860.109
03/28/2014  23:39:00      115.180     -158.332       23.129      174.223      163.994       92.900    30353.598    26893.938     8630.417        5.236        3.294      195.795       98.878        0.255      338.411       11.042      860.081
03/28/2014  23:40:00       65.270      -75.168       86.634      160.219      154.547       95.385    25670.267    23884.634     9098.211        3.802        2.933       99.551       94.209        0.896      338.328       10.903      860.084
03/28/2014  23:41:00       10.287      -19.502      106.035      103.324      120.149      107.266    10675.935    14435.734    11506.098        2.417        1.831       22.049       82.004       13.832      338.313       10.879      860.086
03/28/2014  23:42:00       69.581      -45.574       54.330      126.442      151.221       93.989    15987.555    22867.717     8833.957        2.877        2.384       83.177      107.182        1.660      338.289       10.839      860.134
03/28/2014  23:43:00      102.364     -125.762       88.567      144.106      179.021      114.975    20766.457    32048.439    13219.198        5.007        3.302      162.156      122.938        0.575      338.325       10.899      860.107
03/28/2014  23:44:00      183.234     -275.346        2.826      126.830      157.463       79.911    16085.902    24794.668     6385.834        7.832        2.363      330.742       76.974        0.054      338.412       11.042      860.179
03/28/2014  23:45:00       99.918     -102.066       34.475      102.304      145.490       86.703    10466.100    21167.407     7517.326        3.036        1.958      142.832      101.063        0.501      338.383       10.996      860.220
03/28/2014  23:46:00       71.303     -185.467      -32.258       98.441      105.700       61.357     9690.535    11172.574     3764.693        3.257        1.231      198.701       64.087        0.104      338.431       11.076      860.255
03/28/2014  23:47:00       62.000     -172.263       -0.940      114.259      113.977       67.546    13055.210    12990.713     4562.420        3.206        1.530      183.081       52.774        0.083      338.544       11.265      860.269
03/28/2014  23:48:00      129.596     -203.978      -18.278      132.903      128.088       60.611    17663.224    16406.487     3673.671        4.823        1.887      241.665       70.822        0.086      338.533       11.247      860.286
03/28/2014  23:49:00     -211.359      -86.131        3.653       92.237       80.847       37.312     8507.607     6536.254     1392.198        3.427        0.822      228.235       38.083        0.028      338.441       11.089      860.275
03/28/2014  23:50:00      -89.852     -212.421        2.067       58.267       75.410       37.554     3395.044     5686.665     1410.284        3.184        0.525      230.642       29.813        0.017      338.508       11.205      860.220
03/28/2014  23:51:00      -90.535     -150.843      -12.217       86.110       48.048       38.455     7414.961     2308.577     1478.795        2.115        0.560      175.926       40.227        0.052      338.517       11.220      860.163
03/28/2014  23:52:00      -40.631      -92.467       12.536       78.011       80.524       49.738     6085.720     6484.186     2473.902        1.270        0.752      101.000       44.064        0.190      338.486       11.169      860.171
03/28/2014  23:53:00      -77.242     -118.778       -4.122       96.187       66.444       46.310     9252.028     4414.776     2144.620        1.795        0.791      141.685       37.367        0.070      338.531       11.243      860.181
03/28/2014  23:54:00      -18.466      -61.818       -1.446       47.673       51.309       31.208     2272.688     2632.658      973.966        0.502        0.294       64.517       28.618        0.197      338.530       11.243      860.180
03/28/2014  23:55:00      -27.002      -11.100       -5.327       33.152       55.235       31.396     1099.061     3050.872      985.692        0.301        0.257       29.194       25.868        0.785      338.526       11.237      860.210
03/28/2014  23:56:00       76.022     -158.340       14.724      116.210      149.741       84.711    13504.775    22422.503     7176.018        3.708        2.155      175.644       87.717        0.249      338.523       11.232      860.198
03/28/2014  23:57:00        7.440     -164.353       -6.454      137.872       90.094       60.889    19008.758     8116.939     3707.514        2.896        1.542      164.521       50.514        0.094      338.519       11.224      860.168
03/28/2014  23:58:00      -85.914     -131.489       13.521      116.972       91.342       56.252    13682.340     8343.277     3164.322        2.502        1.259      157.069       47.590        0.092      338.481       11.159      860.127
03/28/2014  23:59:00        1.370     -152.848      -10.520      139.034       93.768       72.224    19330.326     8792.369     5216.317        2.840        1.667      152.855       46.857        0.094      338.466       11.133      860.089
